<?xml version="1.0" encoding="ISO-8859-1"?>
<gpx version="1.1" 
creator="Memory-Map 5.4.2.1089 http://www.memory-map.com"
 xmlns:xsi="http://www.w3.org/2001/XMLSchema-instance"
 xmlns="http://www.topografix.com/GPX/1/1"
 xsi:schemaLocation="http://www.topografix.com/GPX/1/1 http://www.topografix.com/GPX/1/1/gpx.xsd">
<trk>
<name>Moel Siabod Via Daerddu Ridge</name>
<type>Training:Other</type>
<trkseg>
<trkpt lat="53.0960804000" lon="-3.8894296000"><ele>171</ele><time>2010-04-06T09:52:12Z</time></trkpt>
<trkpt lat="53.0960768000" lon="-3.8893409000"><ele>168</ele><time>2010-04-06T09:52:19Z</time></trkpt>
<trkpt lat="53.0960498000" lon="-3.8892658000"><ele>166</ele><time>2010-04-06T09:52:24Z</time></trkpt>
<trkpt lat="53.0960001000" lon="-3.8892320000"><ele>166</ele><time>2010-04-06T09:52:29Z</time></trkpt>
<trkpt lat="53.0959781000" lon="-3.8892815000"><ele>167</ele><time>2010-04-06T09:52:33Z</time></trkpt>
<trkpt lat="53.0959690000" lon="-3.8893467000"><ele>167</ele><time>2010-04-06T09:52:37Z</time></trkpt>
<trkpt lat="53.0959721000" lon="-3.8894145000"><ele>168</ele><time>2010-04-06T09:52:44Z</time></trkpt>
<trkpt lat="53.0959617000" lon="-3.8894337000"><ele>169</ele><time>2010-04-06T09:52:52Z</time></trkpt>
<trkpt lat="53.0959448000" lon="-3.8895482000"><ele>170</ele><time>2010-04-06T09:52:59Z</time></trkpt>
<trkpt lat="53.0959830000" lon="-3.8897115000"><ele>167</ele><time>2010-04-06T09:53:08Z</time></trkpt>
<trkpt lat="53.0960250000" lon="-3.8898827000"><ele>168</ele><time>2010-04-06T09:53:17Z</time></trkpt>
<trkpt lat="53.0960332000" lon="-3.8900304000"><ele>167</ele><time>2010-04-06T09:53:25Z</time></trkpt>
<trkpt lat="53.0960484000" lon="-3.8902174000"><ele>163</ele><time>2010-04-06T09:53:35Z</time></trkpt>
<trkpt lat="53.0960674000" lon="-3.8903173000"><ele>160</ele><time>2010-04-06T09:53:41Z</time></trkpt>
<trkpt lat="53.0960685000" lon="-3.8903723000"><ele>167</ele><time>2010-04-06T09:53:49Z</time></trkpt>
<trkpt lat="53.0960933000" lon="-3.8903517000"><ele>172</ele><time>2010-04-06T09:53:55Z</time></trkpt>
<trkpt lat="53.0961099000" lon="-3.8903952000"><ele>170</ele><time>2010-04-06T09:54:00Z</time></trkpt>
<trkpt lat="53.0961762000" lon="-3.8905294000"><ele>168</ele><time>2010-04-06T09:54:11Z</time></trkpt>
<trkpt lat="53.0961944000" lon="-3.8905649000"><ele>166</ele><time>2010-04-06T09:54:14Z</time></trkpt>
<trkpt lat="53.0962280000" lon="-3.8906188000"><ele>168</ele><time>2010-04-06T09:54:18Z</time></trkpt>
<trkpt lat="53.0962969000" lon="-3.8907334000"><ele>170</ele><time>2010-04-06T09:54:28Z</time></trkpt>
<trkpt lat="53.0963435000" lon="-3.8908022000"><ele>170</ele><time>2010-04-06T09:54:34Z</time></trkpt>
<trkpt lat="53.0963985000" lon="-3.8908800000"><ele>165</ele><time>2010-04-06T09:54:41Z</time></trkpt>
<trkpt lat="53.0964719000" lon="-3.8909960000"><ele>161</ele><time>2010-04-06T09:54:51Z</time></trkpt>
<trkpt lat="53.0965201000" lon="-3.8910932000"><ele>161</ele><time>2010-04-06T09:54:59Z</time></trkpt>
<trkpt lat="53.0965793000" lon="-3.8912203000"><ele>162</ele><time>2010-04-06T09:55:08Z</time></trkpt>
<trkpt lat="53.0966314000" lon="-3.8913318000"><ele>161</ele><time>2010-04-06T09:55:16Z</time></trkpt>
<trkpt lat="53.0966444000" lon="-3.8913607000"><ele>160</ele><time>2010-04-06T09:55:18Z</time></trkpt>
<trkpt lat="53.0966785000" lon="-3.8914243000"><ele>164</ele><time>2010-04-06T09:55:22Z</time></trkpt>
<trkpt lat="53.0967440000" lon="-3.8915750000"><ele>162</ele><time>2010-04-06T09:55:33Z</time></trkpt>
<trkpt lat="53.0967951000" lon="-3.8917231000"><ele>161</ele><time>2010-04-06T09:55:43Z</time></trkpt>
<trkpt lat="53.0968070000" lon="-3.8917798000"><ele>162</ele><time>2010-04-06T09:55:46Z</time></trkpt>
<trkpt lat="53.0967634000" lon="-3.8918044000"><ele>168</ele><time>2010-04-06T09:55:53Z</time></trkpt>
<trkpt lat="53.0966777000" lon="-3.8917465000"><ele>169</ele><time>2010-04-06T09:56:03Z</time></trkpt>
<trkpt lat="53.0965631000" lon="-3.8916745000"><ele>171</ele><time>2010-04-06T09:56:14Z</time></trkpt>
<trkpt lat="53.0964932000" lon="-3.8916351000"><ele>173</ele><time>2010-04-06T09:56:21Z</time></trkpt>
<trkpt lat="53.0964751000" lon="-3.8916319000"><ele>174</ele><time>2010-04-06T09:56:28Z</time></trkpt>
<trkpt lat="53.0964276000" lon="-3.8916108000"><ele>175</ele><time>2010-04-06T09:56:35Z</time></trkpt>
<trkpt lat="53.0963364000" lon="-3.8915522000"><ele>176</ele><time>2010-04-06T09:56:46Z</time></trkpt>
<trkpt lat="53.0962584000" lon="-3.8915268000"><ele>176</ele><time>2010-04-06T09:56:55Z</time></trkpt>
<trkpt lat="53.0961740000" lon="-3.8915268000"><ele>177</ele><time>2010-04-06T09:57:04Z</time></trkpt>
<trkpt lat="53.0961094000" lon="-3.8914856000"><ele>176</ele><time>2010-04-06T09:57:11Z</time></trkpt>
<trkpt lat="53.0960391000" lon="-3.8914679000"><ele>175</ele><time>2010-04-06T09:57:19Z</time></trkpt>
<trkpt lat="53.0959002000" lon="-3.8914651000"><ele>173</ele><time>2010-04-06T09:57:33Z</time></trkpt>
<trkpt lat="53.0958088000" lon="-3.8915041000"><ele>173</ele><time>2010-04-06T09:57:43Z</time></trkpt>
<trkpt lat="53.0957880000" lon="-3.8915245000"><ele>174</ele><time>2010-04-06T09:57:45Z</time></trkpt>
<trkpt lat="53.0957042000" lon="-3.8915990000"><ele>178</ele><time>2010-04-06T09:57:53Z</time></trkpt>
<trkpt lat="53.0956930000" lon="-3.8916072000"><ele>178</ele><time>2010-04-06T09:57:54Z</time></trkpt>
<trkpt lat="53.0956214000" lon="-3.8916518000"><ele>180</ele><time>2010-04-06T09:58:02Z</time></trkpt>
<trkpt lat="53.0956045000" lon="-3.8916877000"><ele>180</ele><time>2010-04-06T09:58:08Z</time></trkpt>
<trkpt lat="53.0955974000" lon="-3.8916956000"><ele>179</ele><time>2010-04-06T09:58:15Z</time></trkpt>
<trkpt lat="53.0955826000" lon="-3.8916865000"><ele>179</ele><time>2010-04-06T09:58:27Z</time></trkpt>
<trkpt lat="53.0955845000" lon="-3.8916948000"><ele>178</ele><time>2010-04-06T09:58:41Z</time></trkpt>
<trkpt lat="53.0955856000" lon="-3.8916578000"><ele>179</ele><time>2010-04-06T09:58:49Z</time></trkpt>
<trkpt lat="53.0956008000" lon="-3.8916808000"><ele>178</ele><time>2010-04-06T09:59:05Z</time></trkpt>
<trkpt lat="53.0956163000" lon="-3.8917156000"><ele>178</ele><time>2010-04-06T09:59:19Z</time></trkpt>
<trkpt lat="53.0955708000" lon="-3.8917509000"><ele>178</ele><time>2010-04-06T09:59:28Z</time></trkpt>
<trkpt lat="53.0955467000" lon="-3.8917673000"><ele>181</ele><time>2010-04-06T09:59:34Z</time></trkpt>
<trkpt lat="53.0955418000" lon="-3.8917628000"><ele>181</ele><time>2010-04-06T09:59:47Z</time></trkpt>
<trkpt lat="53.0955513000" lon="-3.8917656000"><ele>174</ele><time>2010-04-06T09:59:59Z</time></trkpt>
<trkpt lat="53.0955038000" lon="-3.8917948000"><ele>177</ele><time>2010-04-06T10:00:16Z</time></trkpt>
<trkpt lat="53.0954549000" lon="-3.8918299000"><ele>177</ele><time>2010-04-06T10:00:21Z</time></trkpt>
<trkpt lat="53.0953737000" lon="-3.8918773000"><ele>177</ele><time>2010-04-06T10:00:31Z</time></trkpt>
<trkpt lat="53.0953091000" lon="-3.8919393000"><ele>178</ele><time>2010-04-06T10:00:41Z</time></trkpt>
<trkpt lat="53.0952428000" lon="-3.8919704000"><ele>178</ele><time>2010-04-06T10:00:49Z</time></trkpt>
<trkpt lat="53.0951852000" lon="-3.8920174000"><ele>179</ele><time>2010-04-06T10:00:57Z</time></trkpt>
<trkpt lat="53.0951376000" lon="-3.8920678000"><ele>184</ele><time>2010-04-06T10:01:05Z</time></trkpt>
<trkpt lat="53.0951022000" lon="-3.8921237000"><ele>179</ele><time>2010-04-06T10:01:11Z</time></trkpt>
<trkpt lat="53.0950474000" lon="-3.8922138000"><ele>179</ele><time>2010-04-06T10:01:19Z</time></trkpt>
<trkpt lat="53.0950055000" lon="-3.8922885000"><ele>185</ele><time>2010-04-06T10:01:27Z</time></trkpt>
<trkpt lat="53.0949531000" lon="-3.8923258000"><ele>188</ele><time>2010-04-06T10:01:35Z</time></trkpt>
<trkpt lat="53.0948900000" lon="-3.8924044000"><ele>189</ele><time>2010-04-06T10:01:44Z</time></trkpt>
<trkpt lat="53.0948361000" lon="-3.8924505000"><ele>190</ele><time>2010-04-06T10:01:52Z</time></trkpt>
<trkpt lat="53.0947868000" lon="-3.8924707000"><ele>190</ele><time>2010-04-06T10:02:00Z</time></trkpt>
<trkpt lat="53.0947217000" lon="-3.8925362000"><ele>193</ele><time>2010-04-06T10:02:08Z</time></trkpt>
<trkpt lat="53.0946586000" lon="-3.8926282000"><ele>195</ele><time>2010-04-06T10:02:17Z</time></trkpt>
<trkpt lat="53.0946155000" lon="-3.8926640000"><ele>197</ele><time>2010-04-06T10:02:24Z</time></trkpt>
<trkpt lat="53.0945423000" lon="-3.8926631000"><ele>198</ele><time>2010-04-06T10:02:33Z</time></trkpt>
<trkpt lat="53.0944740000" lon="-3.8926827000"><ele>201</ele><time>2010-04-06T10:02:40Z</time></trkpt>
<trkpt lat="53.0944211000" lon="-3.8927105000"><ele>199</ele><time>2010-04-06T10:02:46Z</time></trkpt>
<trkpt lat="53.0943601000" lon="-3.8927012000"><ele>200</ele><time>2010-04-06T10:02:53Z</time></trkpt>
<trkpt lat="53.0943008000" lon="-3.8927110000"><ele>198</ele><time>2010-04-06T10:03:01Z</time></trkpt>
<trkpt lat="53.0942493000" lon="-3.8927402000"><ele>198</ele><time>2010-04-06T10:03:10Z</time></trkpt>
<trkpt lat="53.0941915000" lon="-3.8928147000"><ele>197</ele><time>2010-04-06T10:03:17Z</time></trkpt>
<trkpt lat="53.0941472000" lon="-3.8928572000"><ele>198</ele><time>2010-04-06T10:03:24Z</time></trkpt>
<trkpt lat="53.0940840000" lon="-3.8928623000"><ele>202</ele><time>2010-04-06T10:03:32Z</time></trkpt>
<trkpt lat="53.0940259000" lon="-3.8928677000"><ele>205</ele><time>2010-04-06T10:03:40Z</time></trkpt>
<trkpt lat="53.0939393000" lon="-3.8928712000"><ele>206</ele><time>2010-04-06T10:03:51Z</time></trkpt>
<trkpt lat="53.0938938000" lon="-3.8928738000"><ele>207</ele><time>2010-04-06T10:03:58Z</time></trkpt>
<trkpt lat="53.0938535000" lon="-3.8929090000"><ele>208</ele><time>2010-04-06T10:04:05Z</time></trkpt>
<trkpt lat="53.0938057000" lon="-3.8929492000"><ele>208</ele><time>2010-04-06T10:04:14Z</time></trkpt>
<trkpt lat="53.0937505000" lon="-3.8929965000"><ele>207</ele><time>2010-04-06T10:04:24Z</time></trkpt>
<trkpt lat="53.0937109000" lon="-3.8930431000"><ele>209</ele><time>2010-04-06T10:04:32Z</time></trkpt>
<trkpt lat="53.0936681000" lon="-3.8931291000"><ele>213</ele><time>2010-04-06T10:04:41Z</time></trkpt>
<trkpt lat="53.0936095000" lon="-3.8932334000"><ele>216</ele><time>2010-04-06T10:04:48Z</time></trkpt>
<trkpt lat="53.0935519000" lon="-3.8932913000"><ele>217</ele><time>2010-04-06T10:04:57Z</time></trkpt>
<trkpt lat="53.0935011000" lon="-3.8933530000"><ele>218</ele><time>2010-04-06T10:05:06Z</time></trkpt>
<trkpt lat="53.0934364000" lon="-3.8934015000"><ele>219</ele><time>2010-04-06T10:05:16Z</time></trkpt>
<trkpt lat="53.0933888000" lon="-3.8934452000"><ele>221</ele><time>2010-04-06T10:05:24Z</time></trkpt>
<trkpt lat="53.0933451000" lon="-3.8935149000"><ele>223</ele><time>2010-04-06T10:05:33Z</time></trkpt>
<trkpt lat="53.0933038000" lon="-3.8936131000"><ele>226</ele><time>2010-04-06T10:05:42Z</time></trkpt>
<trkpt lat="53.0932661000" lon="-3.8936921000"><ele>227</ele><time>2010-04-06T10:05:50Z</time></trkpt>
<trkpt lat="53.0932355000" lon="-3.8937535000"><ele>226</ele><time>2010-04-06T10:05:59Z</time></trkpt>
<trkpt lat="53.0931971000" lon="-3.8938074000"><ele>226</ele><time>2010-04-06T10:06:08Z</time></trkpt>
<trkpt lat="53.0931553000" lon="-3.8938607000"><ele>228</ele><time>2010-04-06T10:06:17Z</time></trkpt>
<trkpt lat="53.0931168000" lon="-3.8939305000"><ele>230</ele><time>2010-04-06T10:06:27Z</time></trkpt>
<trkpt lat="53.0930749000" lon="-3.8940163000"><ele>232</ele><time>2010-04-06T10:06:38Z</time></trkpt>
<trkpt lat="53.0930286000" lon="-3.8940595000"><ele>234</ele><time>2010-04-06T10:06:46Z</time></trkpt>
<trkpt lat="53.0929672000" lon="-3.8940678000"><ele>236</ele><time>2010-04-06T10:06:55Z</time></trkpt>
<trkpt lat="53.0929003000" lon="-3.8940821000"><ele>238</ele><time>2010-04-06T10:07:04Z</time></trkpt>
<trkpt lat="53.0928462000" lon="-3.8941233000"><ele>240</ele><time>2010-04-06T10:07:12Z</time></trkpt>
<trkpt lat="53.0928221000" lon="-3.8942194000"><ele>241</ele><time>2010-04-06T10:07:21Z</time></trkpt>
<trkpt lat="53.0928463000" lon="-3.8943139000"><ele>241</ele><time>2010-04-06T10:07:31Z</time></trkpt>
<trkpt lat="53.0928993000" lon="-3.8943890000"><ele>239</ele><time>2010-04-06T10:07:41Z</time></trkpt>
<trkpt lat="53.0929299000" lon="-3.8944833000"><ele>239</ele><time>2010-04-06T10:07:51Z</time></trkpt>
<trkpt lat="53.0929152000" lon="-3.8946174000"><ele>244</ele><time>2010-04-06T10:08:02Z</time></trkpt>
<trkpt lat="53.0929234000" lon="-3.8946873000"><ele>244</ele><time>2010-04-06T10:08:10Z</time></trkpt>
<trkpt lat="53.0929905000" lon="-3.8946708000"><ele>244</ele><time>2010-04-06T10:08:18Z</time></trkpt>
<trkpt lat="53.0930614000" lon="-3.8947015000"><ele>244</ele><time>2010-04-06T10:08:26Z</time></trkpt>
<trkpt lat="53.0931153000" lon="-3.8947967000"><ele>244</ele><time>2010-04-06T10:08:36Z</time></trkpt>
<trkpt lat="53.0931365000" lon="-3.8948296000"><ele>246</ele><time>2010-04-06T10:08:42Z</time></trkpt>
<trkpt lat="53.0931553000" lon="-3.8948599000"><ele>247</ele><time>2010-04-06T10:08:54Z</time></trkpt>
<trkpt lat="53.0931822000" lon="-3.8948946000"><ele>245</ele><time>2010-04-06T10:09:21Z</time></trkpt>
<trkpt lat="53.0932416000" lon="-3.8950230000"><ele>244</ele><time>2010-04-06T10:09:32Z</time></trkpt>
<trkpt lat="53.0932589000" lon="-3.8951717000"><ele>243</ele><time>2010-04-06T10:09:41Z</time></trkpt>
<trkpt lat="53.0932660000" lon="-3.8953785000"><ele>244</ele><time>2010-04-06T10:09:53Z</time></trkpt>
<trkpt lat="53.0932225000" lon="-3.8954831000"><ele>248</ele><time>2010-04-06T10:10:02Z</time></trkpt>
<trkpt lat="53.0931728000" lon="-3.8955722000"><ele>252</ele><time>2010-04-06T10:10:10Z</time></trkpt>
<trkpt lat="53.0931055000" lon="-3.8956572000"><ele>254</ele><time>2010-04-06T10:10:19Z</time></trkpt>
<trkpt lat="53.0930237000" lon="-3.8957368000"><ele>256</ele><time>2010-04-06T10:10:30Z</time></trkpt>
<trkpt lat="53.0929422000" lon="-3.8958021000"><ele>259</ele><time>2010-04-06T10:10:41Z</time></trkpt>
<trkpt lat="53.0929061000" lon="-3.8958411000"><ele>260</ele><time>2010-04-06T10:10:48Z</time></trkpt>
<trkpt lat="53.0928879000" lon="-3.8958576000"><ele>260</ele><time>2010-04-06T10:10:55Z</time></trkpt>
<trkpt lat="53.0928563000" lon="-3.8958622000"><ele>261</ele><time>2010-04-06T10:11:01Z</time></trkpt>
<trkpt lat="53.0928221000" lon="-3.8958798000"><ele>262</ele><time>2010-04-06T10:11:09Z</time></trkpt>
<trkpt lat="53.0928190000" lon="-3.8958863000"><ele>263</ele><time>2010-04-06T10:11:22Z</time></trkpt>
<trkpt lat="53.0927878000" lon="-3.8959113000"><ele>264</ele><time>2010-04-06T10:11:32Z</time></trkpt>
<trkpt lat="53.0927703000" lon="-3.8959153000"><ele>264</ele><time>2010-04-06T10:11:38Z</time></trkpt>
<trkpt lat="53.0927251000" lon="-3.8959433000"><ele>265</ele><time>2010-04-06T10:11:46Z</time></trkpt>
<trkpt lat="53.0926838000" lon="-3.8959736000"><ele>266</ele><time>2010-04-06T10:11:55Z</time></trkpt>
<trkpt lat="53.0926889000" lon="-3.8959890000"><ele>267</ele><time>2010-04-06T10:12:07Z</time></trkpt>
<trkpt lat="53.0926658000" lon="-3.8960272000"><ele>266</ele><time>2010-04-06T10:12:15Z</time></trkpt>
<trkpt lat="53.0926383000" lon="-3.8960379000"><ele>265</ele><time>2010-04-06T10:12:23Z</time></trkpt>
<trkpt lat="53.0925959000" lon="-3.8960889000"><ele>266</ele><time>2010-04-06T10:12:30Z</time></trkpt>
<trkpt lat="53.0925914000" lon="-3.8960967000"><ele>267</ele><time>2010-04-06T10:12:39Z</time></trkpt>
<trkpt lat="53.0925854000" lon="-3.8961155000"><ele>267</ele><time>2010-04-06T10:13:00Z</time></trkpt>
<trkpt lat="53.0925489000" lon="-3.8961937000"><ele>269</ele><time>2010-04-06T10:13:08Z</time></trkpt>
<trkpt lat="53.0925055000" lon="-3.8962661000"><ele>270</ele><time>2010-04-06T10:13:16Z</time></trkpt>
<trkpt lat="53.0924560000" lon="-3.8963590000"><ele>272</ele><time>2010-04-06T10:13:25Z</time></trkpt>
<trkpt lat="53.0924082000" lon="-3.8964610000"><ele>273</ele><time>2010-04-06T10:13:34Z</time></trkpt>
<trkpt lat="53.0923590000" lon="-3.8965746000"><ele>274</ele><time>2010-04-06T10:13:44Z</time></trkpt>
<trkpt lat="53.0923160000" lon="-3.8966878000"><ele>275</ele><time>2010-04-06T10:13:53Z</time></trkpt>
<trkpt lat="53.0922813000" lon="-3.8968050000"><ele>276</ele><time>2010-04-06T10:14:02Z</time></trkpt>
<trkpt lat="53.0922404000" lon="-3.8969226000"><ele>277</ele><time>2010-04-06T10:14:11Z</time></trkpt>
<trkpt lat="53.0921892000" lon="-3.8970319000"><ele>280</ele><time>2010-04-06T10:14:21Z</time></trkpt>
<trkpt lat="53.0921326000" lon="-3.8970903000"><ele>282</ele><time>2010-04-06T10:14:30Z</time></trkpt>
<trkpt lat="53.0920701000" lon="-3.8971266000"><ele>284</ele><time>2010-04-06T10:14:39Z</time></trkpt>
<trkpt lat="53.0920034000" lon="-3.8971612000"><ele>285</ele><time>2010-04-06T10:14:48Z</time></trkpt>
<trkpt lat="53.0919270000" lon="-3.8971893000"><ele>287</ele><time>2010-04-06T10:14:59Z</time></trkpt>
<trkpt lat="53.0918617000" lon="-3.8972208000"><ele>289</ele><time>2010-04-06T10:15:09Z</time></trkpt>
<trkpt lat="53.0917969000" lon="-3.8972519000"><ele>290</ele><time>2010-04-06T10:15:18Z</time></trkpt>
<trkpt lat="53.0917261000" lon="-3.8972773000"><ele>291</ele><time>2010-04-06T10:15:28Z</time></trkpt>
<trkpt lat="53.0916702000" lon="-3.8973054000"><ele>292</ele><time>2010-04-06T10:15:36Z</time></trkpt>
<trkpt lat="53.0916168000" lon="-3.8973360000"><ele>293</ele><time>2010-04-06T10:15:44Z</time></trkpt>
<trkpt lat="53.0915524000" lon="-3.8973985000"><ele>295</ele><time>2010-04-06T10:15:54Z</time></trkpt>
<trkpt lat="53.0915039000" lon="-3.8974743000"><ele>296</ele><time>2010-04-06T10:16:03Z</time></trkpt>
<trkpt lat="53.0914758000" lon="-3.8975368000"><ele>297</ele><time>2010-04-06T10:16:10Z</time></trkpt>
<trkpt lat="53.0914310000" lon="-3.8976238000"><ele>298</ele><time>2010-04-06T10:16:20Z</time></trkpt>
<trkpt lat="53.0913930000" lon="-3.8977030000"><ele>298</ele><time>2010-04-06T10:16:28Z</time></trkpt>
<trkpt lat="53.0913761000" lon="-3.8977422000"><ele>299</ele><time>2010-04-06T10:16:35Z</time></trkpt>
<trkpt lat="53.0913888000" lon="-3.8977130000"><ele>299</ele><time>2010-04-06T10:16:59Z</time></trkpt>
<trkpt lat="53.0913902000" lon="-3.8976960000"><ele>297</ele><time>2010-04-06T10:17:39Z</time></trkpt>
<trkpt lat="53.0913867000" lon="-3.8977010000"><ele>297</ele><time>2010-04-06T10:18:04Z</time></trkpt>
<trkpt lat="53.0913751000" lon="-3.8977621000"><ele>297</ele><time>2010-04-06T10:18:20Z</time></trkpt>
<trkpt lat="53.0913319000" lon="-3.8978869000"><ele>297</ele><time>2010-04-06T10:18:29Z</time></trkpt>
<trkpt lat="53.0913119000" lon="-3.8979661000"><ele>297</ele><time>2010-04-06T10:18:34Z</time></trkpt>
<trkpt lat="53.0912883000" lon="-3.8980621000"><ele>298</ele><time>2010-04-06T10:18:40Z</time></trkpt>
<trkpt lat="53.0912417000" lon="-3.8982413000"><ele>299</ele><time>2010-04-06T10:18:51Z</time></trkpt>
<trkpt lat="53.0912043000" lon="-3.8983818000"><ele>299</ele><time>2010-04-06T10:19:00Z</time></trkpt>
<trkpt lat="53.0911774000" lon="-3.8984954000"><ele>300</ele><time>2010-04-06T10:19:09Z</time></trkpt>
<trkpt lat="53.0911606000" lon="-3.8985665000"><ele>301</ele><time>2010-04-06T10:19:15Z</time></trkpt>
<trkpt lat="53.0911230000" lon="-3.8986957000"><ele>301</ele><time>2010-04-06T10:19:24Z</time></trkpt>
<trkpt lat="53.0910983000" lon="-3.8988010000"><ele>302</ele><time>2010-04-06T10:19:32Z</time></trkpt>
<trkpt lat="53.0910772000" lon="-3.8988916000"><ele>303</ele><time>2010-04-06T10:19:39Z</time></trkpt>
<trkpt lat="53.0910474000" lon="-3.8990148000"><ele>304</ele><time>2010-04-06T10:19:48Z</time></trkpt>
<trkpt lat="53.0910089000" lon="-3.8991641000"><ele>306</ele><time>2010-04-06T10:19:58Z</time></trkpt>
<trkpt lat="53.0909630000" lon="-3.8993259000"><ele>308</ele><time>2010-04-06T10:20:10Z</time></trkpt>
<trkpt lat="53.0909366000" lon="-3.8994552000"><ele>310</ele><time>2010-04-06T10:20:19Z</time></trkpt>
<trkpt lat="53.0909028000" lon="-3.8996134000"><ele>311</ele><time>2010-04-06T10:20:30Z</time></trkpt>
<trkpt lat="53.0908640000" lon="-3.8997875000"><ele>312</ele><time>2010-04-06T10:20:42Z</time></trkpt>
<trkpt lat="53.0908350000" lon="-3.8999062000"><ele>314</ele><time>2010-04-06T10:20:50Z</time></trkpt>
<trkpt lat="53.0907924000" lon="-3.9000859000"><ele>313</ele><time>2010-04-06T10:21:02Z</time></trkpt>
<trkpt lat="53.0907607000" lon="-3.9002425000"><ele>313</ele><time>2010-04-06T10:21:12Z</time></trkpt>
<trkpt lat="53.0907272000" lon="-3.9003979000"><ele>314</ele><time>2010-04-06T10:21:22Z</time></trkpt>
<trkpt lat="53.0907116000" lon="-3.9004912000"><ele>314</ele><time>2010-04-06T10:21:31Z</time></trkpt>
<trkpt lat="53.0907178000" lon="-3.9005145000"><ele>315</ele><time>2010-04-06T10:21:43Z</time></trkpt>
<trkpt lat="53.0907139000" lon="-3.9005274000"><ele>316</ele><time>2010-04-06T10:21:50Z</time></trkpt>
<trkpt lat="53.0907066000" lon="-3.9005396000"><ele>316</ele><time>2010-04-06T10:21:56Z</time></trkpt>
<trkpt lat="53.0906763000" lon="-3.9005565000"><ele>317</ele><time>2010-04-06T10:22:02Z</time></trkpt>
<trkpt lat="53.0906673000" lon="-3.9005657000"><ele>318</ele><time>2010-04-06T10:22:09Z</time></trkpt>
<trkpt lat="53.0906603000" lon="-3.9006128000"><ele>321</ele><time>2010-04-06T10:22:42Z</time></trkpt>
<trkpt lat="53.0906501000" lon="-3.9006244000"><ele>322</ele><time>2010-04-06T10:22:49Z</time></trkpt>
<trkpt lat="53.0906349000" lon="-3.9006786000"><ele>322</ele><time>2010-04-06T10:22:56Z</time></trkpt>
<trkpt lat="53.0906181000" lon="-3.9007111000"><ele>322</ele><time>2010-04-06T10:23:03Z</time></trkpt>
<trkpt lat="53.0905966000" lon="-3.9007620000"><ele>322</ele><time>2010-04-06T10:23:11Z</time></trkpt>
<trkpt lat="53.0905543000" lon="-3.9008627000"><ele>322</ele><time>2010-04-06T10:23:19Z</time></trkpt>
<trkpt lat="53.0905127000" lon="-3.9009694000"><ele>322</ele><time>2010-04-06T10:23:28Z</time></trkpt>
<trkpt lat="53.0904629000" lon="-3.9010879000"><ele>324</ele><time>2010-04-06T10:23:37Z</time></trkpt>
<trkpt lat="53.0904107000" lon="-3.9012175000"><ele>326</ele><time>2010-04-06T10:23:47Z</time></trkpt>
<trkpt lat="53.0903663000" lon="-3.9013126000"><ele>326</ele><time>2010-04-06T10:23:55Z</time></trkpt>
<trkpt lat="53.0902930000" lon="-3.9014872000"><ele>327</ele><time>2010-04-06T10:24:08Z</time></trkpt>
<trkpt lat="53.0902492000" lon="-3.9015879000"><ele>328</ele><time>2010-04-06T10:24:16Z</time></trkpt>
<trkpt lat="53.0902051000" lon="-3.9016899000"><ele>329</ele><time>2010-04-06T10:24:24Z</time></trkpt>
<trkpt lat="53.0901647000" lon="-3.9017830000"><ele>330</ele><time>2010-04-06T10:24:31Z</time></trkpt>
<trkpt lat="53.0901062000" lon="-3.9019191000"><ele>330</ele><time>2010-04-06T10:24:41Z</time></trkpt>
<trkpt lat="53.0900576000" lon="-3.9020476000"><ele>331</ele><time>2010-04-06T10:24:51Z</time></trkpt>
<trkpt lat="53.0900110000" lon="-3.9021483000"><ele>331</ele><time>2010-04-06T10:24:59Z</time></trkpt>
<trkpt lat="53.0899675000" lon="-3.9022472000"><ele>332</ele><time>2010-04-06T10:25:07Z</time></trkpt>
<trkpt lat="53.0899258000" lon="-3.9023395000"><ele>333</ele><time>2010-04-06T10:25:15Z</time></trkpt>
<trkpt lat="53.0898788000" lon="-3.9024529000"><ele>335</ele><time>2010-04-06T10:25:24Z</time></trkpt>
<trkpt lat="53.0898155000" lon="-3.9026114000"><ele>335</ele><time>2010-04-06T10:25:36Z</time></trkpt>
<trkpt lat="53.0898083000" lon="-3.9026196000"><ele>335</ele><time>2010-04-06T10:25:42Z</time></trkpt>
<trkpt lat="53.0898130000" lon="-3.9026160000"><ele>335</ele><time>2010-04-06T10:25:52Z</time></trkpt>
<trkpt lat="53.0898117000" lon="-3.9026393000"><ele>336</ele><time>2010-04-06T10:26:04Z</time></trkpt>
<trkpt lat="53.0897678000" lon="-3.9027476000"><ele>338</ele><time>2010-04-06T10:26:13Z</time></trkpt>
<trkpt lat="53.0897274000" lon="-3.9028383000"><ele>339</ele><time>2010-04-06T10:26:22Z</time></trkpt>
<trkpt lat="53.0897136000" lon="-3.9028787000"><ele>340</ele><time>2010-04-06T10:26:31Z</time></trkpt>
<trkpt lat="53.0896715000" lon="-3.9029849000"><ele>341</ele><time>2010-04-06T10:26:39Z</time></trkpt>
<trkpt lat="53.0896118000" lon="-3.9031168000"><ele>341</ele><time>2010-04-06T10:26:49Z</time></trkpt>
<trkpt lat="53.0895483000" lon="-3.9032652000"><ele>342</ele><time>2010-04-06T10:27:00Z</time></trkpt>
<trkpt lat="53.0894826000" lon="-3.9034175000"><ele>345</ele><time>2010-04-06T10:27:11Z</time></trkpt>
<trkpt lat="53.0894224000" lon="-3.9035527000"><ele>344</ele><time>2010-04-06T10:27:21Z</time></trkpt>
<trkpt lat="53.0893653000" lon="-3.9036809000"><ele>345</ele><time>2010-04-06T10:27:31Z</time></trkpt>
<trkpt lat="53.0893249000" lon="-3.9037819000"><ele>346</ele><time>2010-04-06T10:27:39Z</time></trkpt>
<trkpt lat="53.0892764000" lon="-3.9038974000"><ele>349</ele><time>2010-04-06T10:27:48Z</time></trkpt>
<trkpt lat="53.0892178000" lon="-3.9040215000"><ele>350</ele><time>2010-04-06T10:27:58Z</time></trkpt>
<trkpt lat="53.0891881000" lon="-3.9040877000"><ele>351</ele><time>2010-04-06T10:28:06Z</time></trkpt>
<trkpt lat="53.0891634000" lon="-3.9041408000"><ele>351</ele><time>2010-04-06T10:28:14Z</time></trkpt>
<trkpt lat="53.0891059000" lon="-3.9042565000"><ele>352</ele><time>2010-04-06T10:28:24Z</time></trkpt>
<trkpt lat="53.0890571000" lon="-3.9043653000"><ele>353</ele><time>2010-04-06T10:28:33Z</time></trkpt>
<trkpt lat="53.0889874000" lon="-3.9045017000"><ele>353</ele><time>2010-04-06T10:28:44Z</time></trkpt>
<trkpt lat="53.0889218000" lon="-3.9046333000"><ele>355</ele><time>2010-04-06T10:28:55Z</time></trkpt>
<trkpt lat="53.0888615000" lon="-3.9047480000"><ele>357</ele><time>2010-04-06T10:29:05Z</time></trkpt>
<trkpt lat="53.0888086000" lon="-3.9048414000"><ele>358</ele><time>2010-04-06T10:29:13Z</time></trkpt>
<trkpt lat="53.0887511000" lon="-3.9049518000"><ele>360</ele><time>2010-04-06T10:29:22Z</time></trkpt>
<trkpt lat="53.0886981000" lon="-3.9050501000"><ele>361</ele><time>2010-04-06T10:29:31Z</time></trkpt>
<trkpt lat="53.0886433000" lon="-3.9051465000"><ele>362</ele><time>2010-04-06T10:29:40Z</time></trkpt>
<trkpt lat="53.0886267000" lon="-3.9051791000"><ele>362</ele><time>2010-04-06T10:29:46Z</time></trkpt>
<trkpt lat="53.0886427000" lon="-3.9051577000"><ele>363</ele><time>2010-04-06T10:30:06Z</time></trkpt>
<trkpt lat="53.0886289000" lon="-3.9051744000"><ele>363</ele><time>2010-04-06T10:30:56Z</time></trkpt>
<trkpt lat="53.0886038000" lon="-3.9052377000"><ele>363</ele><time>2010-04-06T10:31:01Z</time></trkpt>
<trkpt lat="53.0885514000" lon="-3.9053400000"><ele>363</ele><time>2010-04-06T10:31:09Z</time></trkpt>
<trkpt lat="53.0884848000" lon="-3.9054885000"><ele>364</ele><time>2010-04-06T10:31:19Z</time></trkpt>
<trkpt lat="53.0884330000" lon="-3.9056299000"><ele>365</ele><time>2010-04-06T10:31:28Z</time></trkpt>
<trkpt lat="53.0883683000" lon="-3.9058001000"><ele>366</ele><time>2010-04-06T10:31:39Z</time></trkpt>
<trkpt lat="53.0883206000" lon="-3.9059472000"><ele>368</ele><time>2010-04-06T10:31:49Z</time></trkpt>
<trkpt lat="53.0882627000" lon="-3.9061344000"><ele>370</ele><time>2010-04-06T10:32:01Z</time></trkpt>
<trkpt lat="53.0882090000" lon="-3.9063080000"><ele>371</ele><time>2010-04-06T10:32:12Z</time></trkpt>
<trkpt lat="53.0881402000" lon="-3.9064167000"><ele>373</ele><time>2010-04-06T10:32:22Z</time></trkpt>
<trkpt lat="53.0880791000" lon="-3.9064757000"><ele>374</ele><time>2010-04-06T10:32:29Z</time></trkpt>
<trkpt lat="53.0879788000" lon="-3.9065522000"><ele>374</ele><time>2010-04-06T10:32:39Z</time></trkpt>
<trkpt lat="53.0879588000" lon="-3.9065617000"><ele>374</ele><time>2010-04-06T10:32:41Z</time></trkpt>
<trkpt lat="53.0878781000" lon="-3.9066419000"><ele>374</ele><time>2010-04-06T10:32:50Z</time></trkpt>
<trkpt lat="53.0878218000" lon="-3.9067102000"><ele>374</ele><time>2010-04-06T10:32:58Z</time></trkpt>
<trkpt lat="53.0877658000" lon="-3.9067601000"><ele>375</ele><time>2010-04-06T10:33:06Z</time></trkpt>
<trkpt lat="53.0877062000" lon="-3.9068150000"><ele>375</ele><time>2010-04-06T10:33:14Z</time></trkpt>
<trkpt lat="53.0876911000" lon="-3.9068254000"><ele>376</ele><time>2010-04-06T10:33:21Z</time></trkpt>
<trkpt lat="53.0876941000" lon="-3.9068314000"><ele>375</ele><time>2010-04-06T10:33:27Z</time></trkpt>
<trkpt lat="53.0876836000" lon="-3.9068961000"><ele>375</ele><time>2010-04-06T10:33:33Z</time></trkpt>
<trkpt lat="53.0876554000" lon="-3.9069253000"><ele>375</ele><time>2010-04-06T10:33:39Z</time></trkpt>
<trkpt lat="53.0875679000" lon="-3.9070242000"><ele>375</ele><time>2010-04-06T10:33:49Z</time></trkpt>
<trkpt lat="53.0874851000" lon="-3.9071325000"><ele>375</ele><time>2010-04-06T10:34:00Z</time></trkpt>
<trkpt lat="53.0874342000" lon="-3.9071884000"><ele>376</ele><time>2010-04-06T10:34:07Z</time></trkpt>
<trkpt lat="53.0873847000" lon="-3.9072481000"><ele>377</ele><time>2010-04-06T10:34:14Z</time></trkpt>
<trkpt lat="53.0873359000" lon="-3.9073080000"><ele>378</ele><time>2010-04-06T10:34:21Z</time></trkpt>
<trkpt lat="53.0872825000" lon="-3.9073926000"><ele>380</ele><time>2010-04-06T10:34:30Z</time></trkpt>
<trkpt lat="53.0872645000" lon="-3.9074366000"><ele>381</ele><time>2010-04-06T10:34:38Z</time></trkpt>
<trkpt lat="53.0872569000" lon="-3.9074716000"><ele>381</ele><time>2010-04-06T10:34:44Z</time></trkpt>
<trkpt lat="53.0872535000" lon="-3.9074255000"><ele>381</ele><time>2010-04-06T10:34:50Z</time></trkpt>
<trkpt lat="53.0872171000" lon="-3.9074145000"><ele>382</ele><time>2010-04-06T10:34:57Z</time></trkpt>
<trkpt lat="53.0871892000" lon="-3.9074429000"><ele>382</ele><time>2010-04-06T10:35:04Z</time></trkpt>
<trkpt lat="53.0871578000" lon="-3.9075302000"><ele>381</ele><time>2010-04-06T10:35:11Z</time></trkpt>
<trkpt lat="53.0870986000" lon="-3.9076032000"><ele>383</ele><time>2010-04-06T10:35:19Z</time></trkpt>
<trkpt lat="53.0870344000" lon="-3.9076801000"><ele>384</ele><time>2010-04-06T10:35:27Z</time></trkpt>
<trkpt lat="53.0869380000" lon="-3.9078012000"><ele>384</ele><time>2010-04-06T10:35:38Z</time></trkpt>
<trkpt lat="53.0868489000" lon="-3.9079084000"><ele>383</ele><time>2010-04-06T10:35:48Z</time></trkpt>
<trkpt lat="53.0867568000" lon="-3.9080207000"><ele>383</ele><time>2010-04-06T10:35:58Z</time></trkpt>
<trkpt lat="53.0866516000" lon="-3.9081513000"><ele>382</ele><time>2010-04-06T10:36:09Z</time></trkpt>
<trkpt lat="53.0865221000" lon="-3.9082577000"><ele>380</ele><time>2010-04-06T10:36:21Z</time></trkpt>
<trkpt lat="53.0864791000" lon="-3.9082914000"><ele>380</ele><time>2010-04-06T10:36:25Z</time></trkpt>
<trkpt lat="53.0864079000" lon="-3.9083163000"><ele>380</ele><time>2010-04-06T10:36:32Z</time></trkpt>
<trkpt lat="53.0862922000" lon="-3.9083688000"><ele>380</ele><time>2010-04-06T10:36:42Z</time></trkpt>
<trkpt lat="53.0862056000" lon="-3.9083996000"><ele>380</ele><time>2010-04-06T10:36:50Z</time></trkpt>
<trkpt lat="53.0861200000" lon="-3.9084217000"><ele>380</ele><time>2010-04-06T10:36:58Z</time></trkpt>
<trkpt lat="53.0860200000" lon="-3.9084365000"><ele>381</ele><time>2010-04-06T10:37:07Z</time></trkpt>
<trkpt lat="53.0859697000" lon="-3.9084554000"><ele>381</ele><time>2010-04-06T10:37:12Z</time></trkpt>
<trkpt lat="53.0858901000" lon="-3.9085264000"><ele>381</ele><time>2010-04-06T10:37:22Z</time></trkpt>
<trkpt lat="53.0858237000" lon="-3.9086245000"><ele>381</ele><time>2010-04-06T10:37:31Z</time></trkpt>
<trkpt lat="53.0858077000" lon="-3.9086478000"><ele>381</ele><time>2010-04-06T10:37:33Z</time></trkpt>
<trkpt lat="53.0857134000" lon="-3.9087921000"><ele>380</ele><time>2010-04-06T10:37:45Z</time></trkpt>
<trkpt lat="53.0856467000" lon="-3.9089079000"><ele>379</ele><time>2010-04-06T10:37:55Z</time></trkpt>
<trkpt lat="53.0855839000" lon="-3.9090342000"><ele>378</ele><time>2010-04-06T10:38:04Z</time></trkpt>
<trkpt lat="53.0855373000" lon="-3.9091629000"><ele>377</ele><time>2010-04-06T10:38:13Z</time></trkpt>
<trkpt lat="53.0854839000" lon="-3.9093505000"><ele>378</ele><time>2010-04-06T10:38:25Z</time></trkpt>
<trkpt lat="53.0854446000" lon="-3.9094884000"><ele>379</ele><time>2010-04-06T10:38:34Z</time></trkpt>
<trkpt lat="53.0854125000" lon="-3.9096574000"><ele>380</ele><time>2010-04-06T10:38:45Z</time></trkpt>
<trkpt lat="53.0853902000" lon="-3.9098039000"><ele>380</ele><time>2010-04-06T10:38:54Z</time></trkpt>
<trkpt lat="53.0853675000" lon="-3.9099391000"><ele>381</ele><time>2010-04-06T10:39:02Z</time></trkpt>
<trkpt lat="53.0853405000" lon="-3.9101112000"><ele>381</ele><time>2010-04-06T10:39:12Z</time></trkpt>
<trkpt lat="53.0853021000" lon="-3.9102624000"><ele>383</ele><time>2010-04-06T10:39:21Z</time></trkpt>
<trkpt lat="53.0852895000" lon="-3.9103112000"><ele>384</ele><time>2010-04-06T10:39:28Z</time></trkpt>
<trkpt lat="53.0852665000" lon="-3.9103741000"><ele>385</ele><time>2010-04-06T10:39:39Z</time></trkpt>
<trkpt lat="53.0852315000" lon="-3.9104991000"><ele>386</ele><time>2010-04-06T10:39:47Z</time></trkpt>
<trkpt lat="53.0851833000" lon="-3.9106306000"><ele>387</ele><time>2010-04-06T10:39:56Z</time></trkpt>
<trkpt lat="53.0851587000" lon="-3.9106768000"><ele>388</ele><time>2010-04-06T10:40:03Z</time></trkpt>
<trkpt lat="53.0851474000" lon="-3.9106907000"><ele>387</ele><time>2010-04-06T10:40:10Z</time></trkpt>
<trkpt lat="53.0851467000" lon="-3.9106855000"><ele>388</ele><time>2010-04-06T10:40:18Z</time></trkpt>
<trkpt lat="53.0851458000" lon="-3.9106771000"><ele>387</ele><time>2010-04-06T10:40:55Z</time></trkpt>
<trkpt lat="53.0851232000" lon="-3.9107012000"><ele>387</ele><time>2010-04-06T10:41:06Z</time></trkpt>
<trkpt lat="53.0850975000" lon="-3.9107683000"><ele>387</ele><time>2010-04-06T10:41:12Z</time></trkpt>
<trkpt lat="53.0850534000" lon="-3.9108394000"><ele>388</ele><time>2010-04-06T10:41:19Z</time></trkpt>
<trkpt lat="53.0850177000" lon="-3.9109077000"><ele>388</ele><time>2010-04-06T10:41:25Z</time></trkpt>
<trkpt lat="53.0850143000" lon="-3.9109436000"><ele>388</ele><time>2010-04-06T10:41:31Z</time></trkpt>
<trkpt lat="53.0850253000" lon="-3.9109387000"><ele>388</ele><time>2010-04-06T10:41:42Z</time></trkpt>
<trkpt lat="53.0850477000" lon="-3.9109337000"><ele>390</ele><time>2010-04-06T10:43:52Z</time></trkpt>
<trkpt lat="53.0850453000" lon="-3.9109151000"><ele>391</ele><time>2010-04-06T10:43:58Z</time></trkpt>
<trkpt lat="53.0850420000" lon="-3.9108975000"><ele>393</ele><time>2010-04-06T10:44:06Z</time></trkpt>
<trkpt lat="53.0850389000" lon="-3.9108900000"><ele>395</ele><time>2010-04-06T10:44:11Z</time></trkpt>
<trkpt lat="53.0850285000" lon="-3.9108592000"><ele>397</ele><time>2010-04-06T10:44:17Z</time></trkpt>
<trkpt lat="53.0850405000" lon="-3.9108897000"><ele>397</ele><time>2010-04-06T10:44:52Z</time></trkpt>
<trkpt lat="53.0850114000" lon="-3.9108825000"><ele>398</ele><time>2010-04-06T10:45:13Z</time></trkpt>
<trkpt lat="53.0850105000" lon="-3.9109095000"><ele>394</ele><time>2010-04-06T10:46:05Z</time></trkpt>
<trkpt lat="53.0850312000" lon="-3.9109454000"><ele>389</ele><time>2010-04-06T10:46:30Z</time></trkpt>
<trkpt lat="53.0850426000" lon="-3.9109285000"><ele>391</ele><time>2010-04-06T10:48:08Z</time></trkpt>
<trkpt lat="53.0850606000" lon="-3.9109647000"><ele>395</ele><time>2010-04-06T10:49:02Z</time></trkpt>
<trkpt lat="53.0850429000" lon="-3.9109133000"><ele>402</ele><time>2010-04-06T10:51:07Z</time></trkpt>
<trkpt lat="53.0850421000" lon="-3.9109433000"><ele>392</ele><time>2010-04-06T10:51:35Z</time></trkpt>
<trkpt lat="53.0850976000" lon="-3.9109240000"><ele>394</ele><time>2010-04-06T10:52:13Z</time></trkpt>
<trkpt lat="53.0850649000" lon="-3.9109445000"><ele>391</ele><time>2010-04-06T10:52:27Z</time></trkpt>
<trkpt lat="53.0850260000" lon="-3.9109301000"><ele>390</ele><time>2010-04-06T10:52:33Z</time></trkpt>
<trkpt lat="53.0849826000" lon="-3.9109525000"><ele>389</ele><time>2010-04-06T10:52:41Z</time></trkpt>
<trkpt lat="53.0849386000" lon="-3.9109656000"><ele>390</ele><time>2010-04-06T10:52:48Z</time></trkpt>
<trkpt lat="53.0848971000" lon="-3.9109913000"><ele>392</ele><time>2010-04-06T10:52:55Z</time></trkpt>
<trkpt lat="53.0848668000" lon="-3.9110046000"><ele>392</ele><time>2010-04-06T10:53:01Z</time></trkpt>
<trkpt lat="53.0848235000" lon="-3.9110284000"><ele>392</ele><time>2010-04-06T10:53:08Z</time></trkpt>
<trkpt lat="53.0847681000" lon="-3.9110540000"><ele>392</ele><time>2010-04-06T10:53:16Z</time></trkpt>
<trkpt lat="53.0847458000" lon="-3.9110502000"><ele>393</ele><time>2010-04-06T10:53:22Z</time></trkpt>
<trkpt lat="53.0847115000" lon="-3.9110563000"><ele>393</ele><time>2010-04-06T10:53:29Z</time></trkpt>
<trkpt lat="53.0847132000" lon="-3.9110482000"><ele>393</ele><time>2010-04-06T10:53:34Z</time></trkpt>
<trkpt lat="53.0847090000" lon="-3.9110490000"><ele>393</ele><time>2010-04-06T10:53:44Z</time></trkpt>
<trkpt lat="53.0847019000" lon="-3.9110620000"><ele>393</ele><time>2010-04-06T10:53:51Z</time></trkpt>
<trkpt lat="53.0846693000" lon="-3.9111107000"><ele>395</ele><time>2010-04-06T10:54:15Z</time></trkpt>
<trkpt lat="53.0845929000" lon="-3.9112112000"><ele>396</ele><time>2010-04-06T10:54:26Z</time></trkpt>
<trkpt lat="53.0845345000" lon="-3.9112569000"><ele>397</ele><time>2010-04-06T10:54:33Z</time></trkpt>
<trkpt lat="53.0844454000" lon="-3.9112956000"><ele>398</ele><time>2010-04-06T10:54:42Z</time></trkpt>
<trkpt lat="53.0843423000" lon="-3.9113102000"><ele>400</ele><time>2010-04-06T10:54:52Z</time></trkpt>
<trkpt lat="53.0842609000" lon="-3.9113362000"><ele>401</ele><time>2010-04-06T10:55:01Z</time></trkpt>
<trkpt lat="53.0841693000" lon="-3.9114278000"><ele>401</ele><time>2010-04-06T10:55:12Z</time></trkpt>
<trkpt lat="53.0841356000" lon="-3.9114963000"><ele>402</ele><time>2010-04-06T10:55:18Z</time></trkpt>
<trkpt lat="53.0840900000" lon="-3.9115779000"><ele>402</ele><time>2010-04-06T10:55:26Z</time></trkpt>
<trkpt lat="53.0840448000" lon="-3.9116768000"><ele>402</ele><time>2010-04-06T10:55:35Z</time></trkpt>
<trkpt lat="53.0840133000" lon="-3.9117510000"><ele>402</ele><time>2010-04-06T10:55:42Z</time></trkpt>
<trkpt lat="53.0839838000" lon="-3.9117994000"><ele>403</ele><time>2010-04-06T10:55:49Z</time></trkpt>
<trkpt lat="53.0839542000" lon="-3.9118193000"><ele>404</ele><time>2010-04-06T10:55:56Z</time></trkpt>
<trkpt lat="53.0839365000" lon="-3.9118459000"><ele>404</ele><time>2010-04-06T10:56:02Z</time></trkpt>
<trkpt lat="53.0839010000" lon="-3.9118779000"><ele>404</ele><time>2010-04-06T10:56:09Z</time></trkpt>
<trkpt lat="53.0838591000" lon="-3.9119092000"><ele>405</ele><time>2010-04-06T10:56:17Z</time></trkpt>
<trkpt lat="53.0838028000" lon="-3.9119426000"><ele>406</ele><time>2010-04-06T10:56:26Z</time></trkpt>
<trkpt lat="53.0837626000" lon="-3.9119672000"><ele>406</ele><time>2010-04-06T10:56:34Z</time></trkpt>
<trkpt lat="53.0837678000" lon="-3.9120022000"><ele>407</ele><time>2010-04-06T10:56:39Z</time></trkpt>
<trkpt lat="53.0837481000" lon="-3.9120646000"><ele>408</ele><time>2010-04-06T10:56:45Z</time></trkpt>
<trkpt lat="53.0837156000" lon="-3.9121237000"><ele>409</ele><time>2010-04-06T10:56:52Z</time></trkpt>
<trkpt lat="53.0836875000" lon="-3.9121857000"><ele>409</ele><time>2010-04-06T10:56:58Z</time></trkpt>
<trkpt lat="53.0836446000" lon="-3.9122470000"><ele>410</ele><time>2010-04-06T10:57:05Z</time></trkpt>
<trkpt lat="53.0836191000" lon="-3.9122561000"><ele>410</ele><time>2010-04-06T10:57:12Z</time></trkpt>
<trkpt lat="53.0836122000" lon="-3.9122544000"><ele>411</ele><time>2010-04-06T10:57:26Z</time></trkpt>
<trkpt lat="53.0835802000" lon="-3.9123151000"><ele>412</ele><time>2010-04-06T10:57:32Z</time></trkpt>
<trkpt lat="53.0835616000" lon="-3.9123602000"><ele>412</ele><time>2010-04-06T10:57:37Z</time></trkpt>
<trkpt lat="53.0835243000" lon="-3.9124269000"><ele>412</ele><time>2010-04-06T10:57:45Z</time></trkpt>
<trkpt lat="53.0834989000" lon="-3.9124820000"><ele>413</ele><time>2010-04-06T10:57:51Z</time></trkpt>
<trkpt lat="53.0834699000" lon="-3.9125038000"><ele>413</ele><time>2010-04-06T10:57:56Z</time></trkpt>
<trkpt lat="53.0834392000" lon="-3.9125540000"><ele>414</ele><time>2010-04-06T10:58:03Z</time></trkpt>
<trkpt lat="53.0834356000" lon="-3.9125619000"><ele>415</ele><time>2010-04-06T10:58:09Z</time></trkpt>
<trkpt lat="53.0834190000" lon="-3.9125870000"><ele>415</ele><time>2010-04-06T10:58:16Z</time></trkpt>
<trkpt lat="53.0833924000" lon="-3.9126493000"><ele>416</ele><time>2010-04-06T10:58:22Z</time></trkpt>
<trkpt lat="53.0833574000" lon="-3.9127092000"><ele>416</ele><time>2010-04-06T10:58:29Z</time></trkpt>
<trkpt lat="53.0833190000" lon="-3.9127950000"><ele>417</ele><time>2010-04-06T10:58:37Z</time></trkpt>
<trkpt lat="53.0832691000" lon="-3.9128501000"><ele>417</ele><time>2010-04-06T10:58:45Z</time></trkpt>
<trkpt lat="53.0832498000" lon="-3.9128975000"><ele>418</ele><time>2010-04-06T10:58:50Z</time></trkpt>
<trkpt lat="53.0832281000" lon="-3.9129617000"><ele>419</ele><time>2010-04-06T10:58:56Z</time></trkpt>
<trkpt lat="53.0832005000" lon="-3.9130145000"><ele>420</ele><time>2010-04-06T10:59:02Z</time></trkpt>
<trkpt lat="53.0831784000" lon="-3.9130518000"><ele>421</ele><time>2010-04-06T10:59:07Z</time></trkpt>
<trkpt lat="53.0831441000" lon="-3.9131409000"><ele>421</ele><time>2010-04-06T10:59:15Z</time></trkpt>
<trkpt lat="53.0831285000" lon="-3.9132352000"><ele>422</ele><time>2010-04-06T10:59:23Z</time></trkpt>
<trkpt lat="53.0831263000" lon="-3.9132377000"><ele>423</ele><time>2010-04-06T10:59:32Z</time></trkpt>
<trkpt lat="53.0831240000" lon="-3.9132890000"><ele>424</ele><time>2010-04-06T10:59:37Z</time></trkpt>
<trkpt lat="53.0831239000" lon="-3.9133158000"><ele>424</ele><time>2010-04-06T10:59:43Z</time></trkpt>
<trkpt lat="53.0831401000" lon="-3.9133606000"><ele>424</ele><time>2010-04-06T10:59:50Z</time></trkpt>
<trkpt lat="53.0831558000" lon="-3.9133968000"><ele>425</ele><time>2010-04-06T10:59:56Z</time></trkpt>
<trkpt lat="53.0831493000" lon="-3.9134409000"><ele>425</ele><time>2010-04-06T11:00:08Z</time></trkpt>
<trkpt lat="53.0831540000" lon="-3.9134990000"><ele>425</ele><time>2010-04-06T11:00:13Z</time></trkpt>
<trkpt lat="53.0831773000" lon="-3.9135476000"><ele>426</ele><time>2010-04-06T11:00:19Z</time></trkpt>
<trkpt lat="53.0832066000" lon="-3.9136360000"><ele>428</ele><time>2010-04-06T11:00:27Z</time></trkpt>
<trkpt lat="53.0832151000" lon="-3.9137335000"><ele>429</ele><time>2010-04-06T11:00:35Z</time></trkpt>
<trkpt lat="53.0832130000" lon="-3.9137491000"><ele>430</ele><time>2010-04-06T11:00:43Z</time></trkpt>
<trkpt lat="53.0831993000" lon="-3.9137916000"><ele>431</ele><time>2010-04-06T11:00:50Z</time></trkpt>
<trkpt lat="53.0832040000" lon="-3.9138724000"><ele>432</ele><time>2010-04-06T11:00:58Z</time></trkpt>
<trkpt lat="53.0831980000" lon="-3.9139463000"><ele>433</ele><time>2010-04-06T11:01:05Z</time></trkpt>
<trkpt lat="53.0831954000" lon="-3.9139564000"><ele>433</ele><time>2010-04-06T11:01:12Z</time></trkpt>
<trkpt lat="53.0831866000" lon="-3.9139853000"><ele>436</ele><time>2010-04-06T11:01:25Z</time></trkpt>
<trkpt lat="53.0831859000" lon="-3.9139863000"><ele>437</ele><time>2010-04-06T11:02:00Z</time></trkpt>
<trkpt lat="53.0831909000" lon="-3.9140291000"><ele>438</ele><time>2010-04-06T11:02:06Z</time></trkpt>
<trkpt lat="53.0831985000" lon="-3.9140854000"><ele>437</ele><time>2010-04-06T11:02:11Z</time></trkpt>
<trkpt lat="53.0831897000" lon="-3.9141664000"><ele>437</ele><time>2010-04-06T11:02:18Z</time></trkpt>
<trkpt lat="53.0831752000" lon="-3.9142374000"><ele>437</ele><time>2010-04-06T11:02:25Z</time></trkpt>
<trkpt lat="53.0831712000" lon="-3.9142618000"><ele>437</ele><time>2010-04-06T11:02:33Z</time></trkpt>
<trkpt lat="53.0831320000" lon="-3.9143312000"><ele>438</ele><time>2010-04-06T11:03:05Z</time></trkpt>
<trkpt lat="53.0831136000" lon="-3.9143788000"><ele>439</ele><time>2010-04-06T11:03:10Z</time></trkpt>
<trkpt lat="53.0830794000" lon="-3.9144332000"><ele>440</ele><time>2010-04-06T11:03:17Z</time></trkpt>
<trkpt lat="53.0830512000" lon="-3.9144738000"><ele>441</ele><time>2010-04-06T11:03:23Z</time></trkpt>
<trkpt lat="53.0830214000" lon="-3.9145075000"><ele>443</ele><time>2010-04-06T11:03:29Z</time></trkpt>
<trkpt lat="53.0829906000" lon="-3.9145473000"><ele>444</ele><time>2010-04-06T11:03:36Z</time></trkpt>
<trkpt lat="53.0829717000" lon="-3.9145767000"><ele>445</ele><time>2010-04-06T11:03:41Z</time></trkpt>
<trkpt lat="53.0829523000" lon="-3.9145955000"><ele>445</ele><time>2010-04-06T11:03:48Z</time></trkpt>
<trkpt lat="53.0829208000" lon="-3.9145943000"><ele>446</ele><time>2010-04-06T11:03:55Z</time></trkpt>
<trkpt lat="53.0829030000" lon="-3.9146295000"><ele>446</ele><time>2010-04-06T11:04:00Z</time></trkpt>
<trkpt lat="53.0828815000" lon="-3.9146571000"><ele>447</ele><time>2010-04-06T11:04:05Z</time></trkpt>
<trkpt lat="53.0828297000" lon="-3.9146498000"><ele>447</ele><time>2010-04-06T11:04:13Z</time></trkpt>
<trkpt lat="53.0828106000" lon="-3.9146494000"><ele>447</ele><time>2010-04-06T11:04:19Z</time></trkpt>
<trkpt lat="53.0827409000" lon="-3.9146922000"><ele>447</ele><time>2010-04-06T11:04:28Z</time></trkpt>
<trkpt lat="53.0826707000" lon="-3.9147088000"><ele>447</ele><time>2010-04-06T11:04:37Z</time></trkpt>
<trkpt lat="53.0826318000" lon="-3.9146847000"><ele>447</ele><time>2010-04-06T11:04:45Z</time></trkpt>
<trkpt lat="53.0826612000" lon="-3.9147029000"><ele>447</ele><time>2010-04-06T11:05:03Z</time></trkpt>
<trkpt lat="53.0826495000" lon="-3.9147497000"><ele>447</ele><time>2010-04-06T11:05:11Z</time></trkpt>
<trkpt lat="53.0826074000" lon="-3.9148308000"><ele>447</ele><time>2010-04-06T11:05:19Z</time></trkpt>
<trkpt lat="53.0825954000" lon="-3.9148727000"><ele>447</ele><time>2010-04-06T11:05:28Z</time></trkpt>
<trkpt lat="53.0825795000" lon="-3.9149261000"><ele>446</ele><time>2010-04-06T11:05:43Z</time></trkpt>
<trkpt lat="53.0825468000" lon="-3.9150156000"><ele>446</ele><time>2010-04-06T11:05:50Z</time></trkpt>
<trkpt lat="53.0825343000" lon="-3.9150922000"><ele>446</ele><time>2010-04-06T11:05:56Z</time></trkpt>
<trkpt lat="53.0825463000" lon="-3.9151439000"><ele>446</ele><time>2010-04-06T11:06:01Z</time></trkpt>
<trkpt lat="53.0825135000" lon="-3.9152121000"><ele>446</ele><time>2010-04-06T11:06:08Z</time></trkpt>
<trkpt lat="53.0825097000" lon="-3.9152612000"><ele>448</ele><time>2010-04-06T11:06:15Z</time></trkpt>
<trkpt lat="53.0824712000" lon="-3.9153288000"><ele>448</ele><time>2010-04-06T11:06:23Z</time></trkpt>
<trkpt lat="53.0824687000" lon="-3.9153006000"><ele>448</ele><time>2010-04-06T11:06:29Z</time></trkpt>
<trkpt lat="53.0824638000" lon="-3.9152866000"><ele>447</ele><time>2010-04-06T11:06:36Z</time></trkpt>
<trkpt lat="53.0824557000" lon="-3.9152751000"><ele>447</ele><time>2010-04-06T11:06:43Z</time></trkpt>
<trkpt lat="53.0824483000" lon="-3.9152927000"><ele>448</ele><time>2010-04-06T11:07:21Z</time></trkpt>
<trkpt lat="53.0824376000" lon="-3.9153264000"><ele>447</ele><time>2010-04-06T11:07:27Z</time></trkpt>
<trkpt lat="53.0824179000" lon="-3.9153819000"><ele>447</ele><time>2010-04-06T11:07:39Z</time></trkpt>
<trkpt lat="53.0824144000" lon="-3.9153730000"><ele>448</ele><time>2010-04-06T11:07:44Z</time></trkpt>
<trkpt lat="53.0824183000" lon="-3.9153911000"><ele>446</ele><time>2010-04-06T11:08:11Z</time></trkpt>
<trkpt lat="53.0824556000" lon="-3.9153943000"><ele>448</ele><time>2010-04-06T11:08:19Z</time></trkpt>
<trkpt lat="53.0824750000" lon="-3.9153939000"><ele>450</ele><time>2010-04-06T11:08:34Z</time></trkpt>
<trkpt lat="53.0824879000" lon="-3.9154015000"><ele>450</ele><time>2010-04-06T11:08:40Z</time></trkpt>
<trkpt lat="53.0825140000" lon="-3.9154202000"><ele>450</ele><time>2010-04-06T11:08:45Z</time></trkpt>
<trkpt lat="53.0825127000" lon="-3.9154652000"><ele>451</ele><time>2010-04-06T11:08:52Z</time></trkpt>
<trkpt lat="53.0824710000" lon="-3.9155149000"><ele>452</ele><time>2010-04-06T11:09:00Z</time></trkpt>
<trkpt lat="53.0824385000" lon="-3.9155471000"><ele>453</ele><time>2010-04-06T11:09:06Z</time></trkpt>
<trkpt lat="53.0824071000" lon="-3.9155787000"><ele>454</ele><time>2010-04-06T11:09:12Z</time></trkpt>
<trkpt lat="53.0823657000" lon="-3.9156056000"><ele>455</ele><time>2010-04-06T11:09:19Z</time></trkpt>
<trkpt lat="53.0823307000" lon="-3.9156344000"><ele>456</ele><time>2010-04-06T11:09:25Z</time></trkpt>
<trkpt lat="53.0823045000" lon="-3.9156331000"><ele>456</ele><time>2010-04-06T11:09:30Z</time></trkpt>
<trkpt lat="53.0822685000" lon="-3.9156461000"><ele>457</ele><time>2010-04-06T11:09:37Z</time></trkpt>
<trkpt lat="53.0822431000" lon="-3.9156746000"><ele>458</ele><time>2010-04-06T11:09:42Z</time></trkpt>
<trkpt lat="53.0822199000" lon="-3.9157056000"><ele>459</ele><time>2010-04-06T11:09:48Z</time></trkpt>
<trkpt lat="53.0822024000" lon="-3.9157283000"><ele>459</ele><time>2010-04-06T11:09:53Z</time></trkpt>
<trkpt lat="53.0821833000" lon="-3.9157418000"><ele>460</ele><time>2010-04-06T11:09:58Z</time></trkpt>
<trkpt lat="53.0821677000" lon="-3.9157617000"><ele>461</ele><time>2010-04-06T11:10:04Z</time></trkpt>
<trkpt lat="53.0821396000" lon="-3.9157670000"><ele>462</ele><time>2010-04-06T11:10:10Z</time></trkpt>
<trkpt lat="53.0821074000" lon="-3.9157940000"><ele>463</ele><time>2010-04-06T11:10:17Z</time></trkpt>
<trkpt lat="53.0820476000" lon="-3.9158325000"><ele>464</ele><time>2010-04-06T11:10:25Z</time></trkpt>
<trkpt lat="53.0820205000" lon="-3.9158339000"><ele>464</ele><time>2010-04-06T11:10:33Z</time></trkpt>
<trkpt lat="53.0820170000" lon="-3.9158263000"><ele>465</ele><time>2010-04-06T11:10:40Z</time></trkpt>
<trkpt lat="53.0820116000" lon="-3.9158351000"><ele>466</ele><time>2010-04-06T11:10:52Z</time></trkpt>
<trkpt lat="53.0819722000" lon="-3.9158440000"><ele>465</ele><time>2010-04-06T11:10:58Z</time></trkpt>
<trkpt lat="53.0819258000" lon="-3.9158491000"><ele>466</ele><time>2010-04-06T11:11:05Z</time></trkpt>
<trkpt lat="53.0819232000" lon="-3.9158641000"><ele>466</ele><time>2010-04-06T11:11:22Z</time></trkpt>
<trkpt lat="53.0818810000" lon="-3.9158927000"><ele>466</ele><time>2010-04-06T11:11:34Z</time></trkpt>
<trkpt lat="53.0818647000" lon="-3.9159102000"><ele>467</ele><time>2010-04-06T11:11:39Z</time></trkpt>
<trkpt lat="53.0818402000" lon="-3.9159288000"><ele>467</ele><time>2010-04-06T11:11:45Z</time></trkpt>
<trkpt lat="53.0818055000" lon="-3.9159538000"><ele>468</ele><time>2010-04-06T11:11:52Z</time></trkpt>
<trkpt lat="53.0817791000" lon="-3.9159945000"><ele>469</ele><time>2010-04-06T11:11:59Z</time></trkpt>
<trkpt lat="53.0817448000" lon="-3.9160214000"><ele>470</ele><time>2010-04-06T11:12:06Z</time></trkpt>
<trkpt lat="53.0816993000" lon="-3.9160687000"><ele>471</ele><time>2010-04-06T11:12:14Z</time></trkpt>
<trkpt lat="53.0816937000" lon="-3.9160763000"><ele>472</ele><time>2010-04-06T11:12:21Z</time></trkpt>
<trkpt lat="53.0816588000" lon="-3.9161100000"><ele>473</ele><time>2010-04-06T11:12:29Z</time></trkpt>
<trkpt lat="53.0816176000" lon="-3.9161484000"><ele>474</ele><time>2010-04-06T11:12:36Z</time></trkpt>
<trkpt lat="53.0815860000" lon="-3.9161805000"><ele>474</ele><time>2010-04-06T11:12:43Z</time></trkpt>
<trkpt lat="53.0815772000" lon="-3.9161651000"><ele>475</ele><time>2010-04-06T11:13:05Z</time></trkpt>
<trkpt lat="53.0815785000" lon="-3.9161785000"><ele>476</ele><time>2010-04-06T11:13:26Z</time></trkpt>
<trkpt lat="53.0816020000" lon="-3.9162486000"><ele>476</ele><time>2010-04-06T11:13:32Z</time></trkpt>
<trkpt lat="53.0816493000" lon="-3.9163106000"><ele>476</ele><time>2010-04-06T11:13:39Z</time></trkpt>
<trkpt lat="53.0817021000" lon="-3.9163049000"><ele>477</ele><time>2010-04-06T11:13:47Z</time></trkpt>
<trkpt lat="53.0817046000" lon="-3.9163169000"><ele>477</ele><time>2010-04-06T11:13:56Z</time></trkpt>
<trkpt lat="53.0817145000" lon="-3.9163472000"><ele>476</ele><time>2010-04-06T11:14:02Z</time></trkpt>
<trkpt lat="53.0817248000" lon="-3.9163600000"><ele>477</ele><time>2010-04-06T11:14:18Z</time></trkpt>
<trkpt lat="53.0817269000" lon="-3.9163208000"><ele>475</ele><time>2010-04-06T11:15:01Z</time></trkpt>
<trkpt lat="53.0817098000" lon="-3.9162718000"><ele>475</ele><time>2010-04-06T11:15:07Z</time></trkpt>
<trkpt lat="53.0816774000" lon="-3.9162582000"><ele>478</ele><time>2010-04-06T11:15:59Z</time></trkpt>
<trkpt lat="53.0816606000" lon="-3.9162335000"><ele>478</ele><time>2010-04-06T11:16:05Z</time></trkpt>
<trkpt lat="53.0816593000" lon="-3.9162318000"><ele>477</ele><time>2010-04-06T11:16:16Z</time></trkpt>
<trkpt lat="53.0816317000" lon="-3.9161878000"><ele>476</ele><time>2010-04-06T11:16:33Z</time></trkpt>
<trkpt lat="53.0815897000" lon="-3.9161162000"><ele>475</ele><time>2010-04-06T11:16:40Z</time></trkpt>
<trkpt lat="53.0815443000" lon="-3.9160739000"><ele>477</ele><time>2010-04-06T11:16:47Z</time></trkpt>
<trkpt lat="53.0815088000" lon="-3.9160352000"><ele>478</ele><time>2010-04-06T11:16:54Z</time></trkpt>
<trkpt lat="53.0814840000" lon="-3.9160273000"><ele>479</ele><time>2010-04-06T11:17:00Z</time></trkpt>
<trkpt lat="53.0814301000" lon="-3.9160149000"><ele>481</ele><time>2010-04-06T11:17:06Z</time></trkpt>
<trkpt lat="53.0813796000" lon="-3.9159947000"><ele>483</ele><time>2010-04-06T11:17:14Z</time></trkpt>
<trkpt lat="53.0813104000" lon="-3.9159890000"><ele>484</ele><time>2010-04-06T11:17:23Z</time></trkpt>
<trkpt lat="53.0812504000" lon="-3.9159777000"><ele>485</ele><time>2010-04-06T11:17:31Z</time></trkpt>
<trkpt lat="53.0812300000" lon="-3.9159962000"><ele>485</ele><time>2010-04-06T11:17:39Z</time></trkpt>
<trkpt lat="53.0812247000" lon="-3.9159878000"><ele>484</ele><time>2010-04-06T11:18:13Z</time></trkpt>
<trkpt lat="53.0812278000" lon="-3.9159987000"><ele>485</ele><time>2010-04-06T11:18:25Z</time></trkpt>
<trkpt lat="53.0812058000" lon="-3.9160266000"><ele>484</ele><time>2010-04-06T11:18:31Z</time></trkpt>
<trkpt lat="53.0811797000" lon="-3.9160390000"><ele>485</ele><time>2010-04-06T11:18:37Z</time></trkpt>
<trkpt lat="53.0811482000" lon="-3.9160402000"><ele>486</ele><time>2010-04-06T11:18:42Z</time></trkpt>
<trkpt lat="53.0810970000" lon="-3.9160341000"><ele>488</ele><time>2010-04-06T11:18:50Z</time></trkpt>
<trkpt lat="53.0810725000" lon="-3.9160657000"><ele>489</ele><time>2010-04-06T11:18:56Z</time></trkpt>
<trkpt lat="53.0810358000" lon="-3.9160971000"><ele>490</ele><time>2010-04-06T11:19:05Z</time></trkpt>
<trkpt lat="53.0810170000" lon="-3.9161488000"><ele>491</ele><time>2010-04-06T11:19:11Z</time></trkpt>
<trkpt lat="53.0809940000" lon="-3.9161568000"><ele>492</ele><time>2010-04-06T11:19:16Z</time></trkpt>
<trkpt lat="53.0809481000" lon="-3.9162023000"><ele>494</ele><time>2010-04-06T11:19:25Z</time></trkpt>
<trkpt lat="53.0809119000" lon="-3.9162801000"><ele>496</ele><time>2010-04-06T11:19:33Z</time></trkpt>
<trkpt lat="53.0808794000" lon="-3.9163251000"><ele>497</ele><time>2010-04-06T11:19:40Z</time></trkpt>
<trkpt lat="53.0808773000" lon="-3.9163192000"><ele>497</ele><time>2010-04-06T11:19:47Z</time></trkpt>
<trkpt lat="53.0808795000" lon="-3.9163128000"><ele>496</ele><time>2010-04-06T11:20:01Z</time></trkpt>
<trkpt lat="53.0808631000" lon="-3.9163505000"><ele>497</ele><time>2010-04-06T11:20:10Z</time></trkpt>
<trkpt lat="53.0808440000" lon="-3.9163586000"><ele>498</ele><time>2010-04-06T11:20:19Z</time></trkpt>
<trkpt lat="53.0808426000" lon="-3.9163459000"><ele>498</ele><time>2010-04-06T11:20:25Z</time></trkpt>
<trkpt lat="53.0808549000" lon="-3.9163578000"><ele>497</ele><time>2010-04-06T11:20:32Z</time></trkpt>
<trkpt lat="53.0808263000" lon="-3.9163701000"><ele>498</ele><time>2010-04-06T11:20:45Z</time></trkpt>
<trkpt lat="53.0808144000" lon="-3.9164022000"><ele>498</ele><time>2010-04-06T11:20:51Z</time></trkpt>
<trkpt lat="53.0808291000" lon="-3.9163876000"><ele>497</ele><time>2010-04-06T11:20:56Z</time></trkpt>
<trkpt lat="53.0808445000" lon="-3.9163676000"><ele>496</ele><time>2010-04-06T11:21:01Z</time></trkpt>
<trkpt lat="53.0808256000" lon="-3.9163944000"><ele>495</ele><time>2010-04-06T11:21:08Z</time></trkpt>
<trkpt lat="53.0808285000" lon="-3.9164671000"><ele>495</ele><time>2010-04-06T11:21:14Z</time></trkpt>
<trkpt lat="53.0808296000" lon="-3.9165650000"><ele>495</ele><time>2010-04-06T11:21:21Z</time></trkpt>
<trkpt lat="53.0808420000" lon="-3.9166642000"><ele>496</ele><time>2010-04-06T11:21:28Z</time></trkpt>
<trkpt lat="53.0808550000" lon="-3.9167821000"><ele>497</ele><time>2010-04-06T11:21:36Z</time></trkpt>
<trkpt lat="53.0808680000" lon="-3.9168230000"><ele>498</ele><time>2010-04-06T11:21:43Z</time></trkpt>
<trkpt lat="53.0808956000" lon="-3.9168783000"><ele>498</ele><time>2010-04-06T11:21:50Z</time></trkpt>
<trkpt lat="53.0809177000" lon="-3.9169291000"><ele>499</ele><time>2010-04-06T11:21:55Z</time></trkpt>
<trkpt lat="53.0809053000" lon="-3.9169887000"><ele>500</ele><time>2010-04-06T11:22:01Z</time></trkpt>
<trkpt lat="53.0808789000" lon="-3.9170659000"><ele>501</ele><time>2010-04-06T11:22:09Z</time></trkpt>
<trkpt lat="53.0808679000" lon="-3.9170952000"><ele>501</ele><time>2010-04-06T11:22:16Z</time></trkpt>
<trkpt lat="53.0808452000" lon="-3.9171533000"><ele>501</ele><time>2010-04-06T11:22:22Z</time></trkpt>
<trkpt lat="53.0808065000" lon="-3.9172669000"><ele>502</ele><time>2010-04-06T11:22:30Z</time></trkpt>
<trkpt lat="53.0807772000" lon="-3.9173442000"><ele>503</ele><time>2010-04-06T11:22:37Z</time></trkpt>
<trkpt lat="53.0807310000" lon="-3.9173824000"><ele>504</ele><time>2010-04-06T11:22:45Z</time></trkpt>
<trkpt lat="53.0807141000" lon="-3.9174276000"><ele>504</ele><time>2010-04-06T11:22:50Z</time></trkpt>
<trkpt lat="53.0806793000" lon="-3.9174679000"><ele>505</ele><time>2010-04-06T11:22:57Z</time></trkpt>
<trkpt lat="53.0806638000" lon="-3.9174855000"><ele>505</ele><time>2010-04-06T11:23:02Z</time></trkpt>
<trkpt lat="53.0806459000" lon="-3.9175027000"><ele>505</ele><time>2010-04-06T11:23:09Z</time></trkpt>
<trkpt lat="53.0806091000" lon="-3.9175495000"><ele>506</ele><time>2010-04-06T11:23:16Z</time></trkpt>
<trkpt lat="53.0805979000" lon="-3.9175829000"><ele>507</ele><time>2010-04-06T11:23:21Z</time></trkpt>
<trkpt lat="53.0805769000" lon="-3.9176195000"><ele>507</ele><time>2010-04-06T11:23:27Z</time></trkpt>
<trkpt lat="53.0805639000" lon="-3.9176517000"><ele>508</ele><time>2010-04-06T11:23:33Z</time></trkpt>
<trkpt lat="53.0805473000" lon="-3.9176906000"><ele>508</ele><time>2010-04-06T11:23:38Z</time></trkpt>
<trkpt lat="53.0805235000" lon="-3.9177296000"><ele>509</ele><time>2010-04-06T11:23:44Z</time></trkpt>
<trkpt lat="53.0804938000" lon="-3.9177688000"><ele>509</ele><time>2010-04-06T11:23:50Z</time></trkpt>
<trkpt lat="53.0804819000" lon="-3.9178235000"><ele>509</ele><time>2010-04-06T11:23:57Z</time></trkpt>
<trkpt lat="53.0804500000" lon="-3.9178351000"><ele>510</ele><time>2010-04-06T11:24:04Z</time></trkpt>
<trkpt lat="53.0804347000" lon="-3.9178646000"><ele>510</ele><time>2010-04-06T11:24:11Z</time></trkpt>
<trkpt lat="53.0804237000" lon="-3.9178812000"><ele>512</ele><time>2010-04-06T11:24:17Z</time></trkpt>
<trkpt lat="53.0803783000" lon="-3.9179253000"><ele>511</ele><time>2010-04-06T11:24:24Z</time></trkpt>
<trkpt lat="53.0803286000" lon="-3.9179704000"><ele>508</ele><time>2010-04-06T11:24:30Z</time></trkpt>
<trkpt lat="53.0802877000" lon="-3.9180232000"><ele>507</ele><time>2010-04-06T11:24:37Z</time></trkpt>
<trkpt lat="53.0802744000" lon="-3.9180520000"><ele>507</ele><time>2010-04-06T11:24:41Z</time></trkpt>
<trkpt lat="53.0802514000" lon="-3.9180723000"><ele>509</ele><time>2010-04-06T11:24:47Z</time></trkpt>
<trkpt lat="53.0802425000" lon="-3.9181046000"><ele>510</ele><time>2010-04-06T11:24:51Z</time></trkpt>
<trkpt lat="53.0802205000" lon="-3.9181329000"><ele>511</ele><time>2010-04-06T11:24:56Z</time></trkpt>
<trkpt lat="53.0801920000" lon="-3.9181641000"><ele>513</ele><time>2010-04-06T11:25:05Z</time></trkpt>
<trkpt lat="53.0801603000" lon="-3.9181918000"><ele>513</ele><time>2010-04-06T11:25:11Z</time></trkpt>
<trkpt lat="53.0801407000" lon="-3.9182407000"><ele>516</ele><time>2010-04-06T11:25:21Z</time></trkpt>
<trkpt lat="53.0801162000" lon="-3.9182752000"><ele>516</ele><time>2010-04-06T11:25:31Z</time></trkpt>
<trkpt lat="53.0801400000" lon="-3.9182937000"><ele>520</ele><time>2010-04-06T11:25:51Z</time></trkpt>
<trkpt lat="53.0801100000" lon="-3.9183122000"><ele>518</ele><time>2010-04-06T11:25:56Z</time></trkpt>
<trkpt lat="53.0800816000" lon="-3.9183188000"><ele>519</ele><time>2010-04-06T11:26:00Z</time></trkpt>
<trkpt lat="53.0800923000" lon="-3.9183536000"><ele>523</ele><time>2010-04-06T11:26:09Z</time></trkpt>
<trkpt lat="53.0800908000" lon="-3.9183845000"><ele>524</ele><time>2010-04-06T11:26:13Z</time></trkpt>
<trkpt lat="53.0800392000" lon="-3.9184004000"><ele>525</ele><time>2010-04-06T11:26:19Z</time></trkpt>
<trkpt lat="53.0800020000" lon="-3.9184562000"><ele>528</ele><time>2010-04-06T11:26:26Z</time></trkpt>
<trkpt lat="53.0799791000" lon="-3.9184832000"><ele>530</ele><time>2010-04-06T11:26:31Z</time></trkpt>
<trkpt lat="53.0799527000" lon="-3.9185173000"><ele>531</ele><time>2010-04-06T11:26:38Z</time></trkpt>
<trkpt lat="53.0799274000" lon="-3.9185482000"><ele>533</ele><time>2010-04-06T11:26:45Z</time></trkpt>
<trkpt lat="53.0799196000" lon="-3.9185878000"><ele>533</ele><time>2010-04-06T11:26:50Z</time></trkpt>
<trkpt lat="53.0799091000" lon="-3.9186012000"><ele>534</ele><time>2010-04-06T11:26:56Z</time></trkpt>
<trkpt lat="53.0799111000" lon="-3.9186171000"><ele>534</ele><time>2010-04-06T11:27:03Z</time></trkpt>
<trkpt lat="53.0799256000" lon="-3.9186133000"><ele>533</ele><time>2010-04-06T11:27:10Z</time></trkpt>
<trkpt lat="53.0799460000" lon="-3.9185893000"><ele>533</ele><time>2010-04-06T11:27:45Z</time></trkpt>
<trkpt lat="53.0799542000" lon="-3.9186017000"><ele>531</ele><time>2010-04-06T11:27:53Z</time></trkpt>
<trkpt lat="53.0799511000" lon="-3.9185949000"><ele>533</ele><time>2010-04-06T11:28:00Z</time></trkpt>
<trkpt lat="53.0799335000" lon="-3.9185753000"><ele>536</ele><time>2010-04-06T11:28:05Z</time></trkpt>
<trkpt lat="53.0799025000" lon="-3.9185463000"><ele>540</ele><time>2010-04-06T11:28:14Z</time></trkpt>
<trkpt lat="53.0798763000" lon="-3.9185499000"><ele>538</ele><time>2010-04-06T11:28:22Z</time></trkpt>
<trkpt lat="53.0798575000" lon="-3.9185495000"><ele>537</ele><time>2010-04-06T11:28:34Z</time></trkpt>
<trkpt lat="53.0798900000" lon="-3.9185209000"><ele>536</ele><time>2010-04-06T11:29:05Z</time></trkpt>
<trkpt lat="53.0798894000" lon="-3.9185106000"><ele>534</ele><time>2010-04-06T11:29:14Z</time></trkpt>
<trkpt lat="53.0799113000" lon="-3.9185449000"><ele>532</ele><time>2010-04-06T11:29:24Z</time></trkpt>
<trkpt lat="53.0799089000" lon="-3.9185520000"><ele>531</ele><time>2010-04-06T11:29:55Z</time></trkpt>
<trkpt lat="53.0799475000" lon="-3.9185710000"><ele>540</ele><time>2010-04-06T11:31:45Z</time></trkpt>
<trkpt lat="53.0799448000" lon="-3.9185728000"><ele>540</ele><time>2010-04-06T11:31:55Z</time></trkpt>
<trkpt lat="53.0799538000" lon="-3.9185697000"><ele>542</ele><time>2010-04-06T11:32:08Z</time></trkpt>
<trkpt lat="53.0799542000" lon="-3.9185688000"><ele>542</ele><time>2010-04-06T11:32:17Z</time></trkpt>
<trkpt lat="53.0799628000" lon="-3.9185666000"><ele>543</ele><time>2010-04-06T11:32:26Z</time></trkpt>
<trkpt lat="53.0799475000" lon="-3.9185650000"><ele>540</ele><time>2010-04-06T11:32:38Z</time></trkpt>
<trkpt lat="53.0799522000" lon="-3.9185951000"><ele>537</ele><time>2010-04-06T11:33:51Z</time></trkpt>
<trkpt lat="53.0799703000" lon="-3.9185915000"><ele>536</ele><time>2010-04-06T11:33:59Z</time></trkpt>
<trkpt lat="53.0799629000" lon="-3.9185931000"><ele>539</ele><time>2010-04-06T11:34:08Z</time></trkpt>
<trkpt lat="53.0799563000" lon="-3.9186004000"><ele>537</ele><time>2010-04-06T11:34:19Z</time></trkpt>
<trkpt lat="53.0799260000" lon="-3.9186142000"><ele>531</ele><time>2010-04-06T11:34:28Z</time></trkpt>
<trkpt lat="53.0799465000" lon="-3.9186061000"><ele>531</ele><time>2010-04-06T11:34:41Z</time></trkpt>
<trkpt lat="53.0799426000" lon="-3.9185972000"><ele>532</ele><time>2010-04-06T11:35:22Z</time></trkpt>
<trkpt lat="53.0799409000" lon="-3.9185796000"><ele>534</ele><time>2010-04-06T11:35:32Z</time></trkpt>
<trkpt lat="53.0799299000" lon="-3.9185688000"><ele>535</ele><time>2010-04-06T11:35:38Z</time></trkpt>
<trkpt lat="53.0799226000" lon="-3.9185649000"><ele>537</ele><time>2010-04-06T11:35:59Z</time></trkpt>
<trkpt lat="53.0799093000" lon="-3.9185491000"><ele>538</ele><time>2010-04-06T11:36:43Z</time></trkpt>
<trkpt lat="53.0799001000" lon="-3.9185811000"><ele>539</ele><time>2010-04-06T11:36:51Z</time></trkpt>
<trkpt lat="53.0798746000" lon="-3.9186329000"><ele>539</ele><time>2010-04-06T11:36:58Z</time></trkpt>
<trkpt lat="53.0798476000" lon="-3.9186713000"><ele>540</ele><time>2010-04-06T11:37:03Z</time></trkpt>
<trkpt lat="53.0798209000" lon="-3.9187142000"><ele>540</ele><time>2010-04-06T11:37:08Z</time></trkpt>
<trkpt lat="53.0797948000" lon="-3.9187537000"><ele>541</ele><time>2010-04-06T11:37:13Z</time></trkpt>
<trkpt lat="53.0797663000" lon="-3.9187697000"><ele>542</ele><time>2010-04-06T11:37:18Z</time></trkpt>
<trkpt lat="53.0797592000" lon="-3.9188075000"><ele>543</ele><time>2010-04-06T11:37:24Z</time></trkpt>
<trkpt lat="53.0797289000" lon="-3.9188348000"><ele>544</ele><time>2010-04-06T11:37:31Z</time></trkpt>
<trkpt lat="53.0797108000" lon="-3.9188096000"><ele>546</ele><time>2010-04-06T11:37:38Z</time></trkpt>
<trkpt lat="53.0796764000" lon="-3.9187687000"><ele>546</ele><time>2010-04-06T11:37:45Z</time></trkpt>
<trkpt lat="53.0796404000" lon="-3.9187762000"><ele>546</ele><time>2010-04-06T11:37:51Z</time></trkpt>
<trkpt lat="53.0796034000" lon="-3.9187764000"><ele>548</ele><time>2010-04-06T11:37:57Z</time></trkpt>
<trkpt lat="53.0795771000" lon="-3.9188072000"><ele>549</ele><time>2010-04-06T11:38:03Z</time></trkpt>
<trkpt lat="53.0795543000" lon="-3.9188370000"><ele>549</ele><time>2010-04-06T11:38:10Z</time></trkpt>
<trkpt lat="53.0795334000" lon="-3.9188639000"><ele>550</ele><time>2010-04-06T11:38:16Z</time></trkpt>
<trkpt lat="53.0794958000" lon="-3.9188722000"><ele>550</ele><time>2010-04-06T11:38:22Z</time></trkpt>
<trkpt lat="53.0794472000" lon="-3.9189259000"><ele>551</ele><time>2010-04-06T11:38:30Z</time></trkpt>
<trkpt lat="53.0794247000" lon="-3.9189700000"><ele>552</ele><time>2010-04-06T11:38:36Z</time></trkpt>
<trkpt lat="53.0793997000" lon="-3.9190144000"><ele>553</ele><time>2010-04-06T11:38:42Z</time></trkpt>
<trkpt lat="53.0793870000" lon="-3.9190334000"><ele>554</ele><time>2010-04-06T11:38:46Z</time></trkpt>
<trkpt lat="53.0793824000" lon="-3.9190649000"><ele>556</ele><time>2010-04-06T11:38:53Z</time></trkpt>
<trkpt lat="53.0793721000" lon="-3.9191052000"><ele>556</ele><time>2010-04-06T11:38:58Z</time></trkpt>
<trkpt lat="53.0793389000" lon="-3.9191443000"><ele>557</ele><time>2010-04-06T11:39:07Z</time></trkpt>
<trkpt lat="53.0793134000" lon="-3.9191732000"><ele>558</ele><time>2010-04-06T11:39:12Z</time></trkpt>
<trkpt lat="53.0792952000" lon="-3.9192165000"><ele>560</ele><time>2010-04-06T11:39:18Z</time></trkpt>
<trkpt lat="53.0792534000" lon="-3.9192312000"><ele>561</ele><time>2010-04-06T11:39:26Z</time></trkpt>
<trkpt lat="53.0792155000" lon="-3.9192647000"><ele>561</ele><time>2010-04-06T11:39:34Z</time></trkpt>
<trkpt lat="53.0791766000" lon="-3.9192603000"><ele>561</ele><time>2010-04-06T11:39:41Z</time></trkpt>
<trkpt lat="53.0791456000" lon="-3.9192724000"><ele>561</ele><time>2010-04-06T11:39:46Z</time></trkpt>
<trkpt lat="53.0790893000" lon="-3.9193056000"><ele>562</ele><time>2010-04-06T11:39:54Z</time></trkpt>
<trkpt lat="53.0790715000" lon="-3.9193483000"><ele>562</ele><time>2010-04-06T11:39:59Z</time></trkpt>
<trkpt lat="53.0790285000" lon="-3.9193638000"><ele>563</ele><time>2010-04-06T11:40:06Z</time></trkpt>
<trkpt lat="53.0789834000" lon="-3.9194011000"><ele>563</ele><time>2010-04-06T11:40:14Z</time></trkpt>
<trkpt lat="53.0789382000" lon="-3.9194482000"><ele>564</ele><time>2010-04-06T11:40:21Z</time></trkpt>
<trkpt lat="53.0789213000" lon="-3.9194615000"><ele>565</ele><time>2010-04-06T11:40:28Z</time></trkpt>
<trkpt lat="53.0789255000" lon="-3.9194395000"><ele>565</ele><time>2010-04-06T11:40:39Z</time></trkpt>
<trkpt lat="53.0789014000" lon="-3.9194074000"><ele>565</ele><time>2010-04-06T11:41:05Z</time></trkpt>
<trkpt lat="53.0788434000" lon="-3.9194472000"><ele>566</ele><time>2010-04-06T11:41:13Z</time></trkpt>
<trkpt lat="53.0788009000" lon="-3.9195031000"><ele>567</ele><time>2010-04-06T11:41:20Z</time></trkpt>
<trkpt lat="53.0787533000" lon="-3.9195532000"><ele>568</ele><time>2010-04-06T11:41:27Z</time></trkpt>
<trkpt lat="53.0787295000" lon="-3.9195933000"><ele>568</ele><time>2010-04-06T11:41:32Z</time></trkpt>
<trkpt lat="53.0786898000" lon="-3.9195791000"><ele>567</ele><time>2010-04-06T11:41:38Z</time></trkpt>
<trkpt lat="53.0786476000" lon="-3.9195513000"><ele>567</ele><time>2010-04-06T11:41:43Z</time></trkpt>
<trkpt lat="53.0785811000" lon="-3.9195667000"><ele>568</ele><time>2010-04-06T11:41:51Z</time></trkpt>
<trkpt lat="53.0785130000" lon="-3.9195667000"><ele>568</ele><time>2010-04-06T11:41:59Z</time></trkpt>
<trkpt lat="53.0784488000" lon="-3.9195708000"><ele>568</ele><time>2010-04-06T11:42:07Z</time></trkpt>
<trkpt lat="53.0783893000" lon="-3.9195959000"><ele>568</ele><time>2010-04-06T11:42:14Z</time></trkpt>
<trkpt lat="53.0783318000" lon="-3.9195846000"><ele>569</ele><time>2010-04-06T11:42:21Z</time></trkpt>
<trkpt lat="53.0782956000" lon="-3.9196265000"><ele>570</ele><time>2010-04-06T11:42:28Z</time></trkpt>
<trkpt lat="53.0782511000" lon="-3.9196609000"><ele>570</ele><time>2010-04-06T11:42:36Z</time></trkpt>
<trkpt lat="53.0782028000" lon="-3.9197175000"><ele>571</ele><time>2010-04-06T11:42:43Z</time></trkpt>
<trkpt lat="53.0781713000" lon="-3.9197563000"><ele>571</ele><time>2010-04-06T11:42:50Z</time></trkpt>
<trkpt lat="53.0781308000" lon="-3.9198430000"><ele>572</ele><time>2010-04-06T11:42:59Z</time></trkpt>
<trkpt lat="53.0780945000" lon="-3.9199192000"><ele>573</ele><time>2010-04-06T11:43:06Z</time></trkpt>
<trkpt lat="53.0780433000" lon="-3.9199994000"><ele>574</ele><time>2010-04-06T11:43:14Z</time></trkpt>
<trkpt lat="53.0779877000" lon="-3.9200932000"><ele>574</ele><time>2010-04-06T11:43:22Z</time></trkpt>
<trkpt lat="53.0779429000" lon="-3.9201564000"><ele>575</ele><time>2010-04-06T11:43:29Z</time></trkpt>
<trkpt lat="53.0778862000" lon="-3.9202444000"><ele>574</ele><time>2010-04-06T11:43:37Z</time></trkpt>
<trkpt lat="53.0778305000" lon="-3.9203116000"><ele>574</ele><time>2010-04-06T11:43:45Z</time></trkpt>
<trkpt lat="53.0777838000" lon="-3.9203600000"><ele>574</ele><time>2010-04-06T11:43:52Z</time></trkpt>
<trkpt lat="53.0777247000" lon="-3.9204170000"><ele>574</ele><time>2010-04-06T11:43:59Z</time></trkpt>
<trkpt lat="53.0776801000" lon="-3.9204417000"><ele>575</ele><time>2010-04-06T11:44:05Z</time></trkpt>
<trkpt lat="53.0776376000" lon="-3.9204024000"><ele>574</ele><time>2010-04-06T11:44:12Z</time></trkpt>
<trkpt lat="53.0776235000" lon="-3.9204177000"><ele>574</ele><time>2010-04-06T11:44:18Z</time></trkpt>
<trkpt lat="53.0775877000" lon="-3.9204464000"><ele>575</ele><time>2010-04-06T11:44:25Z</time></trkpt>
<trkpt lat="53.0775709000" lon="-3.9204215000"><ele>573</ele><time>2010-04-06T11:44:32Z</time></trkpt>
<trkpt lat="53.0775371000" lon="-3.9204283000"><ele>573</ele><time>2010-04-06T11:44:47Z</time></trkpt>
<trkpt lat="53.0775071000" lon="-3.9204823000"><ele>572</ele><time>2010-04-06T11:44:53Z</time></trkpt>
<trkpt lat="53.0774617000" lon="-3.9205364000"><ele>571</ele><time>2010-04-06T11:44:59Z</time></trkpt>
<trkpt lat="53.0774209000" lon="-3.9205864000"><ele>571</ele><time>2010-04-06T11:45:06Z</time></trkpt>
<trkpt lat="53.0773839000" lon="-3.9205925000"><ele>571</ele><time>2010-04-06T11:45:12Z</time></trkpt>
<trkpt lat="53.0773270000" lon="-3.9205873000"><ele>570</ele><time>2010-04-06T11:45:20Z</time></trkpt>
<trkpt lat="53.0772449000" lon="-3.9205965000"><ele>569</ele><time>2010-04-06T11:45:29Z</time></trkpt>
<trkpt lat="53.0772373000" lon="-3.9206106000"><ele>569</ele><time>2010-04-06T11:45:30Z</time></trkpt>
<trkpt lat="53.0771761000" lon="-3.9207110000"><ele>568</ele><time>2010-04-06T11:45:38Z</time></trkpt>
<trkpt lat="53.0771119000" lon="-3.9207894000"><ele>568</ele><time>2010-04-06T11:45:46Z</time></trkpt>
<trkpt lat="53.0770979000" lon="-3.9208075000"><ele>567</ele><time>2010-04-06T11:45:48Z</time></trkpt>
<trkpt lat="53.0770635000" lon="-3.9208202000"><ele>567</ele><time>2010-04-06T11:45:51Z</time></trkpt>
<trkpt lat="53.0770338000" lon="-3.9208893000"><ele>566</ele><time>2010-04-06T11:45:58Z</time></trkpt>
<trkpt lat="53.0769864000" lon="-3.9209841000"><ele>565</ele><time>2010-04-06T11:46:05Z</time></trkpt>
<trkpt lat="53.0769377000" lon="-3.9210723000"><ele>564</ele><time>2010-04-06T11:46:13Z</time></trkpt>
<trkpt lat="53.0769219000" lon="-3.9211326000"><ele>563</ele><time>2010-04-06T11:46:20Z</time></trkpt>
<trkpt lat="53.0768980000" lon="-3.9212150000"><ele>563</ele><time>2010-04-06T11:46:26Z</time></trkpt>
<trkpt lat="53.0769151000" lon="-3.9212803000"><ele>562</ele><time>2010-04-06T11:46:32Z</time></trkpt>
<trkpt lat="53.0769020000" lon="-3.9213158000"><ele>561</ele><time>2010-04-06T11:46:36Z</time></trkpt>
<trkpt lat="53.0768910000" lon="-3.9213374000"><ele>559</ele><time>2010-04-06T11:46:41Z</time></trkpt>
<trkpt lat="53.0768627000" lon="-3.9213814000"><ele>560</ele><time>2010-04-06T11:46:46Z</time></trkpt>
<trkpt lat="53.0768235000" lon="-3.9214343000"><ele>560</ele><time>2010-04-06T11:46:53Z</time></trkpt>
<trkpt lat="53.0768021000" lon="-3.9214783000"><ele>559</ele><time>2010-04-06T11:46:58Z</time></trkpt>
<trkpt lat="53.0767696000" lon="-3.9215155000"><ele>559</ele><time>2010-04-06T11:47:04Z</time></trkpt>
<trkpt lat="53.0767517000" lon="-3.9215800000"><ele>558</ele><time>2010-04-06T11:47:10Z</time></trkpt>
<trkpt lat="53.0767467000" lon="-3.9216447000"><ele>557</ele><time>2010-04-06T11:47:16Z</time></trkpt>
<trkpt lat="53.0767279000" lon="-3.9216814000"><ele>557</ele><time>2010-04-06T11:47:21Z</time></trkpt>
<trkpt lat="53.0767232000" lon="-3.9217005000"><ele>557</ele><time>2010-04-06T11:47:27Z</time></trkpt>
<trkpt lat="53.0767186000" lon="-3.9216926000"><ele>559</ele><time>2010-04-06T11:47:46Z</time></trkpt>
<trkpt lat="53.0767175000" lon="-3.9217239000"><ele>560</ele><time>2010-04-06T11:47:54Z</time></trkpt>
<trkpt lat="53.0767146000" lon="-3.9217571000"><ele>561</ele><time>2010-04-06T11:48:06Z</time></trkpt>
<trkpt lat="53.0767095000" lon="-3.9218511000"><ele>559</ele><time>2010-04-06T11:48:14Z</time></trkpt>
<trkpt lat="53.0766688000" lon="-3.9218756000"><ele>560</ele><time>2010-04-06T11:48:28Z</time></trkpt>
<trkpt lat="53.0766426000" lon="-3.9219393000"><ele>558</ele><time>2010-04-06T11:48:33Z</time></trkpt>
<trkpt lat="53.0766168000" lon="-3.9220170000"><ele>557</ele><time>2010-04-06T11:48:40Z</time></trkpt>
<trkpt lat="53.0766165000" lon="-3.9220626000"><ele>557</ele><time>2010-04-06T11:48:45Z</time></trkpt>
<trkpt lat="53.0766089000" lon="-3.9220843000"><ele>556</ele><time>2010-04-06T11:48:51Z</time></trkpt>
<trkpt lat="53.0766058000" lon="-3.9221289000"><ele>555</ele><time>2010-04-06T11:48:56Z</time></trkpt>
<trkpt lat="53.0766033000" lon="-3.9222021000"><ele>554</ele><time>2010-04-06T11:49:04Z</time></trkpt>
<trkpt lat="53.0765943000" lon="-3.9222558000"><ele>553</ele><time>2010-04-06T11:49:11Z</time></trkpt>
<trkpt lat="53.0765891000" lon="-3.9223211000"><ele>552</ele><time>2010-04-06T11:49:18Z</time></trkpt>
<trkpt lat="53.0765856000" lon="-3.9223513000"><ele>551</ele><time>2010-04-06T11:49:22Z</time></trkpt>
<trkpt lat="53.0765809000" lon="-3.9224206000"><ele>551</ele><time>2010-04-06T11:49:28Z</time></trkpt>
<trkpt lat="53.0765289000" lon="-3.9224719000"><ele>551</ele><time>2010-04-06T11:49:36Z</time></trkpt>
<trkpt lat="53.0764912000" lon="-3.9225604000"><ele>551</ele><time>2010-04-06T11:49:42Z</time></trkpt>
<trkpt lat="53.0764313000" lon="-3.9226961000"><ele>552</ele><time>2010-04-06T11:49:51Z</time></trkpt>
<trkpt lat="53.0764116000" lon="-3.9227669000"><ele>550</ele><time>2010-04-06T11:49:58Z</time></trkpt>
<trkpt lat="53.0763733000" lon="-3.9228080000"><ele>550</ele><time>2010-04-06T11:50:06Z</time></trkpt>
<trkpt lat="53.0763887000" lon="-3.9228558000"><ele>552</ele><time>2010-04-06T11:50:29Z</time></trkpt>
<trkpt lat="53.0763929000" lon="-3.9228951000"><ele>551</ele><time>2010-04-06T11:50:35Z</time></trkpt>
<trkpt lat="53.0764013000" lon="-3.9229778000"><ele>551</ele><time>2010-04-06T11:50:42Z</time></trkpt>
<trkpt lat="53.0763805000" lon="-3.9230304000"><ele>552</ele><time>2010-04-06T11:50:48Z</time></trkpt>
<trkpt lat="53.0763759000" lon="-3.9230790000"><ele>555</ele><time>2010-04-06T11:50:54Z</time></trkpt>
<trkpt lat="53.0763582000" lon="-3.9231624000"><ele>550</ele><time>2010-04-06T11:51:02Z</time></trkpt>
<trkpt lat="53.0763577000" lon="-3.9232411000"><ele>547</ele><time>2010-04-06T11:51:08Z</time></trkpt>
<trkpt lat="53.0763210000" lon="-3.9232885000"><ele>549</ele><time>2010-04-06T11:51:15Z</time></trkpt>
<trkpt lat="53.0762562000" lon="-3.9233353000"><ele>555</ele><time>2010-04-06T11:51:22Z</time></trkpt>
<trkpt lat="53.0762464000" lon="-3.9233432000"><ele>556</ele><time>2010-04-06T11:51:23Z</time></trkpt>
<trkpt lat="53.0762111000" lon="-3.9233711000"><ele>558</ele><time>2010-04-06T11:51:27Z</time></trkpt>
<trkpt lat="53.0761681000" lon="-3.9233711000"><ele>563</ele><time>2010-04-06T11:51:32Z</time></trkpt>
<trkpt lat="53.0761748000" lon="-3.9234263000"><ele>559</ele><time>2010-04-06T11:51:38Z</time></trkpt>
<trkpt lat="53.0761474000" lon="-3.9234597000"><ele>559</ele><time>2010-04-06T11:51:44Z</time></trkpt>
<trkpt lat="53.0761448000" lon="-3.9235271000"><ele>557</ele><time>2010-04-06T11:51:49Z</time></trkpt>
<trkpt lat="53.0761088000" lon="-3.9235644000"><ele>555</ele><time>2010-04-06T11:51:55Z</time></trkpt>
<trkpt lat="53.0760769000" lon="-3.9236032000"><ele>553</ele><time>2010-04-06T11:52:00Z</time></trkpt>
<trkpt lat="53.0760548000" lon="-3.9236857000"><ele>552</ele><time>2010-04-06T11:52:06Z</time></trkpt>
<trkpt lat="53.0760255000" lon="-3.9237573000"><ele>552</ele><time>2010-04-06T11:52:12Z</time></trkpt>
<trkpt lat="53.0759847000" lon="-3.9238299000"><ele>556</ele><time>2010-04-06T11:52:20Z</time></trkpt>
<trkpt lat="53.0759904000" lon="-3.9238332000"><ele>556</ele><time>2010-04-06T11:52:24Z</time></trkpt>
<trkpt lat="53.0759750000" lon="-3.9238072000"><ele>560</ele><time>2010-04-06T11:52:27Z</time></trkpt>
<trkpt lat="53.0759691000" lon="-3.9237840000"><ele>564</ele><time>2010-04-06T11:52:35Z</time></trkpt>
<trkpt lat="53.0759773000" lon="-3.9238662000"><ele>560</ele><time>2010-04-06T11:52:39Z</time></trkpt>
<trkpt lat="53.0759273000" lon="-3.9239347000"><ele>558</ele><time>2010-04-06T11:52:46Z</time></trkpt>
<trkpt lat="53.0759085000" lon="-3.9239803000"><ele>556</ele><time>2010-04-06T11:52:51Z</time></trkpt>
<trkpt lat="53.0758708000" lon="-3.9240107000"><ele>557</ele><time>2010-04-06T11:52:58Z</time></trkpt>
<trkpt lat="53.0758609000" lon="-3.9240833000"><ele>557</ele><time>2010-04-06T11:53:06Z</time></trkpt>
<trkpt lat="53.0758184000" lon="-3.9241720000"><ele>555</ele><time>2010-04-06T11:53:14Z</time></trkpt>
<trkpt lat="53.0757844000" lon="-3.9242502000"><ele>557</ele><time>2010-04-06T11:53:21Z</time></trkpt>
<trkpt lat="53.0757811000" lon="-3.9242816000"><ele>558</ele><time>2010-04-06T11:53:26Z</time></trkpt>
<trkpt lat="53.0757697000" lon="-3.9242552000"><ele>559</ele><time>2010-04-06T11:53:34Z</time></trkpt>
<trkpt lat="53.0757809000" lon="-3.9242580000"><ele>561</ele><time>2010-04-06T11:54:16Z</time></trkpt>
<trkpt lat="53.0757504000" lon="-3.9242900000"><ele>560</ele><time>2010-04-06T11:54:29Z</time></trkpt>
<trkpt lat="53.0756953000" lon="-3.9243144000"><ele>559</ele><time>2010-04-06T11:54:37Z</time></trkpt>
<trkpt lat="53.0756509000" lon="-3.9242873000"><ele>559</ele><time>2010-04-06T11:54:45Z</time></trkpt>
<trkpt lat="53.0755976000" lon="-3.9242923000"><ele>558</ele><time>2010-04-06T11:54:54Z</time></trkpt>
<trkpt lat="53.0755509000" lon="-3.9242953000"><ele>556</ele><time>2010-04-06T11:55:02Z</time></trkpt>
<trkpt lat="53.0755028000" lon="-3.9242987000"><ele>555</ele><time>2010-04-06T11:55:08Z</time></trkpt>
<trkpt lat="53.0754451000" lon="-3.9243077000"><ele>555</ele><time>2010-04-06T11:55:15Z</time></trkpt>
<trkpt lat="53.0753988000" lon="-3.9242911000"><ele>554</ele><time>2010-04-06T11:55:21Z</time></trkpt>
<trkpt lat="53.0753487000" lon="-3.9242264000"><ele>553</ele><time>2010-04-06T11:55:29Z</time></trkpt>
<trkpt lat="53.0753113000" lon="-3.9241886000"><ele>552</ele><time>2010-04-06T11:55:34Z</time></trkpt>
<trkpt lat="53.0752828000" lon="-3.9241274000"><ele>552</ele><time>2010-04-06T11:55:40Z</time></trkpt>
<trkpt lat="53.0752621000" lon="-3.9240707000"><ele>551</ele><time>2010-04-06T11:55:46Z</time></trkpt>
<trkpt lat="53.0752538000" lon="-3.9240394000"><ele>549</ele><time>2010-04-06T11:55:51Z</time></trkpt>
<trkpt lat="53.0752212000" lon="-3.9239657000"><ele>548</ele><time>2010-04-06T11:55:58Z</time></trkpt>
<trkpt lat="53.0751800000" lon="-3.9239290000"><ele>547</ele><time>2010-04-06T11:56:05Z</time></trkpt>
<trkpt lat="53.0751516000" lon="-3.9238833000"><ele>547</ele><time>2010-04-06T11:56:11Z</time></trkpt>
<trkpt lat="53.0751409000" lon="-3.9238799000"><ele>546</ele><time>2010-04-06T11:56:16Z</time></trkpt>
<trkpt lat="53.0751124000" lon="-3.9239030000"><ele>546</ele><time>2010-04-06T11:56:21Z</time></trkpt>
<trkpt lat="53.0750983000" lon="-3.9238931000"><ele>546</ele><time>2010-04-06T11:56:30Z</time></trkpt>
<trkpt lat="53.0750677000" lon="-3.9238710000"><ele>546</ele><time>2010-04-06T11:56:35Z</time></trkpt>
<trkpt lat="53.0750181000" lon="-3.9238487000"><ele>547</ele><time>2010-04-06T11:56:42Z</time></trkpt>
<trkpt lat="53.0749777000" lon="-3.9238009000"><ele>549</ele><time>2010-04-06T11:56:48Z</time></trkpt>
<trkpt lat="53.0749461000" lon="-3.9236979000"><ele>550</ele><time>2010-04-06T11:56:55Z</time></trkpt>
<trkpt lat="53.0748869000" lon="-3.9236639000"><ele>550</ele><time>2010-04-06T11:57:03Z</time></trkpt>
<trkpt lat="53.0748351000" lon="-3.9236830000"><ele>549</ele><time>2010-04-06T11:57:10Z</time></trkpt>
<trkpt lat="53.0747758000" lon="-3.9236714000"><ele>549</ele><time>2010-04-06T11:57:18Z</time></trkpt>
<trkpt lat="53.0747398000" lon="-3.9236576000"><ele>549</ele><time>2010-04-06T11:57:24Z</time></trkpt>
<trkpt lat="53.0746859000" lon="-3.9236551000"><ele>549</ele><time>2010-04-06T11:57:31Z</time></trkpt>
<trkpt lat="53.0746726000" lon="-3.9236515000"><ele>549</ele><time>2010-04-06T11:57:40Z</time></trkpt>
<trkpt lat="53.0746804000" lon="-3.9235706000"><ele>549</ele><time>2010-04-06T11:57:47Z</time></trkpt>
<trkpt lat="53.0746478000" lon="-3.9235315000"><ele>550</ele><time>2010-04-06T11:57:53Z</time></trkpt>
<trkpt lat="53.0746149000" lon="-3.9235326000"><ele>549</ele><time>2010-04-06T11:57:58Z</time></trkpt>
<trkpt lat="53.0745901000" lon="-3.9235281000"><ele>549</ele><time>2010-04-06T11:58:03Z</time></trkpt>
<trkpt lat="53.0745452000" lon="-3.9234939000"><ele>549</ele><time>2010-04-06T11:58:09Z</time></trkpt>
<trkpt lat="53.0745094000" lon="-3.9234888000"><ele>548</ele><time>2010-04-06T11:58:16Z</time></trkpt>
<trkpt lat="53.0744875000" lon="-3.9235220000"><ele>548</ele><time>2010-04-06T11:58:23Z</time></trkpt>
<trkpt lat="53.0744545000" lon="-3.9235652000"><ele>549</ele><time>2010-04-06T11:58:29Z</time></trkpt>
<trkpt lat="53.0744100000" lon="-3.9235733000"><ele>549</ele><time>2010-04-06T11:58:36Z</time></trkpt>
<trkpt lat="53.0743835000" lon="-3.9235451000"><ele>549</ele><time>2010-04-06T11:58:41Z</time></trkpt>
<trkpt lat="53.0743201000" lon="-3.9235745000"><ele>549</ele><time>2010-04-06T11:58:48Z</time></trkpt>
<trkpt lat="53.0742756000" lon="-3.9235957000"><ele>550</ele><time>2010-04-06T11:58:54Z</time></trkpt>
<trkpt lat="53.0742276000" lon="-3.9235901000"><ele>551</ele><time>2010-04-06T11:58:58Z</time></trkpt>
<trkpt lat="53.0742086000" lon="-3.9235942000"><ele>551</ele><time>2010-04-06T11:59:02Z</time></trkpt>
<trkpt lat="53.0741744000" lon="-3.9235768000"><ele>551</ele><time>2010-04-06T11:59:05Z</time></trkpt>
<trkpt lat="53.0741406000" lon="-3.9235654000"><ele>551</ele><time>2010-04-06T11:59:11Z</time></trkpt>
<trkpt lat="53.0740697000" lon="-3.9235498000"><ele>552</ele><time>2010-04-06T11:59:18Z</time></trkpt>
<trkpt lat="53.0740154000" lon="-3.9235533000"><ele>553</ele><time>2010-04-06T11:59:24Z</time></trkpt>
<trkpt lat="53.0739830000" lon="-3.9235132000"><ele>554</ele><time>2010-04-06T11:59:30Z</time></trkpt>
<trkpt lat="53.0739681000" lon="-3.9234841000"><ele>555</ele><time>2010-04-06T11:59:35Z</time></trkpt>
<trkpt lat="53.0739386000" lon="-3.9234662000"><ele>556</ele><time>2010-04-06T11:59:41Z</time></trkpt>
<trkpt lat="53.0739317000" lon="-3.9234721000"><ele>557</ele><time>2010-04-06T11:59:47Z</time></trkpt>
<trkpt lat="53.0739296000" lon="-3.9234808000"><ele>557</ele><time>2010-04-06T11:59:52Z</time></trkpt>
<trkpt lat="53.0739280000" lon="-3.9234789000"><ele>558</ele><time>2010-04-06T12:00:03Z</time></trkpt>
<trkpt lat="53.0739263000" lon="-3.9234847000"><ele>559</ele><time>2010-04-06T12:00:24Z</time></trkpt>
<trkpt lat="53.0739277000" lon="-3.9234913000"><ele>559</ele><time>2010-04-06T12:00:30Z</time></trkpt>
<trkpt lat="53.0739126000" lon="-3.9235534000"><ele>560</ele><time>2010-04-06T12:00:37Z</time></trkpt>
<trkpt lat="53.0738681000" lon="-3.9235684000"><ele>560</ele><time>2010-04-06T12:00:43Z</time></trkpt>
<trkpt lat="53.0738201000" lon="-3.9236032000"><ele>559</ele><time>2010-04-06T12:00:50Z</time></trkpt>
<trkpt lat="53.0737960000" lon="-3.9236172000"><ele>558</ele><time>2010-04-06T12:00:57Z</time></trkpt>
<trkpt lat="53.0737707000" lon="-3.9236291000"><ele>557</ele><time>2010-04-06T12:01:03Z</time></trkpt>
<trkpt lat="53.0737506000" lon="-3.9236866000"><ele>556</ele><time>2010-04-06T12:01:09Z</time></trkpt>
<trkpt lat="53.0736898000" lon="-3.9237331000"><ele>556</ele><time>2010-04-06T12:01:17Z</time></trkpt>
<trkpt lat="53.0736467000" lon="-3.9237752000"><ele>556</ele><time>2010-04-06T12:01:23Z</time></trkpt>
<trkpt lat="53.0736117000" lon="-3.9238524000"><ele>556</ele><time>2010-04-06T12:01:30Z</time></trkpt>
<trkpt lat="53.0735807000" lon="-3.9239045000"><ele>556</ele><time>2010-04-06T12:01:37Z</time></trkpt>
<trkpt lat="53.0735232000" lon="-3.9238990000"><ele>557</ele><time>2010-04-06T12:01:44Z</time></trkpt>
<trkpt lat="53.0734444000" lon="-3.9238387000"><ele>556</ele><time>2010-04-06T12:01:53Z</time></trkpt>
<trkpt lat="53.0734119000" lon="-3.9237740000"><ele>555</ele><time>2010-04-06T12:01:59Z</time></trkpt>
<trkpt lat="53.0734005000" lon="-3.9237042000"><ele>554</ele><time>2010-04-06T12:02:05Z</time></trkpt>
<trkpt lat="53.0734062000" lon="-3.9237016000"><ele>555</ele><time>2010-04-06T12:02:20Z</time></trkpt>
<trkpt lat="53.0734019000" lon="-3.9237078000"><ele>556</ele><time>2010-04-06T12:02:57Z</time></trkpt>
<trkpt lat="53.0733846000" lon="-3.9237056000"><ele>557</ele><time>2010-04-06T12:03:03Z</time></trkpt>
<trkpt lat="53.0733507000" lon="-3.9236545000"><ele>556</ele><time>2010-04-06T12:03:09Z</time></trkpt>
<trkpt lat="53.0733440000" lon="-3.9236281000"><ele>555</ele><time>2010-04-06T12:03:15Z</time></trkpt>
<trkpt lat="53.0733222000" lon="-3.9236056000"><ele>556</ele><time>2010-04-06T12:03:44Z</time></trkpt>
<trkpt lat="53.0732877000" lon="-3.9235405000"><ele>556</ele><time>2010-04-06T12:03:51Z</time></trkpt>
<trkpt lat="53.0732833000" lon="-3.9235327000"><ele>555</ele><time>2010-04-06T12:03:59Z</time></trkpt>
<trkpt lat="53.0732641000" lon="-3.9235098000"><ele>556</ele><time>2010-04-06T12:04:05Z</time></trkpt>
<trkpt lat="53.0732417000" lon="-3.9234881000"><ele>557</ele><time>2010-04-06T12:04:12Z</time></trkpt>
<trkpt lat="53.0732134000" lon="-3.9234572000"><ele>558</ele><time>2010-04-06T12:04:18Z</time></trkpt>
<trkpt lat="53.0731836000" lon="-3.9234250000"><ele>558</ele><time>2010-04-06T12:04:24Z</time></trkpt>
<trkpt lat="53.0731667000" lon="-3.9234078000"><ele>559</ele><time>2010-04-06T12:04:29Z</time></trkpt>
<trkpt lat="53.0731330000" lon="-3.9233590000"><ele>559</ele><time>2010-04-06T12:04:35Z</time></trkpt>
<trkpt lat="53.0731128000" lon="-3.9233515000"><ele>560</ele><time>2010-04-06T12:04:40Z</time></trkpt>
<trkpt lat="53.0730714000" lon="-3.9233113000"><ele>560</ele><time>2010-04-06T12:04:47Z</time></trkpt>
<trkpt lat="53.0730609000" lon="-3.9232665000"><ele>560</ele><time>2010-04-06T12:04:52Z</time></trkpt>
<trkpt lat="53.0730496000" lon="-3.9232353000"><ele>560</ele><time>2010-04-06T12:04:58Z</time></trkpt>
<trkpt lat="53.0730316000" lon="-3.9231924000"><ele>560</ele><time>2010-04-06T12:05:04Z</time></trkpt>
<trkpt lat="53.0730051000" lon="-3.9231556000"><ele>560</ele><time>2010-04-06T12:05:12Z</time></trkpt>
<trkpt lat="53.0729829000" lon="-3.9231650000"><ele>561</ele><time>2010-04-06T12:05:19Z</time></trkpt>
<trkpt lat="53.0729469000" lon="-3.9231692000"><ele>562</ele><time>2010-04-06T12:05:35Z</time></trkpt>
<trkpt lat="53.0729243000" lon="-3.9231628000"><ele>562</ele><time>2010-04-06T12:05:40Z</time></trkpt>
<trkpt lat="53.0729057000" lon="-3.9231679000"><ele>564</ele><time>2010-04-06T12:05:47Z</time></trkpt>
<trkpt lat="53.0728803000" lon="-3.9231716000"><ele>564</ele><time>2010-04-06T12:05:53Z</time></trkpt>
<trkpt lat="53.0728552000" lon="-3.9231738000"><ele>566</ele><time>2010-04-06T12:06:00Z</time></trkpt>
<trkpt lat="53.0728450000" lon="-3.9231642000"><ele>566</ele><time>2010-04-06T12:06:09Z</time></trkpt>
<trkpt lat="53.0728404000" lon="-3.9231536000"><ele>566</ele><time>2010-04-06T12:06:15Z</time></trkpt>
<trkpt lat="53.0728430000" lon="-3.9231485000"><ele>568</ele><time>2010-04-06T12:06:35Z</time></trkpt>
<trkpt lat="53.0728729000" lon="-3.9231259000"><ele>562</ele><time>2010-04-06T12:07:45Z</time></trkpt>
<trkpt lat="53.0728314000" lon="-3.9231542000"><ele>560</ele><time>2010-04-06T12:08:20Z</time></trkpt>
<trkpt lat="53.0728571000" lon="-3.9231274000"><ele>566</ele><time>2010-04-06T12:09:11Z</time></trkpt>
<trkpt lat="53.0728571000" lon="-3.9231277000"><ele>565</ele><time>2010-04-06T12:09:25Z</time></trkpt>
<trkpt lat="53.0728335000" lon="-3.9231456000"><ele>566</ele><time>2010-04-06T12:09:38Z</time></trkpt>
<trkpt lat="53.0728293000" lon="-3.9231519000"><ele>571</ele><time>2010-04-06T12:13:43Z</time></trkpt>
<trkpt lat="53.0728356000" lon="-3.9231441000"><ele>571</ele><time>2010-04-06T12:13:54Z</time></trkpt>
<trkpt lat="53.0728393000" lon="-3.9231394000"><ele>569</ele><time>2010-04-06T12:14:06Z</time></trkpt>
<trkpt lat="53.0728284000" lon="-3.9231407000"><ele>567</ele><time>2010-04-06T12:14:14Z</time></trkpt>
<trkpt lat="53.0728259000" lon="-3.9231334000"><ele>568</ele><time>2010-04-06T12:14:31Z</time></trkpt>
<trkpt lat="53.0728164000" lon="-3.9231174000"><ele>571</ele><time>2010-04-06T12:15:12Z</time></trkpt>
<trkpt lat="53.0728067000" lon="-3.9231131000"><ele>572</ele><time>2010-04-06T12:15:17Z</time></trkpt>
<trkpt lat="53.0727829000" lon="-3.9231352000"><ele>573</ele><time>2010-04-06T12:15:24Z</time></trkpt>
<trkpt lat="53.0727632000" lon="-3.9231399000"><ele>572</ele><time>2010-04-06T12:15:30Z</time></trkpt>
<trkpt lat="53.0727477000" lon="-3.9231849000"><ele>571</ele><time>2010-04-06T12:15:41Z</time></trkpt>
<trkpt lat="53.0727321000" lon="-3.9232039000"><ele>570</ele><time>2010-04-06T12:15:47Z</time></trkpt>
<trkpt lat="53.0727238000" lon="-3.9232316000"><ele>571</ele><time>2010-04-06T12:15:56Z</time></trkpt>
<trkpt lat="53.0727128000" lon="-3.9232592000"><ele>571</ele><time>2010-04-06T12:16:08Z</time></trkpt>
<trkpt lat="53.0727061000" lon="-3.9232872000"><ele>571</ele><time>2010-04-06T12:16:13Z</time></trkpt>
<trkpt lat="53.0727009000" lon="-3.9233152000"><ele>572</ele><time>2010-04-06T12:16:22Z</time></trkpt>
<trkpt lat="53.0726840000" lon="-3.9233369000"><ele>574</ele><time>2010-04-06T12:16:28Z</time></trkpt>
<trkpt lat="53.0726865000" lon="-3.9233637000"><ele>574</ele><time>2010-04-06T12:16:34Z</time></trkpt>
<trkpt lat="53.0726885000" lon="-3.9233865000"><ele>576</ele><time>2010-04-06T12:16:42Z</time></trkpt>
<trkpt lat="53.0726793000" lon="-3.9234113000"><ele>578</ele><time>2010-04-06T12:16:48Z</time></trkpt>
<trkpt lat="53.0726617000" lon="-3.9234495000"><ele>578</ele><time>2010-04-06T12:16:55Z</time></trkpt>
<trkpt lat="53.0726540000" lon="-3.9234856000"><ele>578</ele><time>2010-04-06T12:17:01Z</time></trkpt>
<trkpt lat="53.0726492000" lon="-3.9235155000"><ele>580</ele><time>2010-04-06T12:17:07Z</time></trkpt>
<trkpt lat="53.0726265000" lon="-3.9235452000"><ele>580</ele><time>2010-04-06T12:17:13Z</time></trkpt>
<trkpt lat="53.0726185000" lon="-3.9235514000"><ele>581</ele><time>2010-04-06T12:17:19Z</time></trkpt>
<trkpt lat="53.0726072000" lon="-3.9235876000"><ele>582</ele><time>2010-04-06T12:17:26Z</time></trkpt>
<trkpt lat="53.0725912000" lon="-3.9236104000"><ele>584</ele><time>2010-04-06T12:17:32Z</time></trkpt>
<trkpt lat="53.0725687000" lon="-3.9236488000"><ele>585</ele><time>2010-04-06T12:17:39Z</time></trkpt>
<trkpt lat="53.0725612000" lon="-3.9236664000"><ele>586</ele><time>2010-04-06T12:17:46Z</time></trkpt>
<trkpt lat="53.0725606000" lon="-3.9236639000"><ele>587</ele><time>2010-04-06T12:17:54Z</time></trkpt>
<trkpt lat="53.0725587000" lon="-3.9236756000"><ele>589</ele><time>2010-04-06T12:18:07Z</time></trkpt>
<trkpt lat="53.0725341000" lon="-3.9236934000"><ele>589</ele><time>2010-04-06T12:18:12Z</time></trkpt>
<trkpt lat="53.0725290000" lon="-3.9237192000"><ele>590</ele><time>2010-04-06T12:18:19Z</time></trkpt>
<trkpt lat="53.0724866000" lon="-3.9237833000"><ele>590</ele><time>2010-04-06T12:18:25Z</time></trkpt>
<trkpt lat="53.0724554000" lon="-3.9238501000"><ele>590</ele><time>2010-04-06T12:18:32Z</time></trkpt>
<trkpt lat="53.0724581000" lon="-3.9238808000"><ele>590</ele><time>2010-04-06T12:18:42Z</time></trkpt>
<trkpt lat="53.0724510000" lon="-3.9239580000"><ele>589</ele><time>2010-04-06T12:18:49Z</time></trkpt>
<trkpt lat="53.0724586000" lon="-3.9240004000"><ele>589</ele><time>2010-04-06T12:18:55Z</time></trkpt>
<trkpt lat="53.0724701000" lon="-3.9240342000"><ele>591</ele><time>2010-04-06T12:19:02Z</time></trkpt>
<trkpt lat="53.0724708000" lon="-3.9240797000"><ele>590</ele><time>2010-04-06T12:19:08Z</time></trkpt>
<trkpt lat="53.0724731000" lon="-3.9241077000"><ele>589</ele><time>2010-04-06T12:19:14Z</time></trkpt>
<trkpt lat="53.0724735000" lon="-3.9241502000"><ele>588</ele><time>2010-04-06T12:19:19Z</time></trkpt>
<trkpt lat="53.0725078000" lon="-3.9241336000"><ele>590</ele><time>2010-04-06T12:19:27Z</time></trkpt>
<trkpt lat="53.0725384000" lon="-3.9241236000"><ele>589</ele><time>2010-04-06T12:19:33Z</time></trkpt>
<trkpt lat="53.0725704000" lon="-3.9241324000"><ele>587</ele><time>2010-04-06T12:19:37Z</time></trkpt>
<trkpt lat="53.0726064000" lon="-3.9241347000"><ele>588</ele><time>2010-04-06T12:19:44Z</time></trkpt>
<trkpt lat="53.0726319000" lon="-3.9241538000"><ele>589</ele><time>2010-04-06T12:19:51Z</time></trkpt>
<trkpt lat="53.0726535000" lon="-3.9241647000"><ele>590</ele><time>2010-04-06T12:19:56Z</time></trkpt>
<trkpt lat="53.0726881000" lon="-3.9241935000"><ele>592</ele><time>2010-04-06T12:20:03Z</time></trkpt>
<trkpt lat="53.0726993000" lon="-3.9242515000"><ele>592</ele><time>2010-04-06T12:20:10Z</time></trkpt>
<trkpt lat="53.0726917000" lon="-3.9242524000"><ele>593</ele><time>2010-04-06T12:20:18Z</time></trkpt>
<trkpt lat="53.0726886000" lon="-3.9242470000"><ele>594</ele><time>2010-04-06T12:20:26Z</time></trkpt>
<trkpt lat="53.0726854000" lon="-3.9242386000"><ele>597</ele><time>2010-04-06T12:20:50Z</time></trkpt>
<trkpt lat="53.0727125000" lon="-3.9242679000"><ele>597</ele><time>2010-04-06T12:21:04Z</time></trkpt>
<trkpt lat="53.0727034000" lon="-3.9243011000"><ele>598</ele><time>2010-04-06T12:21:11Z</time></trkpt>
<trkpt lat="53.0727057000" lon="-3.9243372000"><ele>599</ele><time>2010-04-06T12:21:32Z</time></trkpt>
<trkpt lat="53.0726960000" lon="-3.9243533000"><ele>600</ele><time>2010-04-06T12:21:38Z</time></trkpt>
<trkpt lat="53.0727010000" lon="-3.9243670000"><ele>600</ele><time>2010-04-06T12:21:56Z</time></trkpt>
<trkpt lat="53.0727048000" lon="-3.9243652000"><ele>600</ele><time>2010-04-06T12:22:14Z</time></trkpt>
<trkpt lat="53.0727001000" lon="-3.9243496000"><ele>602</ele><time>2010-04-06T12:22:27Z</time></trkpt>
<trkpt lat="53.0726995000" lon="-3.9243525000"><ele>602</ele><time>2010-04-06T12:22:40Z</time></trkpt>
<trkpt lat="53.0726841000" lon="-3.9243526000"><ele>602</ele><time>2010-04-06T12:22:45Z</time></trkpt>
<trkpt lat="53.0726837000" lon="-3.9243572000"><ele>603</ele><time>2010-04-06T12:22:52Z</time></trkpt>
<trkpt lat="53.0726802000" lon="-3.9243962000"><ele>604</ele><time>2010-04-06T12:22:58Z</time></trkpt>
<trkpt lat="53.0726771000" lon="-3.9244490000"><ele>604</ele><time>2010-04-06T12:23:05Z</time></trkpt>
<trkpt lat="53.0726605000" lon="-3.9244857000"><ele>605</ele><time>2010-04-06T12:23:12Z</time></trkpt>
<trkpt lat="53.0726255000" lon="-3.9244420000"><ele>606</ele><time>2010-04-06T12:23:19Z</time></trkpt>
<trkpt lat="53.0726056000" lon="-3.9244090000"><ele>606</ele><time>2010-04-06T12:23:24Z</time></trkpt>
<trkpt lat="53.0725870000" lon="-3.9244180000"><ele>607</ele><time>2010-04-06T12:23:31Z</time></trkpt>
<trkpt lat="53.0725713000" lon="-3.9244050000"><ele>609</ele><time>2010-04-06T12:23:37Z</time></trkpt>
<trkpt lat="53.0725581000" lon="-3.9244085000"><ele>609</ele><time>2010-04-06T12:23:44Z</time></trkpt>
<trkpt lat="53.0725432000" lon="-3.9244267000"><ele>610</ele><time>2010-04-06T12:23:52Z</time></trkpt>
<trkpt lat="53.0725348000" lon="-3.9244372000"><ele>611</ele><time>2010-04-06T12:23:59Z</time></trkpt>
<trkpt lat="53.0725274000" lon="-3.9244626000"><ele>613</ele><time>2010-04-06T12:24:06Z</time></trkpt>
<trkpt lat="53.0725252000" lon="-3.9245248000"><ele>614</ele><time>2010-04-06T12:24:14Z</time></trkpt>
<trkpt lat="53.0725387000" lon="-3.9245667000"><ele>613</ele><time>2010-04-06T12:24:21Z</time></trkpt>
<trkpt lat="53.0725493000" lon="-3.9246293000"><ele>613</ele><time>2010-04-06T12:24:27Z</time></trkpt>
<trkpt lat="53.0725311000" lon="-3.9246713000"><ele>614</ele><time>2010-04-06T12:24:32Z</time></trkpt>
<trkpt lat="53.0725185000" lon="-3.9246851000"><ele>614</ele><time>2010-04-06T12:24:37Z</time></trkpt>
<trkpt lat="53.0725022000" lon="-3.9246993000"><ele>614</ele><time>2010-04-06T12:24:43Z</time></trkpt>
<trkpt lat="53.0725042000" lon="-3.9247307000"><ele>613</ele><time>2010-04-06T12:24:50Z</time></trkpt>
<trkpt lat="53.0725077000" lon="-3.9247967000"><ele>614</ele><time>2010-04-06T12:24:56Z</time></trkpt>
<trkpt lat="53.0724950000" lon="-3.9248097000"><ele>614</ele><time>2010-04-06T12:25:03Z</time></trkpt>
<trkpt lat="53.0724939000" lon="-3.9248397000"><ele>614</ele><time>2010-04-06T12:25:12Z</time></trkpt>
<trkpt lat="53.0724919000" lon="-3.9248755000"><ele>615</ele><time>2010-04-06T12:25:20Z</time></trkpt>
<trkpt lat="53.0724921000" lon="-3.9248698000"><ele>618</ele><time>2010-04-06T12:25:32Z</time></trkpt>
<trkpt lat="53.0725000000" lon="-3.9249030000"><ele>617</ele><time>2010-04-06T12:25:41Z</time></trkpt>
<trkpt lat="53.0724908000" lon="-3.9249504000"><ele>618</ele><time>2010-04-06T12:25:48Z</time></trkpt>
<trkpt lat="53.0725012000" lon="-3.9249361000"><ele>618</ele><time>2010-04-06T12:26:10Z</time></trkpt>
<trkpt lat="53.0725222000" lon="-3.9249512000"><ele>619</ele><time>2010-04-06T12:26:16Z</time></trkpt>
<trkpt lat="53.0725142000" lon="-3.9250033000"><ele>618</ele><time>2010-04-06T12:26:23Z</time></trkpt>
<trkpt lat="53.0725084000" lon="-3.9250254000"><ele>619</ele><time>2010-04-06T12:26:30Z</time></trkpt>
<trkpt lat="53.0725138000" lon="-3.9250458000"><ele>619</ele><time>2010-04-06T12:26:36Z</time></trkpt>
<trkpt lat="53.0725099000" lon="-3.9250609000"><ele>620</ele><time>2010-04-06T12:26:43Z</time></trkpt>
<trkpt lat="53.0725047000" lon="-3.9250752000"><ele>621</ele><time>2010-04-06T12:26:50Z</time></trkpt>
<trkpt lat="53.0725030000" lon="-3.9251125000"><ele>620</ele><time>2010-04-06T12:27:03Z</time></trkpt>
<trkpt lat="53.0724857000" lon="-3.9251308000"><ele>622</ele><time>2010-04-06T12:27:09Z</time></trkpt>
<trkpt lat="53.0724990000" lon="-3.9251423000"><ele>625</ele><time>2010-04-06T12:27:22Z</time></trkpt>
<trkpt lat="53.0724959000" lon="-3.9251599000"><ele>623</ele><time>2010-04-06T12:27:31Z</time></trkpt>
<trkpt lat="53.0725031000" lon="-3.9251638000"><ele>622</ele><time>2010-04-06T12:27:37Z</time></trkpt>
<trkpt lat="53.0725030000" lon="-3.9251816000"><ele>622</ele><time>2010-04-06T12:27:42Z</time></trkpt>
<trkpt lat="53.0725107000" lon="-3.9251971000"><ele>622</ele><time>2010-04-06T12:27:46Z</time></trkpt>
<trkpt lat="53.0725149000" lon="-3.9252062000"><ele>625</ele><time>2010-04-06T12:27:56Z</time></trkpt>
<trkpt lat="53.0725249000" lon="-3.9252132000"><ele>626</ele><time>2010-04-06T12:28:03Z</time></trkpt>
<trkpt lat="53.0725374000" lon="-3.9252330000"><ele>627</ele><time>2010-04-06T12:28:09Z</time></trkpt>
<trkpt lat="53.0725392000" lon="-3.9252504000"><ele>627</ele><time>2010-04-06T12:28:17Z</time></trkpt>
<trkpt lat="53.0725566000" lon="-3.9252622000"><ele>628</ele><time>2010-04-06T12:28:22Z</time></trkpt>
<trkpt lat="53.0725632000" lon="-3.9252425000"><ele>628</ele><time>2010-04-06T12:28:31Z</time></trkpt>
<trkpt lat="53.0725783000" lon="-3.9252577000"><ele>627</ele><time>2010-04-06T12:28:36Z</time></trkpt>
<trkpt lat="53.0725865000" lon="-3.9252950000"><ele>627</ele><time>2010-04-06T12:28:43Z</time></trkpt>
<trkpt lat="53.0725835000" lon="-3.9253365000"><ele>627</ele><time>2010-04-06T12:28:47Z</time></trkpt>
<trkpt lat="53.0725768000" lon="-3.9253716000"><ele>627</ele><time>2010-04-06T12:28:55Z</time></trkpt>
<trkpt lat="53.0725741000" lon="-3.9254189000"><ele>628</ele><time>2010-04-06T12:29:01Z</time></trkpt>
<trkpt lat="53.0725420000" lon="-3.9254074000"><ele>630</ele><time>2010-04-06T12:29:07Z</time></trkpt>
<trkpt lat="53.0725233000" lon="-3.9254189000"><ele>632</ele><time>2010-04-06T12:29:13Z</time></trkpt>
<trkpt lat="53.0725050000" lon="-3.9254136000"><ele>633</ele><time>2010-04-06T12:29:18Z</time></trkpt>
<trkpt lat="53.0725140000" lon="-3.9254507000"><ele>632</ele><time>2010-04-06T12:29:24Z</time></trkpt>
<trkpt lat="53.0725167000" lon="-3.9254503000"><ele>636</ele><time>2010-04-06T12:29:40Z</time></trkpt>
<trkpt lat="53.0725077000" lon="-3.9254569000"><ele>637</ele><time>2010-04-06T12:29:56Z</time></trkpt>
<trkpt lat="53.0724943000" lon="-3.9255115000"><ele>638</ele><time>2010-04-06T12:30:02Z</time></trkpt>
<trkpt lat="53.0724993000" lon="-3.9255597000"><ele>638</ele><time>2010-04-06T12:30:08Z</time></trkpt>
<trkpt lat="53.0724916000" lon="-3.9255906000"><ele>638</ele><time>2010-04-06T12:30:15Z</time></trkpt>
<trkpt lat="53.0724779000" lon="-3.9256017000"><ele>639</ele><time>2010-04-06T12:30:21Z</time></trkpt>
<trkpt lat="53.0724774000" lon="-3.9256286000"><ele>639</ele><time>2010-04-06T12:30:28Z</time></trkpt>
<trkpt lat="53.0724793000" lon="-3.9256999000"><ele>640</ele><time>2010-04-06T12:30:36Z</time></trkpt>
<trkpt lat="53.0724724000" lon="-3.9257410000"><ele>641</ele><time>2010-04-06T12:30:43Z</time></trkpt>
<trkpt lat="53.0724724000" lon="-3.9257979000"><ele>641</ele><time>2010-04-06T12:30:50Z</time></trkpt>
<trkpt lat="53.0724503000" lon="-3.9258166000"><ele>641</ele><time>2010-04-06T12:30:57Z</time></trkpt>
<trkpt lat="53.0724211000" lon="-3.9258333000"><ele>642</ele><time>2010-04-06T12:31:05Z</time></trkpt>
<trkpt lat="53.0724020000" lon="-3.9258736000"><ele>643</ele><time>2010-04-06T12:31:11Z</time></trkpt>
<trkpt lat="53.0723705000" lon="-3.9259208000"><ele>644</ele><time>2010-04-06T12:31:18Z</time></trkpt>
<trkpt lat="53.0723484000" lon="-3.9259379000"><ele>645</ele><time>2010-04-06T12:31:24Z</time></trkpt>
<trkpt lat="53.0723444000" lon="-3.9259601000"><ele>646</ele><time>2010-04-06T12:31:29Z</time></trkpt>
<trkpt lat="53.0723545000" lon="-3.9259809000"><ele>647</ele><time>2010-04-06T12:31:37Z</time></trkpt>
<trkpt lat="53.0723440000" lon="-3.9259927000"><ele>648</ele><time>2010-04-06T12:31:43Z</time></trkpt>
<trkpt lat="53.0723771000" lon="-3.9259983000"><ele>648</ele><time>2010-04-06T12:31:49Z</time></trkpt>
<trkpt lat="53.0724030000" lon="-3.9260074000"><ele>647</ele><time>2010-04-06T12:31:56Z</time></trkpt>
<trkpt lat="53.0724125000" lon="-3.9260011000"><ele>646</ele><time>2010-04-06T12:32:07Z</time></trkpt>
<trkpt lat="53.0724310000" lon="-3.9260056000"><ele>646</ele><time>2010-04-06T12:32:15Z</time></trkpt>
<trkpt lat="53.0724330000" lon="-3.9259990000"><ele>646</ele><time>2010-04-06T12:32:27Z</time></trkpt>
<trkpt lat="53.0724253000" lon="-3.9260148000"><ele>647</ele><time>2010-04-06T12:32:34Z</time></trkpt>
<trkpt lat="53.0723959000" lon="-3.9260524000"><ele>647</ele><time>2010-04-06T12:32:40Z</time></trkpt>
<trkpt lat="53.0723541000" lon="-3.9261170000"><ele>647</ele><time>2010-04-06T12:32:46Z</time></trkpt>
<trkpt lat="53.0723219000" lon="-3.9261548000"><ele>649</ele><time>2010-04-06T12:32:53Z</time></trkpt>
<trkpt lat="53.0722841000" lon="-3.9261948000"><ele>651</ele><time>2010-04-06T12:33:01Z</time></trkpt>
<trkpt lat="53.0722764000" lon="-3.9262682000"><ele>651</ele><time>2010-04-06T12:33:08Z</time></trkpt>
<trkpt lat="53.0722649000" lon="-3.9262827000"><ele>653</ele><time>2010-04-06T12:33:15Z</time></trkpt>
<trkpt lat="53.0722617000" lon="-3.9263163000"><ele>653</ele><time>2010-04-06T12:33:22Z</time></trkpt>
<trkpt lat="53.0722627000" lon="-3.9263415000"><ele>653</ele><time>2010-04-06T12:33:27Z</time></trkpt>
<trkpt lat="53.0722747000" lon="-3.9263664000"><ele>652</ele><time>2010-04-06T12:33:35Z</time></trkpt>
<trkpt lat="53.0722479000" lon="-3.9264133000"><ele>654</ele><time>2010-04-06T12:33:42Z</time></trkpt>
<trkpt lat="53.0722577000" lon="-3.9264336000"><ele>654</ele><time>2010-04-06T12:33:48Z</time></trkpt>
<trkpt lat="53.0722913000" lon="-3.9264191000"><ele>654</ele><time>2010-04-06T12:33:54Z</time></trkpt>
<trkpt lat="53.0723063000" lon="-3.9264113000"><ele>655</ele><time>2010-04-06T12:34:00Z</time></trkpt>
<trkpt lat="53.0723206000" lon="-3.9264008000"><ele>657</ele><time>2010-04-06T12:34:14Z</time></trkpt>
<trkpt lat="53.0723233000" lon="-3.9264111000"><ele>656</ele><time>2010-04-06T12:34:27Z</time></trkpt>
<trkpt lat="53.0723405000" lon="-3.9264212000"><ele>658</ele><time>2010-04-06T12:34:36Z</time></trkpt>
<trkpt lat="53.0723286000" lon="-3.9264320000"><ele>658</ele><time>2010-04-06T12:34:44Z</time></trkpt>
<trkpt lat="53.0723306000" lon="-3.9264300000"><ele>658</ele><time>2010-04-06T12:34:55Z</time></trkpt>
<trkpt lat="53.0723431000" lon="-3.9264191000"><ele>659</ele><time>2010-04-06T12:35:56Z</time></trkpt>
<trkpt lat="53.0723429000" lon="-3.9264151000"><ele>660</ele><time>2010-04-06T12:36:07Z</time></trkpt>
<trkpt lat="53.0723504000" lon="-3.9264160000"><ele>661</ele><time>2010-04-06T12:36:43Z</time></trkpt>
<trkpt lat="53.0723592000" lon="-3.9264160000"><ele>661</ele><time>2010-04-06T12:36:57Z</time></trkpt>
<trkpt lat="53.0723667000" lon="-3.9264440000"><ele>661</ele><time>2010-04-06T12:37:05Z</time></trkpt>
<trkpt lat="53.0723503000" lon="-3.9264533000"><ele>664</ele><time>2010-04-06T12:37:14Z</time></trkpt>
<trkpt lat="53.0723395000" lon="-3.9264470000"><ele>666</ele><time>2010-04-06T12:37:21Z</time></trkpt>
<trkpt lat="53.0723312000" lon="-3.9264637000"><ele>667</ele><time>2010-04-06T12:37:30Z</time></trkpt>
<trkpt lat="53.0723384000" lon="-3.9264798000"><ele>667</ele><time>2010-04-06T12:37:36Z</time></trkpt>
<trkpt lat="53.0723520000" lon="-3.9264754000"><ele>668</ele><time>2010-04-06T12:37:42Z</time></trkpt>
<trkpt lat="53.0723699000" lon="-3.9264942000"><ele>668</ele><time>2010-04-06T12:37:50Z</time></trkpt>
<trkpt lat="53.0723845000" lon="-3.9265164000"><ele>667</ele><time>2010-04-06T12:37:57Z</time></trkpt>
<trkpt lat="53.0723867000" lon="-3.9265526000"><ele>667</ele><time>2010-04-06T12:38:06Z</time></trkpt>
<trkpt lat="53.0723912000" lon="-3.9265895000"><ele>669</ele><time>2010-04-06T12:38:14Z</time></trkpt>
<trkpt lat="53.0724099000" lon="-3.9265988000"><ele>669</ele><time>2010-04-06T12:38:20Z</time></trkpt>
<trkpt lat="53.0724196000" lon="-3.9266463000"><ele>670</ele><time>2010-04-06T12:38:27Z</time></trkpt>
<trkpt lat="53.0724294000" lon="-3.9266941000"><ele>669</ele><time>2010-04-06T12:38:34Z</time></trkpt>
<trkpt lat="53.0724488000" lon="-3.9266982000"><ele>666</ele><time>2010-04-06T12:38:41Z</time></trkpt>
<trkpt lat="53.0724590000" lon="-3.9267145000"><ele>666</ele><time>2010-04-06T12:38:52Z</time></trkpt>
<trkpt lat="53.0724563000" lon="-3.9267365000"><ele>667</ele><time>2010-04-06T12:38:58Z</time></trkpt>
<trkpt lat="53.0724494000" lon="-3.9267634000"><ele>668</ele><time>2010-04-06T12:39:04Z</time></trkpt>
<trkpt lat="53.0724379000" lon="-3.9267646000"><ele>669</ele><time>2010-04-06T12:39:14Z</time></trkpt>
<trkpt lat="53.0724216000" lon="-3.9267499000"><ele>670</ele><time>2010-04-06T12:39:19Z</time></trkpt>
<trkpt lat="53.0724421000" lon="-3.9267453000"><ele>673</ele><time>2010-04-06T12:39:30Z</time></trkpt>
<trkpt lat="53.0724348000" lon="-3.9267574000"><ele>674</ele><time>2010-04-06T12:39:36Z</time></trkpt>
<trkpt lat="53.0724219000" lon="-3.9267657000"><ele>673</ele><time>2010-04-06T12:39:51Z</time></trkpt>
<trkpt lat="53.0724053000" lon="-3.9267926000"><ele>670</ele><time>2010-04-06T12:39:58Z</time></trkpt>
<trkpt lat="53.0723902000" lon="-3.9268059000"><ele>669</ele><time>2010-04-06T12:40:07Z</time></trkpt>
<trkpt lat="53.0723935000" lon="-3.9268113000"><ele>669</ele><time>2010-04-06T12:40:13Z</time></trkpt>
<trkpt lat="53.0723851000" lon="-3.9268300000"><ele>672</ele><time>2010-04-06T12:40:19Z</time></trkpt>
<trkpt lat="53.0723867000" lon="-3.9268474000"><ele>673</ele><time>2010-04-06T12:40:26Z</time></trkpt>
<trkpt lat="53.0723823000" lon="-3.9268744000"><ele>674</ele><time>2010-04-06T12:40:33Z</time></trkpt>
<trkpt lat="53.0723861000" lon="-3.9269040000"><ele>675</ele><time>2010-04-06T12:40:38Z</time></trkpt>
<trkpt lat="53.0723996000" lon="-3.9268920000"><ele>675</ele><time>2010-04-06T12:40:50Z</time></trkpt>
<trkpt lat="53.0723923000" lon="-3.9269269000"><ele>676</ele><time>2010-04-06T12:41:01Z</time></trkpt>
<trkpt lat="53.0723720000" lon="-3.9269333000"><ele>677</ele><time>2010-04-06T12:41:07Z</time></trkpt>
<trkpt lat="53.0723488000" lon="-3.9269848000"><ele>681</ele><time>2010-04-06T12:41:17Z</time></trkpt>
<trkpt lat="53.0723441000" lon="-3.9270079000"><ele>681</ele><time>2010-04-06T12:41:22Z</time></trkpt>
<trkpt lat="53.0723448000" lon="-3.9270239000"><ele>681</ele><time>2010-04-06T12:41:31Z</time></trkpt>
<trkpt lat="53.0723473000" lon="-3.9270309000"><ele>681</ele><time>2010-04-06T12:41:39Z</time></trkpt>
<trkpt lat="53.0723455000" lon="-3.9270666000"><ele>685</ele><time>2010-04-06T12:42:33Z</time></trkpt>
<trkpt lat="53.0723280000" lon="-3.9270946000"><ele>686</ele><time>2010-04-06T12:42:39Z</time></trkpt>
<trkpt lat="53.0723220000" lon="-3.9271208000"><ele>685</ele><time>2010-04-06T12:42:46Z</time></trkpt>
<trkpt lat="53.0723237000" lon="-3.9271303000"><ele>685</ele><time>2010-04-06T12:42:54Z</time></trkpt>
<trkpt lat="53.0723166000" lon="-3.9271272000"><ele>685</ele><time>2010-04-06T12:43:03Z</time></trkpt>
<trkpt lat="53.0723146000" lon="-3.9271255000"><ele>686</ele><time>2010-04-06T12:43:13Z</time></trkpt>
<trkpt lat="53.0723093000" lon="-3.9271451000"><ele>690</ele><time>2010-04-06T12:43:28Z</time></trkpt>
<trkpt lat="53.0723249000" lon="-3.9271672000"><ele>687</ele><time>2010-04-06T12:43:36Z</time></trkpt>
<trkpt lat="53.0723245000" lon="-3.9272023000"><ele>685</ele><time>2010-04-06T12:43:44Z</time></trkpt>
<trkpt lat="53.0723388000" lon="-3.9272252000"><ele>686</ele><time>2010-04-06T12:43:49Z</time></trkpt>
<trkpt lat="53.0723239000" lon="-3.9272385000"><ele>688</ele><time>2010-04-06T12:43:56Z</time></trkpt>
<trkpt lat="53.0722986000" lon="-3.9272545000"><ele>690</ele><time>2010-04-06T12:44:02Z</time></trkpt>
<trkpt lat="53.0722805000" lon="-3.9272825000"><ele>692</ele><time>2010-04-06T12:44:08Z</time></trkpt>
<trkpt lat="53.0722486000" lon="-3.9272909000"><ele>694</ele><time>2010-04-06T12:44:16Z</time></trkpt>
<trkpt lat="53.0722327000" lon="-3.9273384000"><ele>695</ele><time>2010-04-06T12:44:22Z</time></trkpt>
<trkpt lat="53.0722224000" lon="-3.9273914000"><ele>695</ele><time>2010-04-06T12:44:29Z</time></trkpt>
<trkpt lat="53.0722230000" lon="-3.9274345000"><ele>692</ele><time>2010-04-06T12:44:35Z</time></trkpt>
<trkpt lat="53.0722456000" lon="-3.9274511000"><ele>690</ele><time>2010-04-06T12:44:41Z</time></trkpt>
<trkpt lat="53.0722654000" lon="-3.9274502000"><ele>689</ele><time>2010-04-06T12:44:48Z</time></trkpt>
<trkpt lat="53.0722799000" lon="-3.9274639000"><ele>689</ele><time>2010-04-06T12:44:54Z</time></trkpt>
<trkpt lat="53.0722939000" lon="-3.9274785000"><ele>689</ele><time>2010-04-06T12:45:00Z</time></trkpt>
<trkpt lat="53.0723125000" lon="-3.9274844000"><ele>690</ele><time>2010-04-06T12:45:07Z</time></trkpt>
<trkpt lat="53.0723158000" lon="-3.9275063000"><ele>691</ele><time>2010-04-06T12:45:13Z</time></trkpt>
<trkpt lat="53.0723083000" lon="-3.9275333000"><ele>692</ele><time>2010-04-06T12:45:19Z</time></trkpt>
<trkpt lat="53.0722856000" lon="-3.9275504000"><ele>691</ele><time>2010-04-06T12:45:25Z</time></trkpt>
<trkpt lat="53.0722774000" lon="-3.9275681000"><ele>692</ele><time>2010-04-06T12:45:31Z</time></trkpt>
<trkpt lat="53.0722612000" lon="-3.9275623000"><ele>692</ele><time>2010-04-06T12:45:36Z</time></trkpt>
<trkpt lat="53.0722535000" lon="-3.9275608000"><ele>693</ele><time>2010-04-06T12:45:43Z</time></trkpt>
<trkpt lat="53.0722355000" lon="-3.9275768000"><ele>693</ele><time>2010-04-06T12:45:49Z</time></trkpt>
<trkpt lat="53.0722115000" lon="-3.9276124000"><ele>692</ele><time>2010-04-06T12:45:55Z</time></trkpt>
<trkpt lat="53.0722054000" lon="-3.9276463000"><ele>691</ele><time>2010-04-06T12:46:01Z</time></trkpt>
<trkpt lat="53.0722048000" lon="-3.9276913000"><ele>691</ele><time>2010-04-06T12:46:07Z</time></trkpt>
<trkpt lat="53.0722131000" lon="-3.9277267000"><ele>691</ele><time>2010-04-06T12:46:13Z</time></trkpt>
<trkpt lat="53.0722430000" lon="-3.9277432000"><ele>688</ele><time>2010-04-06T12:46:19Z</time></trkpt>
<trkpt lat="53.0722711000" lon="-3.9277415000"><ele>687</ele><time>2010-04-06T12:46:27Z</time></trkpt>
<trkpt lat="53.0722804000" lon="-3.9277658000"><ele>687</ele><time>2010-04-06T12:46:34Z</time></trkpt>
<trkpt lat="53.0722952000" lon="-3.9278250000"><ele>687</ele><time>2010-04-06T12:46:42Z</time></trkpt>
<trkpt lat="53.0723137000" lon="-3.9278587000"><ele>688</ele><time>2010-04-06T12:46:47Z</time></trkpt>
<trkpt lat="53.0723197000" lon="-3.9279168000"><ele>689</ele><time>2010-04-06T12:46:54Z</time></trkpt>
<trkpt lat="53.0723218000" lon="-3.9279328000"><ele>690</ele><time>2010-04-06T12:47:01Z</time></trkpt>
<trkpt lat="53.0723551000" lon="-3.9279657000"><ele>691</ele><time>2010-04-06T12:47:09Z</time></trkpt>
<trkpt lat="53.0723556000" lon="-3.9280161000"><ele>693</ele><time>2010-04-06T12:47:17Z</time></trkpt>
<trkpt lat="53.0723450000" lon="-3.9280380000"><ele>695</ele><time>2010-04-06T12:47:24Z</time></trkpt>
<trkpt lat="53.0723354000" lon="-3.9280369000"><ele>695</ele><time>2010-04-06T12:47:37Z</time></trkpt>
<trkpt lat="53.0723255000" lon="-3.9280432000"><ele>693</ele><time>2010-04-06T12:48:00Z</time></trkpt>
<trkpt lat="53.0723223000" lon="-3.9280504000"><ele>692</ele><time>2010-04-06T12:48:23Z</time></trkpt>
<trkpt lat="53.0723292000" lon="-3.9280534000"><ele>695</ele><time>2010-04-06T12:48:46Z</time></trkpt>
<trkpt lat="53.0723317000" lon="-3.9280625000"><ele>695</ele><time>2010-04-06T12:49:40Z</time></trkpt>
<trkpt lat="53.0723281000" lon="-3.9280622000"><ele>694</ele><time>2010-04-06T12:50:11Z</time></trkpt>
<trkpt lat="53.0723326000" lon="-3.9280555000"><ele>693</ele><time>2010-04-06T12:50:31Z</time></trkpt>
<trkpt lat="53.0723310000" lon="-3.9280493000"><ele>693</ele><time>2010-04-06T12:50:50Z</time></trkpt>
<trkpt lat="53.0723359000" lon="-3.9280437000"><ele>693</ele><time>2010-04-06T12:51:11Z</time></trkpt>
<trkpt lat="53.0723359000" lon="-3.9280907000"><ele>695</ele><time>2010-04-06T12:51:21Z</time></trkpt>
<trkpt lat="53.0722975000" lon="-3.9281617000"><ele>697</ele><time>2010-04-06T12:51:30Z</time></trkpt>
<trkpt lat="53.0722886000" lon="-3.9282435000"><ele>697</ele><time>2010-04-06T12:51:38Z</time></trkpt>
<trkpt lat="53.0722952000" lon="-3.9282768000"><ele>698</ele><time>2010-04-06T12:51:43Z</time></trkpt>
<trkpt lat="53.0722984000" lon="-3.9283124000"><ele>698</ele><time>2010-04-06T12:51:48Z</time></trkpt>
<trkpt lat="53.0723095000" lon="-3.9283273000"><ele>698</ele><time>2010-04-06T12:51:53Z</time></trkpt>
<trkpt lat="53.0723225000" lon="-3.9283512000"><ele>699</ele><time>2010-04-06T12:52:00Z</time></trkpt>
<trkpt lat="53.0723256000" lon="-3.9283874000"><ele>699</ele><time>2010-04-06T12:52:06Z</time></trkpt>
<trkpt lat="53.0723291000" lon="-3.9284331000"><ele>702</ele><time>2010-04-06T12:52:12Z</time></trkpt>
<trkpt lat="53.0723360000" lon="-3.9284651000"><ele>702</ele><time>2010-04-06T12:52:18Z</time></trkpt>
<trkpt lat="53.0723456000" lon="-3.9284824000"><ele>702</ele><time>2010-04-06T12:52:23Z</time></trkpt>
<trkpt lat="53.0723533000" lon="-3.9284985000"><ele>704</ele><time>2010-04-06T12:52:29Z</time></trkpt>
<trkpt lat="53.0723377000" lon="-3.9285107000"><ele>706</ele><time>2010-04-06T12:52:36Z</time></trkpt>
<trkpt lat="53.0723232000" lon="-3.9285547000"><ele>707</ele><time>2010-04-06T12:52:48Z</time></trkpt>
<trkpt lat="53.0723032000" lon="-3.9286165000"><ele>706</ele><time>2010-04-06T12:52:55Z</time></trkpt>
<trkpt lat="53.0722960000" lon="-3.9286517000"><ele>707</ele><time>2010-04-06T12:53:04Z</time></trkpt>
<trkpt lat="53.0722964000" lon="-3.9286895000"><ele>707</ele><time>2010-04-06T12:53:10Z</time></trkpt>
<trkpt lat="53.0722866000" lon="-3.9287356000"><ele>707</ele><time>2010-04-06T12:53:16Z</time></trkpt>
<trkpt lat="53.0722711000" lon="-3.9288123000"><ele>709</ele><time>2010-04-06T12:53:23Z</time></trkpt>
<trkpt lat="53.0722565000" lon="-3.9288821000"><ele>711</ele><time>2010-04-06T12:53:30Z</time></trkpt>
<trkpt lat="53.0722400000" lon="-3.9289277000"><ele>711</ele><time>2010-04-06T12:53:36Z</time></trkpt>
<trkpt lat="53.0722519000" lon="-3.9289668000"><ele>712</ele><time>2010-04-06T12:53:42Z</time></trkpt>
<trkpt lat="53.0722446000" lon="-3.9290177000"><ele>712</ele><time>2010-04-06T12:53:49Z</time></trkpt>
<trkpt lat="53.0722363000" lon="-3.9290374000"><ele>713</ele><time>2010-04-06T12:53:55Z</time></trkpt>
<trkpt lat="53.0722263000" lon="-3.9290785000"><ele>713</ele><time>2010-04-06T12:54:02Z</time></trkpt>
<trkpt lat="53.0722275000" lon="-3.9291490000"><ele>714</ele><time>2010-04-06T12:54:09Z</time></trkpt>
<trkpt lat="53.0722240000" lon="-3.9291987000"><ele>714</ele><time>2010-04-06T12:54:14Z</time></trkpt>
<trkpt lat="53.0722410000" lon="-3.9292366000"><ele>716</ele><time>2010-04-06T12:54:20Z</time></trkpt>
<trkpt lat="53.0722643000" lon="-3.9292588000"><ele>717</ele><time>2010-04-06T12:54:27Z</time></trkpt>
<trkpt lat="53.0722799000" lon="-3.9292666000"><ele>717</ele><time>2010-04-06T12:54:33Z</time></trkpt>
<trkpt lat="53.0722862000" lon="-3.9292983000"><ele>716</ele><time>2010-04-06T12:54:41Z</time></trkpt>
<trkpt lat="53.0722808000" lon="-3.9293104000"><ele>717</ele><time>2010-04-06T12:54:50Z</time></trkpt>
<trkpt lat="53.0722757000" lon="-3.9293433000"><ele>718</ele><time>2010-04-06T12:54:56Z</time></trkpt>
<trkpt lat="53.0722919000" lon="-3.9294033000"><ele>718</ele><time>2010-04-06T12:55:02Z</time></trkpt>
<trkpt lat="53.0723001000" lon="-3.9294924000"><ele>719</ele><time>2010-04-06T12:55:09Z</time></trkpt>
<trkpt lat="53.0723052000" lon="-3.9295277000"><ele>720</ele><time>2010-04-06T12:55:15Z</time></trkpt>
<trkpt lat="53.0723085000" lon="-3.9295677000"><ele>721</ele><time>2010-04-06T12:55:23Z</time></trkpt>
<trkpt lat="53.0723038000" lon="-3.9296301000"><ele>722</ele><time>2010-04-06T12:55:29Z</time></trkpt>
<trkpt lat="53.0722804000" lon="-3.9297062000"><ele>722</ele><time>2010-04-06T12:55:36Z</time></trkpt>
<trkpt lat="53.0722804000" lon="-3.9297541000"><ele>722</ele><time>2010-04-06T12:55:43Z</time></trkpt>
<trkpt lat="53.0723089000" lon="-3.9297798000"><ele>722</ele><time>2010-04-06T12:55:51Z</time></trkpt>
<trkpt lat="53.0723296000" lon="-3.9297991000"><ele>723</ele><time>2010-04-06T12:55:58Z</time></trkpt>
<trkpt lat="53.0723462000" lon="-3.9298179000"><ele>724</ele><time>2010-04-06T12:56:04Z</time></trkpt>
<trkpt lat="53.0723538000" lon="-3.9298416000"><ele>724</ele><time>2010-04-06T12:56:11Z</time></trkpt>
<trkpt lat="53.0723628000" lon="-3.9298649000"><ele>726</ele><time>2010-04-06T12:56:17Z</time></trkpt>
<trkpt lat="53.0723757000" lon="-3.9299002000"><ele>727</ele><time>2010-04-06T12:56:25Z</time></trkpt>
<trkpt lat="53.0723817000" lon="-3.9299279000"><ele>728</ele><time>2010-04-06T12:56:31Z</time></trkpt>
<trkpt lat="53.0723906000" lon="-3.9299667000"><ele>730</ele><time>2010-04-06T12:56:39Z</time></trkpt>
<trkpt lat="53.0723955000" lon="-3.9300300000"><ele>731</ele><time>2010-04-06T12:56:47Z</time></trkpt>
<trkpt lat="53.0724023000" lon="-3.9300681000"><ele>731</ele><time>2010-04-06T12:56:53Z</time></trkpt>
<trkpt lat="53.0724188000" lon="-3.9300782000"><ele>732</ele><time>2010-04-06T12:56:58Z</time></trkpt>
<trkpt lat="53.0724240000" lon="-3.9301140000"><ele>733</ele><time>2010-04-06T12:57:04Z</time></trkpt>
<trkpt lat="53.0724280000" lon="-3.9301767000"><ele>735</ele><time>2010-04-06T12:57:13Z</time></trkpt>
<trkpt lat="53.0724275000" lon="-3.9301859000"><ele>735</ele><time>2010-04-06T12:57:19Z</time></trkpt>
<trkpt lat="53.0724285000" lon="-3.9301755000"><ele>734</ele><time>2010-04-06T12:57:37Z</time></trkpt>
<trkpt lat="53.0724440000" lon="-3.9302078000"><ele>736</ele><time>2010-04-06T12:57:46Z</time></trkpt>
<trkpt lat="53.0724545000" lon="-3.9302441000"><ele>736</ele><time>2010-04-06T12:57:54Z</time></trkpt>
<trkpt lat="53.0724622000" lon="-3.9303001000"><ele>738</ele><time>2010-04-06T12:58:02Z</time></trkpt>
<trkpt lat="53.0724575000" lon="-3.9303627000"><ele>740</ele><time>2010-04-06T12:58:10Z</time></trkpt>
<trkpt lat="53.0724496000" lon="-3.9304088000"><ele>741</ele><time>2010-04-06T12:58:16Z</time></trkpt>
<trkpt lat="53.0724446000" lon="-3.9304565000"><ele>741</ele><time>2010-04-06T12:58:23Z</time></trkpt>
<trkpt lat="53.0724409000" lon="-3.9304813000"><ele>742</ele><time>2010-04-06T12:58:29Z</time></trkpt>
<trkpt lat="53.0724353000" lon="-3.9305056000"><ele>743</ele><time>2010-04-06T12:58:34Z</time></trkpt>
<trkpt lat="53.0724434000" lon="-3.9305688000"><ele>744</ele><time>2010-04-06T12:58:41Z</time></trkpt>
<trkpt lat="53.0724700000" lon="-3.9305941000"><ele>744</ele><time>2010-04-06T12:58:49Z</time></trkpt>
<trkpt lat="53.0724802000" lon="-3.9305886000"><ele>744</ele><time>2010-04-06T12:58:58Z</time></trkpt>
<trkpt lat="53.0725027000" lon="-3.9305565000"><ele>745</ele><time>2010-04-06T12:59:05Z</time></trkpt>
<trkpt lat="53.0725331000" lon="-3.9305456000"><ele>746</ele><time>2010-04-06T12:59:12Z</time></trkpt>
<trkpt lat="53.0725706000" lon="-3.9305415000"><ele>747</ele><time>2010-04-06T12:59:20Z</time></trkpt>
<trkpt lat="53.0725839000" lon="-3.9305398000"><ele>748</ele><time>2010-04-06T12:59:26Z</time></trkpt>
<trkpt lat="53.0725907000" lon="-3.9305699000"><ele>748</ele><time>2010-04-06T12:59:33Z</time></trkpt>
<trkpt lat="53.0726006000" lon="-3.9305823000"><ele>749</ele><time>2010-04-06T12:59:39Z</time></trkpt>
<trkpt lat="53.0726161000" lon="-3.9305854000"><ele>749</ele><time>2010-04-06T12:59:45Z</time></trkpt>
<trkpt lat="53.0726332000" lon="-3.9305822000"><ele>749</ele><time>2010-04-06T12:59:53Z</time></trkpt>
<trkpt lat="53.0726492000" lon="-3.9305710000"><ele>750</ele><time>2010-04-06T13:00:05Z</time></trkpt>
<trkpt lat="53.0726558000" lon="-3.9305662000"><ele>750</ele><time>2010-04-06T13:00:12Z</time></trkpt>
<trkpt lat="53.0726649000" lon="-3.9305445000"><ele>750</ele><time>2010-04-06T13:00:18Z</time></trkpt>
<trkpt lat="53.0726955000" lon="-3.9305226000"><ele>751</ele><time>2010-04-06T13:00:25Z</time></trkpt>
<trkpt lat="53.0726995000" lon="-3.9305435000"><ele>751</ele><time>2010-04-06T13:00:31Z</time></trkpt>
<trkpt lat="53.0727223000" lon="-3.9305568000"><ele>751</ele><time>2010-04-06T13:00:39Z</time></trkpt>
<trkpt lat="53.0727398000" lon="-3.9305745000"><ele>752</ele><time>2010-04-06T13:00:46Z</time></trkpt>
<trkpt lat="53.0727642000" lon="-3.9305887000"><ele>754</ele><time>2010-04-06T13:00:51Z</time></trkpt>
<trkpt lat="53.0727844000" lon="-3.9305972000"><ele>755</ele><time>2010-04-06T13:00:58Z</time></trkpt>
<trkpt lat="53.0728000000" lon="-3.9306098000"><ele>756</ele><time>2010-04-06T13:01:04Z</time></trkpt>
<trkpt lat="53.0728252000" lon="-3.9306015000"><ele>757</ele><time>2010-04-06T13:01:11Z</time></trkpt>
<trkpt lat="53.0728341000" lon="-3.9306253000"><ele>759</ele><time>2010-04-06T13:01:18Z</time></trkpt>
<trkpt lat="53.0728461000" lon="-3.9306562000"><ele>760</ele><time>2010-04-06T13:01:24Z</time></trkpt>
<trkpt lat="53.0728486000" lon="-3.9306935000"><ele>762</ele><time>2010-04-06T13:01:31Z</time></trkpt>
<trkpt lat="53.0728528000" lon="-3.9307332000"><ele>763</ele><time>2010-04-06T13:01:38Z</time></trkpt>
<trkpt lat="53.0728672000" lon="-3.9307322000"><ele>763</ele><time>2010-04-06T13:01:45Z</time></trkpt>
<trkpt lat="53.0728856000" lon="-3.9307465000"><ele>764</ele><time>2010-04-06T13:01:52Z</time></trkpt>
<trkpt lat="53.0728946000" lon="-3.9308178000"><ele>765</ele><time>2010-04-06T13:02:01Z</time></trkpt>
<trkpt lat="53.0729020000" lon="-3.9308810000"><ele>766</ele><time>2010-04-06T13:02:09Z</time></trkpt>
<trkpt lat="53.0729051000" lon="-3.9308855000"><ele>766</ele><time>2010-04-06T13:02:15Z</time></trkpt>
<trkpt lat="53.0729094000" lon="-3.9308862000"><ele>765</ele><time>2010-04-06T13:02:40Z</time></trkpt>
<trkpt lat="53.0729241000" lon="-3.9308673000"><ele>766</ele><time>2010-04-06T13:02:55Z</time></trkpt>
<trkpt lat="53.0729226000" lon="-3.9308594000"><ele>766</ele><time>2010-04-06T13:03:07Z</time></trkpt>
<trkpt lat="53.0729683000" lon="-3.9307993000"><ele>765</ele><time>2010-04-06T13:03:15Z</time></trkpt>
<trkpt lat="53.0729816000" lon="-3.9307993000"><ele>766</ele><time>2010-04-06T13:03:20Z</time></trkpt>
<trkpt lat="53.0729849000" lon="-3.9308349000"><ele>766</ele><time>2010-04-06T13:03:31Z</time></trkpt>
<trkpt lat="53.0729813000" lon="-3.9308549000"><ele>768</ele><time>2010-04-06T13:03:35Z</time></trkpt>
<trkpt lat="53.0729808000" lon="-3.9308936000"><ele>769</ele><time>2010-04-06T13:03:42Z</time></trkpt>
<trkpt lat="53.0729771000" lon="-3.9309278000"><ele>770</ele><time>2010-04-06T13:03:49Z</time></trkpt>
<trkpt lat="53.0729752000" lon="-3.9309704000"><ele>769</ele><time>2010-04-06T13:03:58Z</time></trkpt>
<trkpt lat="53.0730098000" lon="-3.9309640000"><ele>770</ele><time>2010-04-06T13:04:04Z</time></trkpt>
<trkpt lat="53.0730239000" lon="-3.9309968000"><ele>771</ele><time>2010-04-06T13:04:11Z</time></trkpt>
<trkpt lat="53.0730220000" lon="-3.9310500000"><ele>772</ele><time>2010-04-06T13:04:17Z</time></trkpt>
<trkpt lat="53.0730326000" lon="-3.9310968000"><ele>773</ele><time>2010-04-06T13:04:26Z</time></trkpt>
<trkpt lat="53.0730456000" lon="-3.9311170000"><ele>773</ele><time>2010-04-06T13:04:32Z</time></trkpt>
<trkpt lat="53.0730585000" lon="-3.9311055000"><ele>774</ele><time>2010-04-06T13:04:38Z</time></trkpt>
<trkpt lat="53.0730617000" lon="-3.9311143000"><ele>775</ele><time>2010-04-06T13:04:44Z</time></trkpt>
<trkpt lat="53.0730735000" lon="-3.9311212000"><ele>775</ele><time>2010-04-06T13:04:51Z</time></trkpt>
<trkpt lat="53.0730925000" lon="-3.9311237000"><ele>776</ele><time>2010-04-06T13:04:57Z</time></trkpt>
<trkpt lat="53.0731199000" lon="-3.9311282000"><ele>776</ele><time>2010-04-06T13:05:03Z</time></trkpt>
<trkpt lat="53.0731377000" lon="-3.9311641000"><ele>779</ele><time>2010-04-06T13:05:09Z</time></trkpt>
<trkpt lat="53.0731480000" lon="-3.9311716000"><ele>781</ele><time>2010-04-06T13:05:17Z</time></trkpt>
<trkpt lat="53.0731481000" lon="-3.9311905000"><ele>783</ele><time>2010-04-06T13:05:23Z</time></trkpt>
<trkpt lat="53.0731580000" lon="-3.9311972000"><ele>785</ele><time>2010-04-06T13:05:31Z</time></trkpt>
<trkpt lat="53.0731689000" lon="-3.9312024000"><ele>786</ele><time>2010-04-06T13:05:36Z</time></trkpt>
<trkpt lat="53.0731627000" lon="-3.9312376000"><ele>786</ele><time>2010-04-06T13:05:44Z</time></trkpt>
<trkpt lat="53.0731667000" lon="-3.9312583000"><ele>786</ele><time>2010-04-06T13:05:52Z</time></trkpt>
<trkpt lat="53.0731692000" lon="-3.9312764000"><ele>785</ele><time>2010-04-06T13:05:58Z</time></trkpt>
<trkpt lat="53.0731678000" lon="-3.9312805000"><ele>785</ele><time>2010-04-06T13:06:06Z</time></trkpt>
<trkpt lat="53.0731755000" lon="-3.9313001000"><ele>786</ele><time>2010-04-06T13:06:13Z</time></trkpt>
<trkpt lat="53.0731920000" lon="-3.9313189000"><ele>787</ele><time>2010-04-06T13:06:21Z</time></trkpt>
<trkpt lat="53.0731898000" lon="-3.9313564000"><ele>789</ele><time>2010-04-06T13:06:27Z</time></trkpt>
<trkpt lat="53.0731893000" lon="-3.9313889000"><ele>790</ele><time>2010-04-06T13:06:33Z</time></trkpt>
<trkpt lat="53.0732025000" lon="-3.9314158000"><ele>791</ele><time>2010-04-06T13:06:39Z</time></trkpt>
<trkpt lat="53.0732030000" lon="-3.9314672000"><ele>793</ele><time>2010-04-06T13:06:46Z</time></trkpt>
<trkpt lat="53.0731994000" lon="-3.9315071000"><ele>793</ele><time>2010-04-06T13:06:51Z</time></trkpt>
<trkpt lat="53.0731982000" lon="-3.9315484000"><ele>793</ele><time>2010-04-06T13:06:59Z</time></trkpt>
<trkpt lat="53.0731788000" lon="-3.9315729000"><ele>794</ele><time>2010-04-06T13:07:05Z</time></trkpt>
<trkpt lat="53.0731665000" lon="-3.9315796000"><ele>795</ele><time>2010-04-06T13:07:24Z</time></trkpt>
<trkpt lat="53.0731681000" lon="-3.9315982000"><ele>793</ele><time>2010-04-06T13:07:33Z</time></trkpt>
<trkpt lat="53.0731755000" lon="-3.9316225000"><ele>791</ele><time>2010-04-06T13:07:38Z</time></trkpt>
<trkpt lat="53.0731719000" lon="-3.9316365000"><ele>794</ele><time>2010-04-06T13:07:51Z</time></trkpt>
<trkpt lat="53.0731802000" lon="-3.9316613000"><ele>795</ele><time>2010-04-06T13:07:58Z</time></trkpt>
<trkpt lat="53.0731802000" lon="-3.9316694000"><ele>794</ele><time>2010-04-06T13:08:06Z</time></trkpt>
<trkpt lat="53.0731745000" lon="-3.9316861000"><ele>795</ele><time>2010-04-06T13:08:13Z</time></trkpt>
<trkpt lat="53.0731857000" lon="-3.9317054000"><ele>795</ele><time>2010-04-06T13:08:20Z</time></trkpt>
<trkpt lat="53.0731973000" lon="-3.9317404000"><ele>796</ele><time>2010-04-06T13:08:26Z</time></trkpt>
<trkpt lat="53.0732030000" lon="-3.9317898000"><ele>797</ele><time>2010-04-06T13:08:33Z</time></trkpt>
<trkpt lat="53.0732108000" lon="-3.9318090000"><ele>797</ele><time>2010-04-06T13:08:38Z</time></trkpt>
<trkpt lat="53.0732189000" lon="-3.9318308000"><ele>797</ele><time>2010-04-06T13:08:47Z</time></trkpt>
<trkpt lat="53.0732335000" lon="-3.9318706000"><ele>797</ele><time>2010-04-06T13:08:53Z</time></trkpt>
<trkpt lat="53.0732522000" lon="-3.9318956000"><ele>802</ele><time>2010-04-06T13:09:00Z</time></trkpt>
<trkpt lat="53.0732758000" lon="-3.9318816000"><ele>804</ele><time>2010-04-06T13:09:06Z</time></trkpt>
<trkpt lat="53.0732903000" lon="-3.9318647000"><ele>804</ele><time>2010-04-06T13:09:11Z</time></trkpt>
<trkpt lat="53.0732998000" lon="-3.9318854000"><ele>804</ele><time>2010-04-06T13:09:16Z</time></trkpt>
<trkpt lat="53.0733085000" lon="-3.9319266000"><ele>805</ele><time>2010-04-06T13:09:23Z</time></trkpt>
<trkpt lat="53.0733207000" lon="-3.9319596000"><ele>805</ele><time>2010-04-06T13:09:30Z</time></trkpt>
<trkpt lat="53.0733294000" lon="-3.9319691000"><ele>806</ele><time>2010-04-06T13:09:37Z</time></trkpt>
<trkpt lat="53.0733347000" lon="-3.9320104000"><ele>805</ele><time>2010-04-06T13:09:42Z</time></trkpt>
<trkpt lat="53.0733432000" lon="-3.9320329000"><ele>806</ele><time>2010-04-06T13:09:49Z</time></trkpt>
<trkpt lat="53.0733433000" lon="-3.9320623000"><ele>807</ele><time>2010-04-06T13:09:56Z</time></trkpt>
<trkpt lat="53.0733366000" lon="-3.9321006000"><ele>806</ele><time>2010-04-06T13:10:03Z</time></trkpt>
<trkpt lat="53.0733225000" lon="-3.9321245000"><ele>807</ele><time>2010-04-06T13:10:08Z</time></trkpt>
<trkpt lat="53.0733091000" lon="-3.9321556000"><ele>809</ele><time>2010-04-06T13:10:15Z</time></trkpt>
<trkpt lat="53.0733150000" lon="-3.9321743000"><ele>810</ele><time>2010-04-06T13:10:20Z</time></trkpt>
<trkpt lat="53.0733361000" lon="-3.9321892000"><ele>811</ele><time>2010-04-06T13:10:27Z</time></trkpt>
<trkpt lat="53.0733259000" lon="-3.9322188000"><ele>812</ele><time>2010-04-06T13:10:32Z</time></trkpt>
<trkpt lat="53.0733180000" lon="-3.9322154000"><ele>814</ele><time>2010-04-06T13:10:37Z</time></trkpt>
<trkpt lat="53.0733155000" lon="-3.9322177000"><ele>814</ele><time>2010-04-06T13:10:57Z</time></trkpt>
<trkpt lat="53.0733336000" lon="-3.9322224000"><ele>814</ele><time>2010-04-06T13:11:22Z</time></trkpt>
<trkpt lat="53.0733418000" lon="-3.9322213000"><ele>815</ele><time>2010-04-06T13:11:59Z</time></trkpt>
<trkpt lat="53.0733703000" lon="-3.9322403000"><ele>814</ele><time>2010-04-06T13:12:48Z</time></trkpt>
<trkpt lat="53.0733702000" lon="-3.9322394000"><ele>814</ele><time>2010-04-06T13:12:53Z</time></trkpt>
<trkpt lat="53.0733842000" lon="-3.9322323000"><ele>815</ele><time>2010-04-06T13:12:58Z</time></trkpt>
<trkpt lat="53.0734019000" lon="-3.9322273000"><ele>816</ele><time>2010-04-06T13:13:04Z</time></trkpt>
<trkpt lat="53.0734112000" lon="-3.9322248000"><ele>818</ele><time>2010-04-06T13:13:10Z</time></trkpt>
<trkpt lat="53.0734190000" lon="-3.9322441000"><ele>821</ele><time>2010-04-06T13:13:18Z</time></trkpt>
<trkpt lat="53.0734366000" lon="-3.9322673000"><ele>822</ele><time>2010-04-06T13:13:26Z</time></trkpt>
<trkpt lat="53.0734536000" lon="-3.9322694000"><ele>823</ele><time>2010-04-06T13:13:33Z</time></trkpt>
<trkpt lat="53.0734688000" lon="-3.9322659000"><ele>823</ele><time>2010-04-06T13:13:40Z</time></trkpt>
<trkpt lat="53.0734751000" lon="-3.9323037000"><ele>823</ele><time>2010-04-06T13:13:46Z</time></trkpt>
<trkpt lat="53.0734755000" lon="-3.9323264000"><ele>824</ele><time>2010-04-06T13:13:52Z</time></trkpt>
<trkpt lat="53.0734843000" lon="-3.9323430000"><ele>825</ele><time>2010-04-06T13:14:03Z</time></trkpt>
<trkpt lat="53.0734898000" lon="-3.9323528000"><ele>825</ele><time>2010-04-06T13:14:11Z</time></trkpt>
<trkpt lat="53.0734887000" lon="-3.9323844000"><ele>827</ele><time>2010-04-06T13:14:20Z</time></trkpt>
<trkpt lat="53.0734868000" lon="-3.9324178000"><ele>826</ele><time>2010-04-06T13:14:27Z</time></trkpt>
<trkpt lat="53.0734937000" lon="-3.9324467000"><ele>825</ele><time>2010-04-06T13:14:33Z</time></trkpt>
<trkpt lat="53.0734900000" lon="-3.9324639000"><ele>825</ele><time>2010-04-06T13:14:40Z</time></trkpt>
<trkpt lat="53.0734962000" lon="-3.9324478000"><ele>830</ele><time>2010-04-06T13:14:50Z</time></trkpt>
<trkpt lat="53.0735136000" lon="-3.9324467000"><ele>830</ele><time>2010-04-06T13:15:01Z</time></trkpt>
<trkpt lat="53.0735009000" lon="-3.9324586000"><ele>833</ele><time>2010-04-06T13:15:17Z</time></trkpt>
<trkpt lat="53.0734891000" lon="-3.9324793000"><ele>833</ele><time>2010-04-06T13:15:24Z</time></trkpt>
<trkpt lat="53.0734884000" lon="-3.9324965000"><ele>835</ele><time>2010-04-06T13:15:32Z</time></trkpt>
<trkpt lat="53.0734884000" lon="-3.9325146000"><ele>835</ele><time>2010-04-06T13:15:41Z</time></trkpt>
<trkpt lat="53.0734747000" lon="-3.9325333000"><ele>838</ele><time>2010-04-06T13:15:48Z</time></trkpt>
<trkpt lat="53.0734810000" lon="-3.9325316000"><ele>838</ele><time>2010-04-06T13:15:59Z</time></trkpt>
<trkpt lat="53.0734750000" lon="-3.9325031000"><ele>839</ele><time>2010-04-06T13:16:04Z</time></trkpt>
<trkpt lat="53.0734688000" lon="-3.9324844000"><ele>838</ele><time>2010-04-06T13:16:11Z</time></trkpt>
<trkpt lat="53.0734577000" lon="-3.9324632000"><ele>836</ele><time>2010-04-06T13:16:28Z</time></trkpt>
<trkpt lat="53.0734516000" lon="-3.9324525000"><ele>834</ele><time>2010-04-06T13:16:48Z</time></trkpt>
<trkpt lat="53.0734522000" lon="-3.9324560000"><ele>834</ele><time>2010-04-06T13:17:02Z</time></trkpt>
<trkpt lat="53.0734517000" lon="-3.9324467000"><ele>834</ele><time>2010-04-06T13:17:19Z</time></trkpt>
<trkpt lat="53.0734569000" lon="-3.9324549000"><ele>834</ele><time>2010-04-06T13:17:30Z</time></trkpt>
<trkpt lat="53.0734597000" lon="-3.9324570000"><ele>833</ele><time>2010-04-06T13:17:44Z</time></trkpt>
<trkpt lat="53.0734552000" lon="-3.9324408000"><ele>833</ele><time>2010-04-06T13:18:03Z</time></trkpt>
<trkpt lat="53.0734496000" lon="-3.9324281000"><ele>833</ele><time>2010-04-06T13:18:24Z</time></trkpt>
<trkpt lat="53.0734522000" lon="-3.9324332000"><ele>832</ele><time>2010-04-06T13:18:40Z</time></trkpt>
<trkpt lat="53.0734497000" lon="-3.9324270000"><ele>832</ele><time>2010-04-06T13:18:55Z</time></trkpt>
<trkpt lat="53.0734469000" lon="-3.9324195000"><ele>832</ele><time>2010-04-06T13:19:13Z</time></trkpt>
<trkpt lat="53.0734535000" lon="-3.9324312000"><ele>833</ele><time>2010-04-06T13:19:30Z</time></trkpt>
<trkpt lat="53.0734491000" lon="-3.9324223000"><ele>832</ele><time>2010-04-06T13:19:40Z</time></trkpt>
<trkpt lat="53.0734564000" lon="-3.9324543000"><ele>833</ele><time>2010-04-06T13:19:49Z</time></trkpt>
<trkpt lat="53.0734709000" lon="-3.9324946000"><ele>834</ele><time>2010-04-06T13:20:05Z</time></trkpt>
<trkpt lat="53.0734595000" lon="-3.9325150000"><ele>835</ele><time>2010-04-06T13:20:16Z</time></trkpt>
<trkpt lat="53.0734533000" lon="-3.9325627000"><ele>836</ele><time>2010-04-06T13:20:31Z</time></trkpt>
<trkpt lat="53.0734481000" lon="-3.9326039000"><ele>835</ele><time>2010-04-06T13:20:37Z</time></trkpt>
<trkpt lat="53.0734481000" lon="-3.9326317000"><ele>836</ele><time>2010-04-06T13:20:44Z</time></trkpt>
<trkpt lat="53.0734573000" lon="-3.9326709000"><ele>837</ele><time>2010-04-06T13:20:52Z</time></trkpt>
<trkpt lat="53.0734527000" lon="-3.9326922000"><ele>837</ele><time>2010-04-06T13:20:59Z</time></trkpt>
<trkpt lat="53.0734449000" lon="-3.9327182000"><ele>838</ele><time>2010-04-06T13:21:06Z</time></trkpt>
<trkpt lat="53.0734504000" lon="-3.9327461000"><ele>838</ele><time>2010-04-06T13:21:12Z</time></trkpt>
<trkpt lat="53.0734523000" lon="-3.9327790000"><ele>841</ele><time>2010-04-06T13:21:21Z</time></trkpt>
<trkpt lat="53.0734510000" lon="-3.9328089000"><ele>841</ele><time>2010-04-06T13:21:27Z</time></trkpt>
<trkpt lat="53.0734547000" lon="-3.9328403000"><ele>842</ele><time>2010-04-06T13:21:33Z</time></trkpt>
<trkpt lat="53.0734512000" lon="-3.9328828000"><ele>844</ele><time>2010-04-06T13:21:39Z</time></trkpt>
<trkpt lat="53.0734580000" lon="-3.9329016000"><ele>844</ele><time>2010-04-06T13:21:44Z</time></trkpt>
<trkpt lat="53.0734605000" lon="-3.9329342000"><ele>846</ele><time>2010-04-06T13:21:52Z</time></trkpt>
<trkpt lat="53.0734568000" lon="-3.9329590000"><ele>846</ele><time>2010-04-06T13:22:02Z</time></trkpt>
<trkpt lat="53.0734603000" lon="-3.9329838000"><ele>845</ele><time>2010-04-06T13:22:09Z</time></trkpt>
<trkpt lat="53.0734563000" lon="-3.9330139000"><ele>844</ele><time>2010-04-06T13:22:16Z</time></trkpt>
<trkpt lat="53.0734444000" lon="-3.9330315000"><ele>844</ele><time>2010-04-06T13:22:23Z</time></trkpt>
<trkpt lat="53.0734396000" lon="-3.9330362000"><ele>845</ele><time>2010-04-06T13:22:34Z</time></trkpt>
<trkpt lat="53.0734316000" lon="-3.9330561000"><ele>845</ele><time>2010-04-06T13:22:41Z</time></trkpt>
<trkpt lat="53.0734340000" lon="-3.9330860000"><ele>846</ele><time>2010-04-06T13:22:47Z</time></trkpt>
<trkpt lat="53.0734380000" lon="-3.9331064000"><ele>847</ele><time>2010-04-06T13:22:53Z</time></trkpt>
<trkpt lat="53.0734401000" lon="-3.9331086000"><ele>849</ele><time>2010-04-06T13:23:01Z</time></trkpt>
<trkpt lat="53.0734397000" lon="-3.9331300000"><ele>849</ele><time>2010-04-06T13:23:07Z</time></trkpt>
<trkpt lat="53.0734406000" lon="-3.9331497000"><ele>851</ele><time>2010-04-06T13:23:15Z</time></trkpt>
<trkpt lat="53.0734129000" lon="-3.9331749000"><ele>852</ele><time>2010-04-06T13:23:20Z</time></trkpt>
<trkpt lat="53.0733936000" lon="-3.9332316000"><ele>853</ele><time>2010-04-06T13:23:27Z</time></trkpt>
<trkpt lat="53.0733910000" lon="-3.9332825000"><ele>854</ele><time>2010-04-06T13:23:33Z</time></trkpt>
<trkpt lat="53.0734102000" lon="-3.9333583000"><ele>855</ele><time>2010-04-06T13:23:41Z</time></trkpt>
<trkpt lat="53.0734062000" lon="-3.9333925000"><ele>856</ele><time>2010-04-06T13:23:47Z</time></trkpt>
<trkpt lat="53.0734096000" lon="-3.9334302000"><ele>857</ele><time>2010-04-06T13:23:54Z</time></trkpt>
<trkpt lat="53.0734033000" lon="-3.9335120000"><ele>858</ele><time>2010-04-06T13:24:01Z</time></trkpt>
<trkpt lat="53.0733825000" lon="-3.9335465000"><ele>858</ele><time>2010-04-06T13:24:08Z</time></trkpt>
<trkpt lat="53.0733826000" lon="-3.9336147000"><ele>858</ele><time>2010-04-06T13:24:14Z</time></trkpt>
<trkpt lat="53.0733646000" lon="-3.9336661000"><ele>860</ele><time>2010-04-06T13:24:21Z</time></trkpt>
<trkpt lat="53.0733735000" lon="-3.9337043000"><ele>860</ele><time>2010-04-06T13:24:28Z</time></trkpt>
<trkpt lat="53.0733647000" lon="-3.9337560000"><ele>861</ele><time>2010-04-06T13:24:34Z</time></trkpt>
<trkpt lat="53.0733480000" lon="-3.9337821000"><ele>861</ele><time>2010-04-06T13:24:39Z</time></trkpt>
<trkpt lat="53.0733354000" lon="-3.9338376000"><ele>861</ele><time>2010-04-06T13:24:46Z</time></trkpt>
<trkpt lat="53.0733150000" lon="-3.9338482000"><ele>862</ele><time>2010-04-06T13:24:52Z</time></trkpt>
<trkpt lat="53.0733004000" lon="-3.9338715000"><ele>863</ele><time>2010-04-06T13:24:58Z</time></trkpt>
<trkpt lat="53.0732598000" lon="-3.9339043000"><ele>864</ele><time>2010-04-06T13:25:05Z</time></trkpt>
<trkpt lat="53.0732283000" lon="-3.9339276000"><ele>865</ele><time>2010-04-06T13:25:13Z</time></trkpt>
<trkpt lat="53.0732355000" lon="-3.9339485000"><ele>865</ele><time>2010-04-06T13:25:16Z</time></trkpt>
<trkpt lat="53.0732347000" lon="-3.9339762000"><ele>865</ele><time>2010-04-06T13:25:24Z</time></trkpt>
<trkpt lat="53.0732211000" lon="-3.9340013000"><ele>866</ele><time>2010-04-06T13:25:30Z</time></trkpt>
<trkpt lat="53.0732201000" lon="-3.9340161000"><ele>867</ele><time>2010-04-06T13:25:35Z</time></trkpt>
<trkpt lat="53.0732116000" lon="-3.9340048000"><ele>868</ele><time>2010-04-06T13:25:42Z</time></trkpt>
<trkpt lat="53.0732123000" lon="-3.9339969000"><ele>869</ele><time>2010-04-06T13:26:00Z</time></trkpt>
<trkpt lat="53.0732194000" lon="-3.9339846000"><ele>872</ele><time>2010-04-06T13:26:35Z</time></trkpt>
<trkpt lat="53.0732319000" lon="-3.9339981000"><ele>871</ele><time>2010-04-06T13:26:43Z</time></trkpt>
<trkpt lat="53.0732470000" lon="-3.9339992000"><ele>870</ele><time>2010-04-06T13:26:49Z</time></trkpt>
<trkpt lat="53.0732585000" lon="-3.9340112000"><ele>870</ele><time>2010-04-06T13:26:55Z</time></trkpt>
<trkpt lat="53.0732684000" lon="-3.9340334000"><ele>869</ele><time>2010-04-06T13:27:01Z</time></trkpt>
<trkpt lat="53.0732997000" lon="-3.9340301000"><ele>868</ele><time>2010-04-06T13:27:07Z</time></trkpt>
<trkpt lat="53.0733414000" lon="-3.9340219000"><ele>868</ele><time>2010-04-06T13:27:13Z</time></trkpt>
<trkpt lat="53.0733796000" lon="-3.9339861000"><ele>867</ele><time>2010-04-06T13:27:22Z</time></trkpt>
<trkpt lat="53.0733877000" lon="-3.9339924000"><ele>866</ele><time>2010-04-06T13:27:28Z</time></trkpt>
<trkpt lat="53.0733910000" lon="-3.9339907000"><ele>866</ele><time>2010-04-06T13:27:33Z</time></trkpt>
<trkpt lat="53.0734142000" lon="-3.9339819000"><ele>865</ele><time>2010-04-06T13:27:39Z</time></trkpt>
<trkpt lat="53.0734378000" lon="-3.9339649000"><ele>865</ele><time>2010-04-06T13:27:45Z</time></trkpt>
<trkpt lat="53.0734838000" lon="-3.9339005000"><ele>865</ele><time>2010-04-06T13:27:52Z</time></trkpt>
<trkpt lat="53.0735281000" lon="-3.9339012000"><ele>864</ele><time>2010-04-06T13:27:57Z</time></trkpt>
<trkpt lat="53.0736028000" lon="-3.9338805000"><ele>864</ele><time>2010-04-06T13:28:05Z</time></trkpt>
<trkpt lat="53.0736143000" lon="-3.9338754000"><ele>864</ele><time>2010-04-06T13:28:06Z</time></trkpt>
<trkpt lat="53.0736729000" lon="-3.9338628000"><ele>864</ele><time>2010-04-06T13:28:12Z</time></trkpt>
<trkpt lat="53.0737438000" lon="-3.9338894000"><ele>864</ele><time>2010-04-06T13:28:21Z</time></trkpt>
<trkpt lat="53.0737520000" lon="-3.9338339000"><ele>863</ele><time>2010-04-06T13:28:26Z</time></trkpt>
<trkpt lat="53.0737885000" lon="-3.9337836000"><ele>863</ele><time>2010-04-06T13:28:33Z</time></trkpt>
<trkpt lat="53.0738329000" lon="-3.9337439000"><ele>863</ele><time>2010-04-06T13:28:41Z</time></trkpt>
<trkpt lat="53.0738484000" lon="-3.9337159000"><ele>863</ele><time>2010-04-06T13:28:48Z</time></trkpt>
<trkpt lat="53.0738470000" lon="-3.9336718000"><ele>862</ele><time>2010-04-06T13:28:54Z</time></trkpt>
<trkpt lat="53.0738731000" lon="-3.9336346000"><ele>861</ele><time>2010-04-06T13:29:01Z</time></trkpt>
<trkpt lat="53.0738851000" lon="-3.9335956000"><ele>861</ele><time>2010-04-06T13:29:08Z</time></trkpt>
<trkpt lat="53.0738879000" lon="-3.9335723000"><ele>860</ele><time>2010-04-06T13:29:13Z</time></trkpt>
<trkpt lat="53.0738978000" lon="-3.9335434000"><ele>860</ele><time>2010-04-06T13:29:20Z</time></trkpt>
<trkpt lat="53.0739111000" lon="-3.9334993000"><ele>860</ele><time>2010-04-06T13:29:26Z</time></trkpt>
<trkpt lat="53.0739244000" lon="-3.9334711000"><ele>859</ele><time>2010-04-06T13:29:32Z</time></trkpt>
<trkpt lat="53.0739344000" lon="-3.9334371000"><ele>858</ele><time>2010-04-06T13:29:38Z</time></trkpt>
<trkpt lat="53.0739318000" lon="-3.9334193000"><ele>857</ele><time>2010-04-06T13:29:43Z</time></trkpt>
<trkpt lat="53.0739282000" lon="-3.9333703000"><ele>856</ele><time>2010-04-06T13:29:51Z</time></trkpt>
<trkpt lat="53.0739044000" lon="-3.9333060000"><ele>855</ele><time>2010-04-06T13:29:59Z</time></trkpt>
<trkpt lat="53.0738847000" lon="-3.9332289000"><ele>853</ele><time>2010-04-06T13:30:07Z</time></trkpt>
<trkpt lat="53.0739096000" lon="-3.9331914000"><ele>853</ele><time>2010-04-06T13:30:13Z</time></trkpt>
<trkpt lat="53.0739551000" lon="-3.9331563000"><ele>853</ele><time>2010-04-06T13:30:20Z</time></trkpt>
<trkpt lat="53.0740052000" lon="-3.9331051000"><ele>853</ele><time>2010-04-06T13:30:27Z</time></trkpt>
<trkpt lat="53.0740498000" lon="-3.9331159000"><ele>853</ele><time>2010-04-06T13:30:32Z</time></trkpt>
<trkpt lat="53.0740928000" lon="-3.9331416000"><ele>852</ele><time>2010-04-06T13:30:39Z</time></trkpt>
<trkpt lat="53.0741809000" lon="-3.9331325000"><ele>852</ele><time>2010-04-06T13:30:47Z</time></trkpt>
<trkpt lat="53.0742450000" lon="-3.9331176000"><ele>851</ele><time>2010-04-06T13:30:55Z</time></trkpt>
<trkpt lat="53.0742877000" lon="-3.9330280000"><ele>851</ele><time>2010-04-06T13:31:03Z</time></trkpt>
<trkpt lat="53.0743101000" lon="-3.9329168000"><ele>850</ele><time>2010-04-06T13:31:12Z</time></trkpt>
<trkpt lat="53.0743317000" lon="-3.9328137000"><ele>849</ele><time>2010-04-06T13:31:20Z</time></trkpt>
<trkpt lat="53.0743209000" lon="-3.9327042000"><ele>848</ele><time>2010-04-06T13:31:27Z</time></trkpt>
<trkpt lat="53.0743571000" lon="-3.9326283000"><ele>846</ele><time>2010-04-06T13:31:34Z</time></trkpt>
<trkpt lat="53.0744136000" lon="-3.9325958000"><ele>845</ele><time>2010-04-06T13:31:42Z</time></trkpt>
<trkpt lat="53.0744355000" lon="-3.9325530000"><ele>845</ele><time>2010-04-06T13:31:52Z</time></trkpt>
<trkpt lat="53.0745032000" lon="-3.9324766000"><ele>844</ele><time>2010-04-06T13:32:00Z</time></trkpt>
<trkpt lat="53.0745373000" lon="-3.9324248000"><ele>844</ele><time>2010-04-06T13:32:06Z</time></trkpt>
<trkpt lat="53.0745403000" lon="-3.9323969000"><ele>843</ele><time>2010-04-06T13:32:11Z</time></trkpt>
<trkpt lat="53.0745462000" lon="-3.9323025000"><ele>842</ele><time>2010-04-06T13:32:18Z</time></trkpt>
<trkpt lat="53.0745962000" lon="-3.9322218000"><ele>840</ele><time>2010-04-06T13:32:26Z</time></trkpt>
<trkpt lat="53.0746425000" lon="-3.9321950000"><ele>839</ele><time>2010-04-06T13:32:34Z</time></trkpt>
<trkpt lat="53.0746611000" lon="-3.9322006000"><ele>838</ele><time>2010-04-06T13:32:40Z</time></trkpt>
<trkpt lat="53.0746663000" lon="-3.9322488000"><ele>838</ele><time>2010-04-06T13:32:46Z</time></trkpt>
<trkpt lat="53.0747030000" lon="-3.9322594000"><ele>838</ele><time>2010-04-06T13:32:53Z</time></trkpt>
<trkpt lat="53.0747302000" lon="-3.9322072000"><ele>837</ele><time>2010-04-06T13:32:59Z</time></trkpt>
<trkpt lat="53.0747512000" lon="-3.9321375000"><ele>835</ele><time>2010-04-06T13:33:05Z</time></trkpt>
<trkpt lat="53.0747725000" lon="-3.9320466000"><ele>833</ele><time>2010-04-06T13:33:13Z</time></trkpt>
<trkpt lat="53.0748223000" lon="-3.9319922000"><ele>832</ele><time>2010-04-06T13:33:21Z</time></trkpt>
<trkpt lat="53.0748538000" lon="-3.9319365000"><ele>831</ele><time>2010-04-06T13:33:27Z</time></trkpt>
<trkpt lat="53.0749096000" lon="-3.9319048000"><ele>830</ele><time>2010-04-06T13:33:32Z</time></trkpt>
<trkpt lat="53.0749195000" lon="-3.9318974000"><ele>830</ele><time>2010-04-06T13:33:33Z</time></trkpt>
<trkpt lat="53.0750010000" lon="-3.9318393000"><ele>829</ele><time>2010-04-06T13:33:41Z</time></trkpt>
<trkpt lat="53.0750163000" lon="-3.9318222000"><ele>829</ele><time>2010-04-06T13:33:43Z</time></trkpt>
<trkpt lat="53.0750610000" lon="-3.9316637000"><ele>828</ele><time>2010-04-06T13:33:52Z</time></trkpt>
<trkpt lat="53.0750879000" lon="-3.9315012000"><ele>826</ele><time>2010-04-06T13:34:00Z</time></trkpt>
<trkpt lat="53.0751269000" lon="-3.9313535000"><ele>824</ele><time>2010-04-06T13:34:09Z</time></trkpt>
<trkpt lat="53.0751703000" lon="-3.9312874000"><ele>823</ele><time>2010-04-06T13:34:16Z</time></trkpt>
<trkpt lat="53.0752037000" lon="-3.9311889000"><ele>821</ele><time>2010-04-06T13:34:24Z</time></trkpt>
<trkpt lat="53.0752408000" lon="-3.9311552000"><ele>820</ele><time>2010-04-06T13:34:30Z</time></trkpt>
<trkpt lat="53.0752699000" lon="-3.9311020000"><ele>819</ele><time>2010-04-06T13:34:36Z</time></trkpt>
<trkpt lat="53.0753133000" lon="-3.9311267000"><ele>818</ele><time>2010-04-06T13:34:41Z</time></trkpt>
<trkpt lat="53.0753769000" lon="-3.9311568000"><ele>817</ele><time>2010-04-06T13:34:48Z</time></trkpt>
<trkpt lat="53.0754185000" lon="-3.9311465000"><ele>817</ele><time>2010-04-06T13:34:54Z</time></trkpt>
<trkpt lat="53.0754233000" lon="-3.9311551000"><ele>817</ele><time>2010-04-06T13:35:04Z</time></trkpt>
<trkpt lat="53.0754150000" lon="-3.9311932000"><ele>817</ele><time>2010-04-06T13:35:09Z</time></trkpt>
<trkpt lat="53.0754214000" lon="-3.9312386000"><ele>817</ele><time>2010-04-06T13:35:14Z</time></trkpt>
<trkpt lat="53.0754636000" lon="-3.9313284000"><ele>817</ele><time>2010-04-06T13:35:22Z</time></trkpt>
<trkpt lat="53.0755107000" lon="-3.9313677000"><ele>817</ele><time>2010-04-06T13:35:30Z</time></trkpt>
<trkpt lat="53.0755399000" lon="-3.9314037000"><ele>817</ele><time>2010-04-06T13:35:35Z</time></trkpt>
<trkpt lat="53.0755830000" lon="-3.9314315000"><ele>817</ele><time>2010-04-06T13:35:41Z</time></trkpt>
<trkpt lat="53.0756455000" lon="-3.9314211000"><ele>818</ele><time>2010-04-06T13:35:47Z</time></trkpt>
<trkpt lat="53.0756719000" lon="-3.9313625000"><ele>818</ele><time>2010-04-06T13:35:52Z</time></trkpt>
<trkpt lat="53.0757380000" lon="-3.9312852000"><ele>817</ele><time>2010-04-06T13:36:00Z</time></trkpt>
<trkpt lat="53.0757437000" lon="-3.9312754000"><ele>817</ele><time>2010-04-06T13:36:01Z</time></trkpt>
<trkpt lat="53.0758187000" lon="-3.9312138000"><ele>816</ele><time>2010-04-06T13:36:10Z</time></trkpt>
<trkpt lat="53.0758774000" lon="-3.9312164000"><ele>816</ele><time>2010-04-06T13:36:16Z</time></trkpt>
<trkpt lat="53.0758960000" lon="-3.9311967000"><ele>816</ele><time>2010-04-06T13:36:18Z</time></trkpt>
<trkpt lat="53.0759251000" lon="-3.9311139000"><ele>815</ele><time>2010-04-06T13:36:24Z</time></trkpt>
<trkpt lat="53.0759361000" lon="-3.9310167000"><ele>814</ele><time>2010-04-06T13:36:32Z</time></trkpt>
<trkpt lat="53.0759767000" lon="-3.9309909000"><ele>813</ele><time>2010-04-06T13:36:38Z</time></trkpt>
<trkpt lat="53.0759930000" lon="-3.9309656000"><ele>813</ele><time>2010-04-06T13:36:43Z</time></trkpt>
<trkpt lat="53.0760234000" lon="-3.9309318000"><ele>813</ele><time>2010-04-06T13:36:50Z</time></trkpt>
<trkpt lat="53.0760417000" lon="-3.9308657000"><ele>812</ele><time>2010-04-06T13:36:56Z</time></trkpt>
<trkpt lat="53.0760676000" lon="-3.9308574000"><ele>812</ele><time>2010-04-06T13:37:02Z</time></trkpt>
<trkpt lat="53.0761058000" lon="-3.9308408000"><ele>812</ele><time>2010-04-06T13:37:07Z</time></trkpt>
<trkpt lat="53.0761556000" lon="-3.9307593000"><ele>812</ele><time>2010-04-06T13:37:15Z</time></trkpt>
<trkpt lat="53.0761905000" lon="-3.9307516000"><ele>812</ele><time>2010-04-06T13:37:21Z</time></trkpt>
<trkpt lat="53.0762280000" lon="-3.9307341000"><ele>811</ele><time>2010-04-06T13:37:28Z</time></trkpt>
<trkpt lat="53.0762694000" lon="-3.9306673000"><ele>811</ele><time>2010-04-06T13:37:35Z</time></trkpt>
<trkpt lat="53.0763026000" lon="-3.9306472000"><ele>811</ele><time>2010-04-06T13:37:42Z</time></trkpt>
<trkpt lat="53.0763410000" lon="-3.9306170000"><ele>811</ele><time>2010-04-06T13:37:49Z</time></trkpt>
<trkpt lat="53.0763800000" lon="-3.9305362000"><ele>811</ele><time>2010-04-06T13:37:55Z</time></trkpt>
<trkpt lat="53.0763989000" lon="-3.9305118000"><ele>811</ele><time>2010-04-06T13:37:57Z</time></trkpt>
<trkpt lat="53.0764533000" lon="-3.9304236000"><ele>811</ele><time>2010-04-06T13:38:06Z</time></trkpt>
<trkpt lat="53.0764488000" lon="-3.9304223000"><ele>810</ele><time>2010-04-06T13:38:18Z</time></trkpt>
<trkpt lat="53.0764478000" lon="-3.9304205000"><ele>810</ele><time>2010-04-06T13:38:33Z</time></trkpt>
<trkpt lat="53.0764451000" lon="-3.9304255000"><ele>810</ele><time>2010-04-06T13:38:53Z</time></trkpt>
<trkpt lat="53.0764452000" lon="-3.9304144000"><ele>809</ele><time>2010-04-06T13:39:07Z</time></trkpt>
<trkpt lat="53.0764495000" lon="-3.9304092000"><ele>810</ele><time>2010-04-06T13:39:14Z</time></trkpt>
<trkpt lat="53.0764634000" lon="-3.9303828000"><ele>810</ele><time>2010-04-06T13:39:26Z</time></trkpt>
<trkpt lat="53.0765098000" lon="-3.9302607000"><ele>810</ele><time>2010-04-06T13:39:34Z</time></trkpt>
<trkpt lat="53.0765137000" lon="-3.9302472000"><ele>810</ele><time>2010-04-06T13:39:35Z</time></trkpt>
<trkpt lat="53.0765113000" lon="-3.9302155000"><ele>810</ele><time>2010-04-06T13:39:41Z</time></trkpt>
<trkpt lat="53.0765274000" lon="-3.9302197000"><ele>809</ele><time>2010-04-06T13:39:47Z</time></trkpt>
<trkpt lat="53.0765683000" lon="-3.9302253000"><ele>809</ele><time>2010-04-06T13:39:53Z</time></trkpt>
<trkpt lat="53.0765994000" lon="-3.9301534000"><ele>809</ele><time>2010-04-06T13:39:59Z</time></trkpt>
<trkpt lat="53.0766154000" lon="-3.9300965000"><ele>809</ele><time>2010-04-06T13:40:05Z</time></trkpt>
<trkpt lat="53.0766581000" lon="-3.9300540000"><ele>809</ele><time>2010-04-06T13:40:11Z</time></trkpt>
<trkpt lat="53.0766752000" lon="-3.9300159000"><ele>809</ele><time>2010-04-06T13:40:16Z</time></trkpt>
<trkpt lat="53.0767172000" lon="-3.9299587000"><ele>808</ele><time>2010-04-06T13:40:24Z</time></trkpt>
<trkpt lat="53.0767876000" lon="-3.9299269000"><ele>808</ele><time>2010-04-06T13:40:31Z</time></trkpt>
<trkpt lat="53.0767995000" lon="-3.9299177000"><ele>807</ele><time>2010-04-06T13:40:37Z</time></trkpt>
<trkpt lat="53.0768244000" lon="-3.9298996000"><ele>807</ele><time>2010-04-06T13:40:44Z</time></trkpt>
<trkpt lat="53.0768351000" lon="-3.9298835000"><ele>806</ele><time>2010-04-06T13:40:52Z</time></trkpt>
<trkpt lat="53.0768436000" lon="-3.9298732000"><ele>806</ele><time>2010-04-06T13:40:57Z</time></trkpt>
<trkpt lat="53.0768782000" lon="-3.9298587000"><ele>806</ele><time>2010-04-06T13:41:04Z</time></trkpt>
<trkpt lat="53.0769043000" lon="-3.9298358000"><ele>805</ele><time>2010-04-06T13:41:10Z</time></trkpt>
<trkpt lat="53.0769212000" lon="-3.9298352000"><ele>804</ele><time>2010-04-06T13:41:16Z</time></trkpt>
<trkpt lat="53.0769508000" lon="-3.9298141000"><ele>804</ele><time>2010-04-06T13:41:23Z</time></trkpt>
<trkpt lat="53.0769777000" lon="-3.9297892000"><ele>804</ele><time>2010-04-06T13:41:31Z</time></trkpt>
<trkpt lat="53.0770305000" lon="-3.9297502000"><ele>803</ele><time>2010-04-06T13:41:37Z</time></trkpt>
<trkpt lat="53.0770927000" lon="-3.9297344000"><ele>802</ele><time>2010-04-06T13:41:45Z</time></trkpt>
<trkpt lat="53.0771192000" lon="-3.9297421000"><ele>802</ele><time>2010-04-06T13:41:52Z</time></trkpt>
<trkpt lat="53.0771518000" lon="-3.9297500000"><ele>801</ele><time>2010-04-06T13:41:59Z</time></trkpt>
<trkpt lat="53.0771614000" lon="-3.9297633000"><ele>800</ele><time>2010-04-06T13:42:04Z</time></trkpt>
<trkpt lat="53.0771707000" lon="-3.9297722000"><ele>800</ele><time>2010-04-06T13:42:10Z</time></trkpt>
<trkpt lat="53.0771906000" lon="-3.9297971000"><ele>798</ele><time>2010-04-06T13:42:16Z</time></trkpt>
<trkpt lat="53.0772026000" lon="-3.9297463000"><ele>798</ele><time>2010-04-06T13:42:22Z</time></trkpt>
<trkpt lat="53.0772072000" lon="-3.9296878000"><ele>798</ele><time>2010-04-06T13:42:28Z</time></trkpt>
<trkpt lat="53.0772218000" lon="-3.9296323000"><ele>799</ele><time>2010-04-06T13:42:35Z</time></trkpt>
<trkpt lat="53.0772456000" lon="-3.9296120000"><ele>799</ele><time>2010-04-06T13:42:41Z</time></trkpt>
<trkpt lat="53.0772622000" lon="-3.9295945000"><ele>798</ele><time>2010-04-06T13:42:47Z</time></trkpt>
<trkpt lat="53.0772861000" lon="-3.9295449000"><ele>798</ele><time>2010-04-06T13:42:55Z</time></trkpt>
<trkpt lat="53.0773083000" lon="-3.9295224000"><ele>798</ele><time>2010-04-06T13:43:02Z</time></trkpt>
<trkpt lat="53.0773233000" lon="-3.9294967000"><ele>798</ele><time>2010-04-06T13:43:07Z</time></trkpt>
<trkpt lat="53.0773299000" lon="-3.9294847000"><ele>798</ele><time>2010-04-06T13:43:14Z</time></trkpt>
<trkpt lat="53.0773489000" lon="-3.9294500000"><ele>798</ele><time>2010-04-06T13:43:21Z</time></trkpt>
<trkpt lat="53.0773631000" lon="-3.9294691000"><ele>797</ele><time>2010-04-06T13:43:25Z</time></trkpt>
<trkpt lat="53.0773914000" lon="-3.9294763000"><ele>796</ele><time>2010-04-06T13:43:31Z</time></trkpt>
<trkpt lat="53.0774067000" lon="-3.9294917000"><ele>795</ele><time>2010-04-06T13:43:38Z</time></trkpt>
<trkpt lat="53.0774241000" lon="-3.9295080000"><ele>793</ele><time>2010-04-06T13:43:44Z</time></trkpt>
<trkpt lat="53.0774446000" lon="-3.9294874000"><ele>793</ele><time>2010-04-06T13:43:50Z</time></trkpt>
<trkpt lat="53.0774723000" lon="-3.9294495000"><ele>792</ele><time>2010-04-06T13:43:56Z</time></trkpt>
<trkpt lat="53.0774999000" lon="-3.9294244000"><ele>792</ele><time>2010-04-06T13:44:01Z</time></trkpt>
<trkpt lat="53.0775192000" lon="-3.9293842000"><ele>791</ele><time>2010-04-06T13:44:10Z</time></trkpt>
<trkpt lat="53.0775252000" lon="-3.9293773000"><ele>791</ele><time>2010-04-06T13:44:18Z</time></trkpt>
<trkpt lat="53.0775294000" lon="-3.9293411000"><ele>790</ele><time>2010-04-06T13:44:28Z</time></trkpt>
<trkpt lat="53.0775419000" lon="-3.9293022000"><ele>790</ele><time>2010-04-06T13:44:35Z</time></trkpt>
<trkpt lat="53.0775614000" lon="-3.9292534000"><ele>790</ele><time>2010-04-06T13:44:41Z</time></trkpt>
<trkpt lat="53.0775701000" lon="-3.9292381000"><ele>789</ele><time>2010-04-06T13:44:47Z</time></trkpt>
<trkpt lat="53.0775780000" lon="-3.9292500000"><ele>787</ele><time>2010-04-06T13:44:56Z</time></trkpt>
<trkpt lat="53.0775952000" lon="-3.9292581000"><ele>786</ele><time>2010-04-06T13:45:05Z</time></trkpt>
<trkpt lat="53.0776080000" lon="-3.9292557000"><ele>786</ele><time>2010-04-06T13:45:13Z</time></trkpt>
<trkpt lat="53.0776287000" lon="-3.9292334000"><ele>786</ele><time>2010-04-06T13:45:20Z</time></trkpt>
<trkpt lat="53.0776476000" lon="-3.9292251000"><ele>786</ele><time>2010-04-06T13:45:28Z</time></trkpt>
<trkpt lat="53.0776688000" lon="-3.9292356000"><ele>786</ele><time>2010-04-06T13:45:35Z</time></trkpt>
<trkpt lat="53.0776947000" lon="-3.9292168000"><ele>784</ele><time>2010-04-06T13:45:41Z</time></trkpt>
<trkpt lat="53.0777378000" lon="-3.9292013000"><ele>784</ele><time>2010-04-06T13:45:47Z</time></trkpt>
<trkpt lat="53.0777533000" lon="-3.9292211000"><ele>783</ele><time>2010-04-06T13:45:53Z</time></trkpt>
<trkpt lat="53.0777844000" lon="-3.9292061000"><ele>782</ele><time>2010-04-06T13:46:00Z</time></trkpt>
<trkpt lat="53.0777967000" lon="-3.9292294000"><ele>781</ele><time>2010-04-06T13:46:07Z</time></trkpt>
<trkpt lat="53.0777988000" lon="-3.9292514000"><ele>779</ele><time>2010-04-06T13:46:12Z</time></trkpt>
<trkpt lat="53.0778022000" lon="-3.9292566000"><ele>778</ele><time>2010-04-06T13:46:17Z</time></trkpt>
<trkpt lat="53.0778185000" lon="-3.9292633000"><ele>777</ele><time>2010-04-06T13:46:25Z</time></trkpt>
<trkpt lat="53.0778454000" lon="-3.9292687000"><ele>776</ele><time>2010-04-06T13:46:31Z</time></trkpt>
<trkpt lat="53.0779123000" lon="-3.9292325000"><ele>776</ele><time>2010-04-06T13:46:40Z</time></trkpt>
<trkpt lat="53.0779619000" lon="-3.9291950000"><ele>776</ele><time>2010-04-06T13:46:47Z</time></trkpt>
<trkpt lat="53.0780206000" lon="-3.9291397000"><ele>775</ele><time>2010-04-06T13:46:55Z</time></trkpt>
<trkpt lat="53.0780708000" lon="-3.9291203000"><ele>773</ele><time>2010-04-06T13:47:02Z</time></trkpt>
<trkpt lat="53.0781374000" lon="-3.9290703000"><ele>773</ele><time>2010-04-06T13:47:10Z</time></trkpt>
<trkpt lat="53.0782023000" lon="-3.9290680000"><ele>772</ele><time>2010-04-06T13:47:19Z</time></trkpt>
<trkpt lat="53.0782278000" lon="-3.9290351000"><ele>771</ele><time>2010-04-06T13:47:25Z</time></trkpt>
<trkpt lat="53.0782801000" lon="-3.9289538000"><ele>769</ele><time>2010-04-06T13:47:32Z</time></trkpt>
<trkpt lat="53.0783048000" lon="-3.9289165000"><ele>769</ele><time>2010-04-06T13:47:35Z</time></trkpt>
<trkpt lat="53.0783504000" lon="-3.9288463000"><ele>769</ele><time>2010-04-06T13:47:41Z</time></trkpt>
<trkpt lat="53.0783984000" lon="-3.9287500000"><ele>768</ele><time>2010-04-06T13:47:49Z</time></trkpt>
<trkpt lat="53.0784625000" lon="-3.9286336000"><ele>766</ele><time>2010-04-06T13:47:59Z</time></trkpt>
<trkpt lat="53.0785110000" lon="-3.9285642000"><ele>765</ele><time>2010-04-06T13:48:06Z</time></trkpt>
<trkpt lat="53.0785531000" lon="-3.9285490000"><ele>763</ele><time>2010-04-06T13:48:13Z</time></trkpt>
<trkpt lat="53.0786038000" lon="-3.9284678000"><ele>762</ele><time>2010-04-06T13:48:20Z</time></trkpt>
<trkpt lat="53.0786495000" lon="-3.9283635000"><ele>761</ele><time>2010-04-06T13:48:27Z</time></trkpt>
<trkpt lat="53.0786925000" lon="-3.9282765000"><ele>761</ele><time>2010-04-06T13:48:33Z</time></trkpt>
<trkpt lat="53.0787246000" lon="-3.9282358000"><ele>760</ele><time>2010-04-06T13:48:37Z</time></trkpt>
<trkpt lat="53.0787918000" lon="-3.9281630000"><ele>759</ele><time>2010-04-06T13:48:46Z</time></trkpt>
<trkpt lat="53.0788462000" lon="-3.9280715000"><ele>757</ele><time>2010-04-06T13:48:54Z</time></trkpt>
<trkpt lat="53.0788540000" lon="-3.9280582000"><ele>757</ele><time>2010-04-06T13:48:55Z</time></trkpt>
<trkpt lat="53.0789214000" lon="-3.9279633000"><ele>755</ele><time>2010-04-06T13:49:04Z</time></trkpt>
<trkpt lat="53.0789876000" lon="-3.9278991000"><ele>754</ele><time>2010-04-06T13:49:12Z</time></trkpt>
<trkpt lat="53.0790338000" lon="-3.9278204000"><ele>752</ele><time>2010-04-06T13:49:19Z</time></trkpt>
<trkpt lat="53.0790893000" lon="-3.9277950000"><ele>751</ele><time>2010-04-06T13:49:26Z</time></trkpt>
<trkpt lat="53.0791558000" lon="-3.9277447000"><ele>749</ele><time>2010-04-06T13:49:33Z</time></trkpt>
<trkpt lat="53.0792109000" lon="-3.9276473000"><ele>749</ele><time>2010-04-06T13:49:41Z</time></trkpt>
<trkpt lat="53.0792689000" lon="-3.9275510000"><ele>747</ele><time>2010-04-06T13:49:49Z</time></trkpt>
<trkpt lat="53.0793405000" lon="-3.9274370000"><ele>746</ele><time>2010-04-06T13:49:58Z</time></trkpt>
<trkpt lat="53.0793958000" lon="-3.9273415000"><ele>745</ele><time>2010-04-06T13:50:06Z</time></trkpt>
<trkpt lat="53.0794465000" lon="-3.9272463000"><ele>744</ele><time>2010-04-06T13:50:14Z</time></trkpt>
<trkpt lat="53.0795099000" lon="-3.9271427000"><ele>743</ele><time>2010-04-06T13:50:22Z</time></trkpt>
<trkpt lat="53.0795434000" lon="-3.9270458000"><ele>742</ele><time>2010-04-06T13:50:29Z</time></trkpt>
<trkpt lat="53.0795994000" lon="-3.9269405000"><ele>741</ele><time>2010-04-06T13:50:36Z</time></trkpt>
<trkpt lat="53.0796298000" lon="-3.9268921000"><ele>740</ele><time>2010-04-06T13:50:40Z</time></trkpt>
<trkpt lat="53.0797086000" lon="-3.9267838000"><ele>739</ele><time>2010-04-06T13:50:49Z</time></trkpt>
<trkpt lat="53.0797769000" lon="-3.9266522000"><ele>738</ele><time>2010-04-06T13:50:58Z</time></trkpt>
<trkpt lat="53.0798240000" lon="-3.9265710000"><ele>737</ele><time>2010-04-06T13:51:04Z</time></trkpt>
<trkpt lat="53.0798496000" lon="-3.9264880000"><ele>737</ele><time>2010-04-06T13:51:10Z</time></trkpt>
<trkpt lat="53.0798743000" lon="-3.9264596000"><ele>736</ele><time>2010-04-06T13:51:13Z</time></trkpt>
<trkpt lat="53.0799126000" lon="-3.9263988000"><ele>736</ele><time>2010-04-06T13:51:18Z</time></trkpt>
<trkpt lat="53.0799354000" lon="-3.9263347000"><ele>734</ele><time>2010-04-06T13:51:24Z</time></trkpt>
<trkpt lat="53.0799606000" lon="-3.9262850000"><ele>733</ele><time>2010-04-06T13:51:30Z</time></trkpt>
<trkpt lat="53.0799585000" lon="-3.9262764000"><ele>731</ele><time>2010-04-06T13:51:49Z</time></trkpt>
<trkpt lat="53.0800013000" lon="-3.9262239000"><ele>731</ele><time>2010-04-06T13:51:56Z</time></trkpt>
<trkpt lat="53.0800330000" lon="-3.9261818000"><ele>731</ele><time>2010-04-06T13:52:03Z</time></trkpt>
<trkpt lat="53.0800634000" lon="-3.9261117000"><ele>731</ele><time>2010-04-06T13:52:10Z</time></trkpt>
<trkpt lat="53.0800993000" lon="-3.9260538000"><ele>731</ele><time>2010-04-06T13:52:16Z</time></trkpt>
<trkpt lat="53.0801583000" lon="-3.9259710000"><ele>730</ele><time>2010-04-06T13:52:24Z</time></trkpt>
<trkpt lat="53.0801878000" lon="-3.9259234000"><ele>730</ele><time>2010-04-06T13:52:31Z</time></trkpt>
<trkpt lat="53.0801857000" lon="-3.9259066000"><ele>729</ele><time>2010-04-06T13:52:38Z</time></trkpt>
<trkpt lat="53.0802081000" lon="-3.9258502000"><ele>728</ele><time>2010-04-06T13:52:43Z</time></trkpt>
<trkpt lat="53.0802959000" lon="-3.9257405000"><ele>727</ele><time>2010-04-06T13:52:53Z</time></trkpt>
<trkpt lat="53.0803791000" lon="-3.9256369000"><ele>727</ele><time>2010-04-06T13:53:03Z</time></trkpt>
<trkpt lat="53.0804456000" lon="-3.9255240000"><ele>725</ele><time>2010-04-06T13:53:12Z</time></trkpt>
<trkpt lat="53.0805122000" lon="-3.9253898000"><ele>724</ele><time>2010-04-06T13:53:21Z</time></trkpt>
<trkpt lat="53.0806089000" lon="-3.9252421000"><ele>723</ele><time>2010-04-06T13:53:32Z</time></trkpt>
<trkpt lat="53.0806779000" lon="-3.9251246000"><ele>723</ele><time>2010-04-06T13:53:40Z</time></trkpt>
<trkpt lat="53.0807598000" lon="-3.9249832000"><ele>722</ele><time>2010-04-06T13:53:50Z</time></trkpt>
<trkpt lat="53.0808460000" lon="-3.9248488000"><ele>719</ele><time>2010-04-06T13:54:01Z</time></trkpt>
<trkpt lat="53.0809400000" lon="-3.9247024000"><ele>718</ele><time>2010-04-06T13:54:12Z</time></trkpt>
<trkpt lat="53.0809882000" lon="-3.9246175000"><ele>717</ele><time>2010-04-06T13:54:18Z</time></trkpt>
<trkpt lat="53.0809997000" lon="-3.9246105000"><ele>717</ele><time>2010-04-06T13:54:24Z</time></trkpt>
<trkpt lat="53.0810320000" lon="-3.9245417000"><ele>717</ele><time>2010-04-06T13:54:30Z</time></trkpt>
<trkpt lat="53.0810760000" lon="-3.9244293000"><ele>716</ele><time>2010-04-06T13:54:38Z</time></trkpt>
<trkpt lat="53.0810861000" lon="-3.9244010000"><ele>716</ele><time>2010-04-06T13:54:40Z</time></trkpt>
<trkpt lat="53.0811281000" lon="-3.9242614000"><ele>714</ele><time>2010-04-06T13:54:49Z</time></trkpt>
<trkpt lat="53.0811825000" lon="-3.9241177000"><ele>713</ele><time>2010-04-06T13:54:58Z</time></trkpt>
<trkpt lat="53.0812796000" lon="-3.9239193000"><ele>711</ele><time>2010-04-06T13:55:11Z</time></trkpt>
<trkpt lat="53.0813622000" lon="-3.9237591000"><ele>709</ele><time>2010-04-06T13:55:22Z</time></trkpt>
<trkpt lat="53.0814367000" lon="-3.9235768000"><ele>707</ele><time>2010-04-06T13:55:33Z</time></trkpt>
<trkpt lat="53.0815055000" lon="-3.9234404000"><ele>704</ele><time>2010-04-06T13:55:42Z</time></trkpt>
<trkpt lat="53.0815860000" lon="-3.9233269000"><ele>703</ele><time>2010-04-06T13:55:51Z</time></trkpt>
<trkpt lat="53.0816537000" lon="-3.9231849000"><ele>702</ele><time>2010-04-06T13:56:00Z</time></trkpt>
<trkpt lat="53.0817144000" lon="-3.9230224000"><ele>701</ele><time>2010-04-06T13:56:10Z</time></trkpt>
<trkpt lat="53.0817821000" lon="-3.9229266000"><ele>700</ele><time>2010-04-06T13:56:18Z</time></trkpt>
<trkpt lat="53.0818589000" lon="-3.9228605000"><ele>700</ele><time>2010-04-06T13:56:26Z</time></trkpt>
<trkpt lat="53.0819261000" lon="-3.9227489000"><ele>699</ele><time>2010-04-06T13:56:34Z</time></trkpt>
<trkpt lat="53.0820031000" lon="-3.9225843000"><ele>697</ele><time>2010-04-06T13:56:45Z</time></trkpt>
<trkpt lat="53.0820765000" lon="-3.9224729000"><ele>693</ele><time>2010-04-06T13:56:56Z</time></trkpt>
<trkpt lat="53.0820972000" lon="-3.9224468000"><ele>692</ele><time>2010-04-06T13:57:02Z</time></trkpt>
<trkpt lat="53.0821309000" lon="-3.9224289000"><ele>690</ele><time>2010-04-06T13:57:08Z</time></trkpt>
<trkpt lat="53.0821672000" lon="-3.9224294000"><ele>689</ele><time>2010-04-06T13:57:13Z</time></trkpt>
<trkpt lat="53.0822191000" lon="-3.9224158000"><ele>688</ele><time>2010-04-06T13:57:19Z</time></trkpt>
<trkpt lat="53.0822863000" lon="-3.9223433000"><ele>686</ele><time>2010-04-06T13:57:28Z</time></trkpt>
<trkpt lat="53.0823266000" lon="-3.9222879000"><ele>685</ele><time>2010-04-06T13:57:35Z</time></trkpt>
<trkpt lat="53.0823555000" lon="-3.9222365000"><ele>684</ele><time>2010-04-06T13:57:40Z</time></trkpt>
<trkpt lat="53.0823801000" lon="-3.9221842000"><ele>682</ele><time>2010-04-06T13:57:45Z</time></trkpt>
<trkpt lat="53.0824101000" lon="-3.9221720000"><ele>681</ele><time>2010-04-06T13:57:50Z</time></trkpt>
<trkpt lat="53.0824188000" lon="-3.9220502000"><ele>679</ele><time>2010-04-06T13:57:57Z</time></trkpt>
<trkpt lat="53.0824172000" lon="-3.9220301000"><ele>679</ele><time>2010-04-06T13:57:58Z</time></trkpt>
<trkpt lat="53.0824330000" lon="-3.9219150000"><ele>677</ele><time>2010-04-06T13:58:05Z</time></trkpt>
<trkpt lat="53.0824774000" lon="-3.9218657000"><ele>676</ele><time>2010-04-06T13:58:10Z</time></trkpt>
<trkpt lat="53.0825308000" lon="-3.9217783000"><ele>674</ele><time>2010-04-06T13:58:19Z</time></trkpt>
<trkpt lat="53.0825742000" lon="-3.9217016000"><ele>673</ele><time>2010-04-06T13:58:27Z</time></trkpt>
<trkpt lat="53.0826240000" lon="-3.9216259000"><ele>671</ele><time>2010-04-06T13:58:35Z</time></trkpt>
<trkpt lat="53.0826928000" lon="-3.9215814000"><ele>670</ele><time>2010-04-06T13:58:43Z</time></trkpt>
<trkpt lat="53.0827446000" lon="-3.9215056000"><ele>668</ele><time>2010-04-06T13:58:51Z</time></trkpt>
<trkpt lat="53.0827943000" lon="-3.9214330000"><ele>667</ele><time>2010-04-06T13:58:59Z</time></trkpt>
<trkpt lat="53.0828197000" lon="-3.9213566000"><ele>665</ele><time>2010-04-06T13:59:07Z</time></trkpt>
<trkpt lat="53.0828323000" lon="-3.9212903000"><ele>664</ele><time>2010-04-06T13:59:14Z</time></trkpt>
<trkpt lat="53.0828753000" lon="-3.9212243000"><ele>663</ele><time>2010-04-06T13:59:21Z</time></trkpt>
<trkpt lat="53.0829032000" lon="-3.9211787000"><ele>662</ele><time>2010-04-06T13:59:27Z</time></trkpt>
<trkpt lat="53.0829167000" lon="-3.9210819000"><ele>660</ele><time>2010-04-06T13:59:35Z</time></trkpt>
<trkpt lat="53.0829380000" lon="-3.9209950000"><ele>659</ele><time>2010-04-06T13:59:41Z</time></trkpt>
<trkpt lat="53.0829823000" lon="-3.9209457000"><ele>658</ele><time>2010-04-06T13:59:48Z</time></trkpt>
<trkpt lat="53.0830188000" lon="-3.9210203000"><ele>657</ele><time>2010-04-06T13:59:54Z</time></trkpt>
<trkpt lat="53.0830369000" lon="-3.9210862000"><ele>656</ele><time>2010-04-06T13:59:59Z</time></trkpt>
<trkpt lat="53.0830793000" lon="-3.9210965000"><ele>654</ele><time>2010-04-06T14:00:06Z</time></trkpt>
<trkpt lat="53.0830991000" lon="-3.9210255000"><ele>653</ele><time>2010-04-06T14:00:14Z</time></trkpt>
<trkpt lat="53.0831063000" lon="-3.9209739000"><ele>652</ele><time>2010-04-06T14:00:20Z</time></trkpt>
<trkpt lat="53.0831305000" lon="-3.9209783000"><ele>651</ele><time>2010-04-06T14:00:25Z</time></trkpt>
<trkpt lat="53.0831396000" lon="-3.9209546000"><ele>650</ele><time>2010-04-06T14:00:31Z</time></trkpt>
<trkpt lat="53.0831654000" lon="-3.9208992000"><ele>649</ele><time>2010-04-06T14:00:39Z</time></trkpt>
<trkpt lat="53.0831869000" lon="-3.9208809000"><ele>648</ele><time>2010-04-06T14:00:45Z</time></trkpt>
<trkpt lat="53.0831937000" lon="-3.9208686000"><ele>648</ele><time>2010-04-06T14:00:55Z</time></trkpt>
<trkpt lat="53.0832019000" lon="-3.9208712000"><ele>647</ele><time>2010-04-06T14:01:00Z</time></trkpt>
<trkpt lat="53.0832073000" lon="-3.9208720000"><ele>646</ele><time>2010-04-06T14:01:07Z</time></trkpt>
<trkpt lat="53.0832022000" lon="-3.9208759000"><ele>647</ele><time>2010-04-06T14:01:54Z</time></trkpt>
<trkpt lat="53.0832020000" lon="-3.9208763000"><ele>648</ele><time>2010-04-06T14:02:03Z</time></trkpt>
<trkpt lat="53.0831984000" lon="-3.9208475000"><ele>648</ele><time>2010-04-06T14:02:29Z</time></trkpt>
<trkpt lat="53.0832237000" lon="-3.9208474000"><ele>647</ele><time>2010-04-06T14:02:36Z</time></trkpt>
<trkpt lat="53.0832280000" lon="-3.9208219000"><ele>645</ele><time>2010-04-06T14:02:42Z</time></trkpt>
<trkpt lat="53.0832400000" lon="-3.9208034000"><ele>644</ele><time>2010-04-06T14:02:49Z</time></trkpt>
<trkpt lat="53.0832515000" lon="-3.9207742000"><ele>643</ele><time>2010-04-06T14:02:56Z</time></trkpt>
<trkpt lat="53.0832653000" lon="-3.9207645000"><ele>642</ele><time>2010-04-06T14:03:03Z</time></trkpt>
<trkpt lat="53.0832758000" lon="-3.9207588000"><ele>640</ele><time>2010-04-06T14:03:09Z</time></trkpt>
<trkpt lat="53.0832927000" lon="-3.9207480000"><ele>639</ele><time>2010-04-06T14:03:15Z</time></trkpt>
<trkpt lat="53.0833150000" lon="-3.9207503000"><ele>638</ele><time>2010-04-06T14:03:23Z</time></trkpt>
<trkpt lat="53.0833187000" lon="-3.9207255000"><ele>637</ele><time>2010-04-06T14:03:30Z</time></trkpt>
<trkpt lat="53.0833320000" lon="-3.9207008000"><ele>636</ele><time>2010-04-06T14:03:36Z</time></trkpt>
<trkpt lat="53.0833449000" lon="-3.9206790000"><ele>636</ele><time>2010-04-06T14:03:42Z</time></trkpt>
<trkpt lat="53.0833613000" lon="-3.9206796000"><ele>635</ele><time>2010-04-06T14:03:48Z</time></trkpt>
<trkpt lat="53.0833556000" lon="-3.9206671000"><ele>635</ele><time>2010-04-06T14:03:54Z</time></trkpt>
<trkpt lat="53.0833765000" lon="-3.9206696000"><ele>634</ele><time>2010-04-06T14:04:00Z</time></trkpt>
<trkpt lat="53.0833840000" lon="-3.9206503000"><ele>633</ele><time>2010-04-06T14:04:08Z</time></trkpt>
<trkpt lat="53.0833931000" lon="-3.9206173000"><ele>632</ele><time>2010-04-06T14:04:15Z</time></trkpt>
<trkpt lat="53.0833789000" lon="-3.9205996000"><ele>631</ele><time>2010-04-06T14:04:21Z</time></trkpt>
<trkpt lat="53.0833791000" lon="-3.9205843000"><ele>629</ele><time>2010-04-06T14:04:27Z</time></trkpt>
<trkpt lat="53.0833865000" lon="-3.9205711000"><ele>628</ele><time>2010-04-06T14:04:34Z</time></trkpt>
<trkpt lat="53.0834031000" lon="-3.9205670000"><ele>627</ele><time>2010-04-06T14:04:42Z</time></trkpt>
<trkpt lat="53.0834176000" lon="-3.9205560000"><ele>625</ele><time>2010-04-06T14:04:49Z</time></trkpt>
<trkpt lat="53.0834293000" lon="-3.9205379000"><ele>624</ele><time>2010-04-06T14:04:56Z</time></trkpt>
<trkpt lat="53.0834359000" lon="-3.9205186000"><ele>624</ele><time>2010-04-06T14:05:01Z</time></trkpt>
<trkpt lat="53.0834548000" lon="-3.9205154000"><ele>624</ele><time>2010-04-06T14:05:06Z</time></trkpt>
<trkpt lat="53.0834701000" lon="-3.9204930000"><ele>623</ele><time>2010-04-06T14:05:12Z</time></trkpt>
<trkpt lat="53.0834933000" lon="-3.9204915000"><ele>622</ele><time>2010-04-06T14:05:19Z</time></trkpt>
<trkpt lat="53.0835078000" lon="-3.9204920000"><ele>622</ele><time>2010-04-06T14:05:25Z</time></trkpt>
<trkpt lat="53.0835181000" lon="-3.9204962000"><ele>622</ele><time>2010-04-06T14:05:31Z</time></trkpt>
<trkpt lat="53.0835184000" lon="-3.9204766000"><ele>622</ele><time>2010-04-06T14:05:38Z</time></trkpt>
<trkpt lat="53.0835275000" lon="-3.9204501000"><ele>619</ele><time>2010-04-06T14:05:47Z</time></trkpt>
<trkpt lat="53.0835076000" lon="-3.9204341000"><ele>617</ele><time>2010-04-06T14:05:54Z</time></trkpt>
<trkpt lat="53.0835187000" lon="-3.9204169000"><ele>616</ele><time>2010-04-06T14:06:00Z</time></trkpt>
<trkpt lat="53.0835384000" lon="-3.9204225000"><ele>616</ele><time>2010-04-06T14:06:07Z</time></trkpt>
<trkpt lat="53.0835353000" lon="-3.9204070000"><ele>616</ele><time>2010-04-06T14:06:14Z</time></trkpt>
<trkpt lat="53.0835384000" lon="-3.9203950000"><ele>615</ele><time>2010-04-06T14:06:21Z</time></trkpt>
<trkpt lat="53.0835420000" lon="-3.9203522000"><ele>614</ele><time>2010-04-06T14:06:27Z</time></trkpt>
<trkpt lat="53.0835590000" lon="-3.9203428000"><ele>614</ele><time>2010-04-06T14:06:34Z</time></trkpt>
<trkpt lat="53.0835668000" lon="-3.9203158000"><ele>612</ele><time>2010-04-06T14:06:43Z</time></trkpt>
<trkpt lat="53.0835720000" lon="-3.9202801000"><ele>611</ele><time>2010-04-06T14:06:51Z</time></trkpt>
<trkpt lat="53.0835757000" lon="-3.9202190000"><ele>609</ele><time>2010-04-06T14:06:59Z</time></trkpt>
<trkpt lat="53.0835838000" lon="-3.9201663000"><ele>607</ele><time>2010-04-06T14:07:06Z</time></trkpt>
<trkpt lat="53.0835965000" lon="-3.9201346000"><ele>606</ele><time>2010-04-06T14:07:13Z</time></trkpt>
<trkpt lat="53.0836150000" lon="-3.9200912000"><ele>605</ele><time>2010-04-06T14:07:20Z</time></trkpt>
<trkpt lat="53.0836379000" lon="-3.9200212000"><ele>603</ele><time>2010-04-06T14:07:27Z</time></trkpt>
<trkpt lat="53.0836527000" lon="-3.9199113000"><ele>601</ele><time>2010-04-06T14:07:36Z</time></trkpt>
<trkpt lat="53.0836699000" lon="-3.9198518000"><ele>601</ele><time>2010-04-06T14:07:43Z</time></trkpt>
<trkpt lat="53.0836989000" lon="-3.9198279000"><ele>600</ele><time>2010-04-06T14:07:50Z</time></trkpt>
<trkpt lat="53.0837158000" lon="-3.9197838000"><ele>599</ele><time>2010-04-06T14:07:56Z</time></trkpt>
<trkpt lat="53.0837337000" lon="-3.9197376000"><ele>597</ele><time>2010-04-06T14:08:03Z</time></trkpt>
<trkpt lat="53.0837456000" lon="-3.9197272000"><ele>597</ele><time>2010-04-06T14:08:08Z</time></trkpt>
<trkpt lat="53.0837550000" lon="-3.9197176000"><ele>597</ele><time>2010-04-06T14:08:13Z</time></trkpt>
<trkpt lat="53.0837576000" lon="-3.9197105000"><ele>597</ele><time>2010-04-06T14:08:18Z</time></trkpt>
<trkpt lat="53.0837861000" lon="-3.9196886000"><ele>596</ele><time>2010-04-06T14:08:24Z</time></trkpt>
<trkpt lat="53.0837917000" lon="-3.9196746000"><ele>594</ele><time>2010-04-06T14:08:32Z</time></trkpt>
<trkpt lat="53.0838075000" lon="-3.9196625000"><ele>594</ele><time>2010-04-06T14:08:37Z</time></trkpt>
<trkpt lat="53.0838149000" lon="-3.9196086000"><ele>592</ele><time>2010-04-06T14:08:43Z</time></trkpt>
<trkpt lat="53.0838378000" lon="-3.9195672000"><ele>591</ele><time>2010-04-06T14:08:50Z</time></trkpt>
<trkpt lat="53.0838453000" lon="-3.9195254000"><ele>590</ele><time>2010-04-06T14:08:57Z</time></trkpt>
<trkpt lat="53.0838481000" lon="-3.9194998000"><ele>589</ele><time>2010-04-06T14:09:02Z</time></trkpt>
<trkpt lat="53.0838637000" lon="-3.9194772000"><ele>588</ele><time>2010-04-06T14:09:06Z</time></trkpt>
<trkpt lat="53.0838733000" lon="-3.9194599000"><ele>587</ele><time>2010-04-06T14:09:18Z</time></trkpt>
<trkpt lat="53.0838814000" lon="-3.9194435000"><ele>586</ele><time>2010-04-06T14:09:27Z</time></trkpt>
<trkpt lat="53.0838844000" lon="-3.9194182000"><ele>586</ele><time>2010-04-06T14:09:33Z</time></trkpt>
<trkpt lat="53.0838828000" lon="-3.9194140000"><ele>587</ele><time>2010-04-06T14:09:44Z</time></trkpt>
<trkpt lat="53.0838845000" lon="-3.9193739000"><ele>587</ele><time>2010-04-06T14:09:55Z</time></trkpt>
<trkpt lat="53.0838988000" lon="-3.9193452000"><ele>586</ele><time>2010-04-06T14:10:01Z</time></trkpt>
<trkpt lat="53.0838902000" lon="-3.9192902000"><ele>585</ele><time>2010-04-06T14:10:08Z</time></trkpt>
<trkpt lat="53.0838911000" lon="-3.9192496000"><ele>584</ele><time>2010-04-06T14:10:14Z</time></trkpt>
<trkpt lat="53.0839096000" lon="-3.9192353000"><ele>584</ele><time>2010-04-06T14:10:19Z</time></trkpt>
<trkpt lat="53.0839285000" lon="-3.9192203000"><ele>583</ele><time>2010-04-06T14:10:26Z</time></trkpt>
<trkpt lat="53.0839401000" lon="-3.9192073000"><ele>584</ele><time>2010-04-06T14:10:33Z</time></trkpt>
<trkpt lat="53.0839439000" lon="-3.9191855000"><ele>583</ele><time>2010-04-06T14:10:42Z</time></trkpt>
<trkpt lat="53.0839362000" lon="-3.9191790000"><ele>581</ele><time>2010-04-06T14:10:50Z</time></trkpt>
<trkpt lat="53.0839487000" lon="-3.9191740000"><ele>579</ele><time>2010-04-06T14:10:55Z</time></trkpt>
<trkpt lat="53.0839666000" lon="-3.9191530000"><ele>578</ele><time>2010-04-06T14:11:02Z</time></trkpt>
<trkpt lat="53.0839797000" lon="-3.9190580000"><ele>576</ele><time>2010-04-06T14:11:11Z</time></trkpt>
<trkpt lat="53.0839914000" lon="-3.9190307000"><ele>576</ele><time>2010-04-06T14:11:17Z</time></trkpt>
<trkpt lat="53.0840127000" lon="-3.9189991000"><ele>576</ele><time>2010-04-06T14:11:23Z</time></trkpt>
<trkpt lat="53.0840337000" lon="-3.9189586000"><ele>575</ele><time>2010-04-06T14:11:30Z</time></trkpt>
<trkpt lat="53.0840398000" lon="-3.9189198000"><ele>574</ele><time>2010-04-06T14:11:35Z</time></trkpt>
<trkpt lat="53.0840641000" lon="-3.9188944000"><ele>573</ele><time>2010-04-06T14:11:42Z</time></trkpt>
<trkpt lat="53.0840715000" lon="-3.9188727000"><ele>572</ele><time>2010-04-06T14:11:48Z</time></trkpt>
<trkpt lat="53.0840743000" lon="-3.9188385000"><ele>571</ele><time>2010-04-06T14:11:53Z</time></trkpt>
<trkpt lat="53.0840801000" lon="-3.9188011000"><ele>570</ele><time>2010-04-06T14:12:00Z</time></trkpt>
<trkpt lat="53.0840886000" lon="-3.9187945000"><ele>570</ele><time>2010-04-06T14:12:05Z</time></trkpt>
<trkpt lat="53.0841060000" lon="-3.9187874000"><ele>569</ele><time>2010-04-06T14:12:11Z</time></trkpt>
<trkpt lat="53.0841360000" lon="-3.9187806000"><ele>569</ele><time>2010-04-06T14:12:19Z</time></trkpt>
<trkpt lat="53.0841542000" lon="-3.9188034000"><ele>568</ele><time>2010-04-06T14:12:25Z</time></trkpt>
<trkpt lat="53.0841750000" lon="-3.9187544000"><ele>567</ele><time>2010-04-06T14:12:32Z</time></trkpt>
<trkpt lat="53.0841765000" lon="-3.9186743000"><ele>566</ele><time>2010-04-06T14:12:39Z</time></trkpt>
<trkpt lat="53.0842123000" lon="-3.9186070000"><ele>564</ele><time>2010-04-06T14:12:47Z</time></trkpt>
<trkpt lat="53.0842356000" lon="-3.9185506000"><ele>563</ele><time>2010-04-06T14:12:53Z</time></trkpt>
<trkpt lat="53.0842516000" lon="-3.9185246000"><ele>562</ele><time>2010-04-06T14:13:00Z</time></trkpt>
<trkpt lat="53.0842536000" lon="-3.9185044000"><ele>562</ele><time>2010-04-06T14:13:07Z</time></trkpt>
<trkpt lat="53.0842423000" lon="-3.9184485000"><ele>561</ele><time>2010-04-06T14:13:16Z</time></trkpt>
<trkpt lat="53.0842590000" lon="-3.9183775000"><ele>561</ele><time>2010-04-06T14:13:23Z</time></trkpt>
<trkpt lat="53.0842970000" lon="-3.9183041000"><ele>561</ele><time>2010-04-06T14:13:30Z</time></trkpt>
<trkpt lat="53.0843055000" lon="-3.9182896000"><ele>561</ele><time>2010-04-06T14:13:38Z</time></trkpt>
<trkpt lat="53.0843235000" lon="-3.9182662000"><ele>560</ele><time>2010-04-06T14:13:45Z</time></trkpt>
<trkpt lat="53.0843350000" lon="-3.9182392000"><ele>560</ele><time>2010-04-06T14:13:51Z</time></trkpt>
<trkpt lat="53.0843283000" lon="-3.9181993000"><ele>560</ele><time>2010-04-06T14:13:58Z</time></trkpt>
<trkpt lat="53.0843302000" lon="-3.9181683000"><ele>558</ele><time>2010-04-06T14:14:04Z</time></trkpt>
<trkpt lat="53.0843438000" lon="-3.9181489000"><ele>558</ele><time>2010-04-06T14:14:10Z</time></trkpt>
<trkpt lat="53.0843548000" lon="-3.9181349000"><ele>558</ele><time>2010-04-06T14:14:17Z</time></trkpt>
<trkpt lat="53.0843647000" lon="-3.9181028000"><ele>557</ele><time>2010-04-06T14:14:24Z</time></trkpt>
<trkpt lat="53.0843652000" lon="-3.9180978000"><ele>557</ele><time>2010-04-06T14:14:25Z</time></trkpt>
<trkpt lat="53.0843785000" lon="-3.9180482000"><ele>556</ele><time>2010-04-06T14:14:29Z</time></trkpt>
<trkpt lat="53.0844060000" lon="-3.9180179000"><ele>555</ele><time>2010-04-06T14:14:35Z</time></trkpt>
<trkpt lat="53.0844231000" lon="-3.9180209000"><ele>553</ele><time>2010-04-06T14:14:41Z</time></trkpt>
<trkpt lat="53.0844381000" lon="-3.9180280000"><ele>553</ele><time>2010-04-06T14:14:46Z</time></trkpt>
<trkpt lat="53.0844532000" lon="-3.9180230000"><ele>552</ele><time>2010-04-06T14:14:53Z</time></trkpt>
<trkpt lat="53.0844582000" lon="-3.9179895000"><ele>551</ele><time>2010-04-06T14:15:00Z</time></trkpt>
<trkpt lat="53.0844631000" lon="-3.9179613000"><ele>550</ele><time>2010-04-06T14:15:05Z</time></trkpt>
<trkpt lat="53.0844915000" lon="-3.9179547000"><ele>550</ele><time>2010-04-06T14:15:12Z</time></trkpt>
<trkpt lat="53.0844908000" lon="-3.9178894000"><ele>550</ele><time>2010-04-06T14:15:18Z</time></trkpt>
<trkpt lat="53.0844998000" lon="-3.9178496000"><ele>549</ele><time>2010-04-06T14:15:23Z</time></trkpt>
<trkpt lat="53.0845073000" lon="-3.9178112000"><ele>548</ele><time>2010-04-06T14:15:29Z</time></trkpt>
<trkpt lat="53.0845141000" lon="-3.9177966000"><ele>548</ele><time>2010-04-06T14:15:36Z</time></trkpt>
<trkpt lat="53.0845365000" lon="-3.9178205000"><ele>547</ele><time>2010-04-06T14:15:43Z</time></trkpt>
<trkpt lat="53.0845504000" lon="-3.9178484000"><ele>545</ele><time>2010-04-06T14:15:51Z</time></trkpt>
<trkpt lat="53.0845636000" lon="-3.9178461000"><ele>546</ele><time>2010-04-06T14:15:59Z</time></trkpt>
<trkpt lat="53.0845995000" lon="-3.9178572000"><ele>546</ele><time>2010-04-06T14:16:13Z</time></trkpt>
<trkpt lat="53.0846260000" lon="-3.9178184000"><ele>544</ele><time>2010-04-06T14:16:21Z</time></trkpt>
<trkpt lat="53.0846246000" lon="-3.9177184000"><ele>542</ele><time>2010-04-06T14:16:30Z</time></trkpt>
<trkpt lat="53.0846540000" lon="-3.9176382000"><ele>539</ele><time>2010-04-06T14:16:40Z</time></trkpt>
<trkpt lat="53.0846739000" lon="-3.9175744000"><ele>538</ele><time>2010-04-06T14:16:48Z</time></trkpt>
<trkpt lat="53.0846921000" lon="-3.9175232000"><ele>537</ele><time>2010-04-06T14:16:55Z</time></trkpt>
<trkpt lat="53.0847028000" lon="-3.9174931000"><ele>535</ele><time>2010-04-06T14:17:03Z</time></trkpt>
<trkpt lat="53.0847121000" lon="-3.9174539000"><ele>534</ele><time>2010-04-06T14:17:10Z</time></trkpt>
<trkpt lat="53.0847260000" lon="-3.9174307000"><ele>533</ele><time>2010-04-06T14:17:16Z</time></trkpt>
<trkpt lat="53.0847467000" lon="-3.9174216000"><ele>531</ele><time>2010-04-06T14:17:22Z</time></trkpt>
<trkpt lat="53.0847682000" lon="-3.9173849000"><ele>531</ele><time>2010-04-06T14:17:28Z</time></trkpt>
<trkpt lat="53.0848164000" lon="-3.9173442000"><ele>529</ele><time>2010-04-06T14:17:37Z</time></trkpt>
<trkpt lat="53.0848645000" lon="-3.9173239000"><ele>528</ele><time>2010-04-06T14:17:46Z</time></trkpt>
<trkpt lat="53.0849054000" lon="-3.9172489000"><ele>526</ele><time>2010-04-06T14:17:54Z</time></trkpt>
<trkpt lat="53.0849723000" lon="-3.9171856000"><ele>525</ele><time>2010-04-06T14:18:03Z</time></trkpt>
<trkpt lat="53.0850437000" lon="-3.9170944000"><ele>524</ele><time>2010-04-06T14:18:12Z</time></trkpt>
<trkpt lat="53.0850583000" lon="-3.9170705000"><ele>523</ele><time>2010-04-06T14:18:14Z</time></trkpt>
<trkpt lat="53.0851058000" lon="-3.9169249000"><ele>522</ele><time>2010-04-06T14:18:24Z</time></trkpt>
<trkpt lat="53.0851193000" lon="-3.9167761000"><ele>522</ele><time>2010-04-06T14:18:32Z</time></trkpt>
<trkpt lat="53.0851591000" lon="-3.9166198000"><ele>521</ele><time>2010-04-06T14:18:42Z</time></trkpt>
<trkpt lat="53.0851864000" lon="-3.9165070000"><ele>520</ele><time>2010-04-06T14:18:50Z</time></trkpt>
<trkpt lat="53.0852219000" lon="-3.9163999000"><ele>519</ele><time>2010-04-06T14:18:58Z</time></trkpt>
<trkpt lat="53.0852623000" lon="-3.9162336000"><ele>518</ele><time>2010-04-06T14:19:08Z</time></trkpt>
<trkpt lat="53.0853163000" lon="-3.9160561000"><ele>517</ele><time>2010-04-06T14:19:19Z</time></trkpt>
<trkpt lat="53.0853208000" lon="-3.9158817000"><ele>517</ele><time>2010-04-06T14:19:28Z</time></trkpt>
<trkpt lat="53.0853316000" lon="-3.9157497000"><ele>517</ele><time>2010-04-06T14:19:36Z</time></trkpt>
<trkpt lat="53.0853725000" lon="-3.9156777000"><ele>517</ele><time>2010-04-06T14:19:44Z</time></trkpt>
<trkpt lat="53.0854136000" lon="-3.9155937000"><ele>516</ele><time>2010-04-06T14:19:52Z</time></trkpt>
<trkpt lat="53.0854227000" lon="-3.9154622000"><ele>516</ele><time>2010-04-06T14:20:01Z</time></trkpt>
<trkpt lat="53.0854146000" lon="-3.9153124000"><ele>515</ele><time>2010-04-06T14:20:10Z</time></trkpt>
<trkpt lat="53.0854139000" lon="-3.9152958000"><ele>515</ele><time>2010-04-06T14:20:11Z</time></trkpt>
<trkpt lat="53.0854278000" lon="-3.9151782000"><ele>515</ele><time>2010-04-06T14:20:18Z</time></trkpt>
<trkpt lat="53.0854758000" lon="-3.9150824000"><ele>516</ele><time>2010-04-06T14:20:26Z</time></trkpt>
<trkpt lat="53.0855107000" lon="-3.9149673000"><ele>516</ele><time>2010-04-06T14:20:34Z</time></trkpt>
<trkpt lat="53.0855213000" lon="-3.9149188000"><ele>515</ele><time>2010-04-06T14:20:37Z</time></trkpt>
<trkpt lat="53.0855551000" lon="-3.9147863000"><ele>514</ele><time>2010-04-06T14:20:46Z</time></trkpt>
<trkpt lat="53.0855923000" lon="-3.9146561000"><ele>513</ele><time>2010-04-06T14:20:55Z</time></trkpt>
<trkpt lat="53.0856248000" lon="-3.9145644000"><ele>513</ele><time>2010-04-06T14:21:01Z</time></trkpt>
<trkpt lat="53.0856687000" lon="-3.9145133000"><ele>512</ele><time>2010-04-06T14:21:06Z</time></trkpt>
<trkpt lat="53.0856959000" lon="-3.9144338000"><ele>511</ele><time>2010-04-06T14:21:11Z</time></trkpt>
<trkpt lat="53.0857559000" lon="-3.9142928000"><ele>509</ele><time>2010-04-06T14:21:21Z</time></trkpt>
<trkpt lat="53.0857886000" lon="-3.9141859000"><ele>507</ele><time>2010-04-06T14:21:29Z</time></trkpt>
<trkpt lat="53.0858053000" lon="-3.9140602000"><ele>506</ele><time>2010-04-06T14:21:37Z</time></trkpt>
<trkpt lat="53.0858202000" lon="-3.9139937000"><ele>505</ele><time>2010-04-06T14:21:45Z</time></trkpt>
<trkpt lat="53.0858180000" lon="-3.9139200000"><ele>504</ele><time>2010-04-06T14:21:52Z</time></trkpt>
<trkpt lat="53.0858393000" lon="-3.9138331000"><ele>503</ele><time>2010-04-06T14:22:01Z</time></trkpt>
<trkpt lat="53.0858756000" lon="-3.9137947000"><ele>502</ele><time>2010-04-06T14:22:07Z</time></trkpt>
<trkpt lat="53.0858840000" lon="-3.9137007000"><ele>501</ele><time>2010-04-06T14:22:14Z</time></trkpt>
<trkpt lat="53.0859082000" lon="-3.9135984000"><ele>500</ele><time>2010-04-06T14:22:22Z</time></trkpt>
<trkpt lat="53.0859300000" lon="-3.9134747000"><ele>499</ele><time>2010-04-06T14:22:31Z</time></trkpt>
<trkpt lat="53.0859725000" lon="-3.9133968000"><ele>498</ele><time>2010-04-06T14:22:38Z</time></trkpt>
<trkpt lat="53.0860287000" lon="-3.9133191000"><ele>497</ele><time>2010-04-06T14:22:45Z</time></trkpt>
<trkpt lat="53.0861003000" lon="-3.9132545000"><ele>496</ele><time>2010-04-06T14:22:54Z</time></trkpt>
<trkpt lat="53.0861428000" lon="-3.9132244000"><ele>494</ele><time>2010-04-06T14:23:01Z</time></trkpt>
<trkpt lat="53.0861843000" lon="-3.9131859000"><ele>494</ele><time>2010-04-06T14:23:09Z</time></trkpt>
<trkpt lat="53.0862199000" lon="-3.9131160000"><ele>492</ele><time>2010-04-06T14:23:17Z</time></trkpt>
<trkpt lat="53.0862335000" lon="-3.9130729000"><ele>491</ele><time>2010-04-06T14:23:22Z</time></trkpt>
<trkpt lat="53.0862828000" lon="-3.9130136000"><ele>489</ele><time>2010-04-06T14:23:30Z</time></trkpt>
<trkpt lat="53.0863180000" lon="-3.9129481000"><ele>488</ele><time>2010-04-06T14:23:38Z</time></trkpt>
<trkpt lat="53.0863302000" lon="-3.9128686000"><ele>486</ele><time>2010-04-06T14:23:46Z</time></trkpt>
<trkpt lat="53.0863630000" lon="-3.9128141000"><ele>485</ele><time>2010-04-06T14:23:53Z</time></trkpt>
<trkpt lat="53.0863572000" lon="-3.9127466000"><ele>483</ele><time>2010-04-06T14:24:01Z</time></trkpt>
<trkpt lat="53.0863621000" lon="-3.9127026000"><ele>481</ele><time>2010-04-06T14:24:08Z</time></trkpt>
<trkpt lat="53.0863428000" lon="-3.9126575000"><ele>480</ele><time>2010-04-06T14:24:12Z</time></trkpt>
<trkpt lat="53.0863655000" lon="-3.9126248000"><ele>478</ele><time>2010-04-06T14:24:18Z</time></trkpt>
<trkpt lat="53.0863896000" lon="-3.9125883000"><ele>477</ele><time>2010-04-06T14:24:26Z</time></trkpt>
<trkpt lat="53.0863988000" lon="-3.9125334000"><ele>476</ele><time>2010-04-06T14:24:32Z</time></trkpt>
<trkpt lat="53.0864174000" lon="-3.9124748000"><ele>475</ele><time>2010-04-06T14:24:39Z</time></trkpt>
<trkpt lat="53.0864352000" lon="-3.9124366000"><ele>475</ele><time>2010-04-06T14:24:45Z</time></trkpt>
<trkpt lat="53.0864511000" lon="-3.9123886000"><ele>474</ele><time>2010-04-06T14:24:51Z</time></trkpt>
<trkpt lat="53.0864661000" lon="-3.9123386000"><ele>472</ele><time>2010-04-06T14:24:58Z</time></trkpt>
<trkpt lat="53.0864625000" lon="-3.9122905000"><ele>471</ele><time>2010-04-06T14:25:05Z</time></trkpt>
<trkpt lat="53.0864599000" lon="-3.9122470000"><ele>470</ele><time>2010-04-06T14:25:12Z</time></trkpt>
<trkpt lat="53.0864817000" lon="-3.9122153000"><ele>469</ele><time>2010-04-06T14:25:18Z</time></trkpt>
<trkpt lat="53.0865112000" lon="-3.9122017000"><ele>468</ele><time>2010-04-06T14:25:24Z</time></trkpt>
<trkpt lat="53.0865025000" lon="-3.9121765000"><ele>467</ele><time>2010-04-06T14:25:29Z</time></trkpt>
<trkpt lat="53.0865153000" lon="-3.9121366000"><ele>466</ele><time>2010-04-06T14:25:35Z</time></trkpt>
<trkpt lat="53.0865058000" lon="-3.9120763000"><ele>465</ele><time>2010-04-06T14:25:41Z</time></trkpt>
<trkpt lat="53.0865017000" lon="-3.9119967000"><ele>464</ele><time>2010-04-06T14:25:48Z</time></trkpt>
<trkpt lat="53.0865252000" lon="-3.9119542000"><ele>463</ele><time>2010-04-06T14:25:56Z</time></trkpt>
<trkpt lat="53.0865387000" lon="-3.9119365000"><ele>462</ele><time>2010-04-06T14:26:03Z</time></trkpt>
<trkpt lat="53.0865594000" lon="-3.9119070000"><ele>460</ele><time>2010-04-06T14:26:10Z</time></trkpt>
<trkpt lat="53.0865802000" lon="-3.9118849000"><ele>459</ele><time>2010-04-06T14:26:17Z</time></trkpt>
<trkpt lat="53.0865761000" lon="-3.9118547000"><ele>459</ele><time>2010-04-06T14:26:22Z</time></trkpt>
<trkpt lat="53.0865937000" lon="-3.9118521000"><ele>458</ele><time>2010-04-06T14:26:27Z</time></trkpt>
<trkpt lat="53.0866237000" lon="-3.9118600000"><ele>456</ele><time>2010-04-06T14:26:33Z</time></trkpt>
<trkpt lat="53.0866604000" lon="-3.9118822000"><ele>454</ele><time>2010-04-06T14:26:39Z</time></trkpt>
<trkpt lat="53.0866764000" lon="-3.9119072000"><ele>453</ele><time>2010-04-06T14:26:45Z</time></trkpt>
<trkpt lat="53.0866928000" lon="-3.9118941000"><ele>453</ele><time>2010-04-06T14:26:51Z</time></trkpt>
<trkpt lat="53.0867071000" lon="-3.9118696000"><ele>452</ele><time>2010-04-06T14:26:57Z</time></trkpt>
<trkpt lat="53.0867189000" lon="-3.9118443000"><ele>451</ele><time>2010-04-06T14:27:04Z</time></trkpt>
<trkpt lat="53.0867185000" lon="-3.9117940000"><ele>450</ele><time>2010-04-06T14:27:12Z</time></trkpt>
<trkpt lat="53.0867345000" lon="-3.9117538000"><ele>450</ele><time>2010-04-06T14:27:19Z</time></trkpt>
<trkpt lat="53.0867519000" lon="-3.9117205000"><ele>449</ele><time>2010-04-06T14:27:26Z</time></trkpt>
<trkpt lat="53.0867374000" lon="-3.9116008000"><ele>448</ele><time>2010-04-06T14:27:35Z</time></trkpt>
<trkpt lat="53.0866908000" lon="-3.9115356000"><ele>446</ele><time>2010-04-06T14:27:42Z</time></trkpt>
<trkpt lat="53.0866344000" lon="-3.9114381000"><ele>445</ele><time>2010-04-06T14:27:51Z</time></trkpt>
<trkpt lat="53.0866168000" lon="-3.9113775000"><ele>444</ele><time>2010-04-06T14:27:58Z</time></trkpt>
<trkpt lat="53.0866349000" lon="-3.9113097000"><ele>442</ele><time>2010-04-06T14:28:07Z</time></trkpt>
<trkpt lat="53.0866623000" lon="-3.9112750000"><ele>441</ele><time>2010-04-06T14:28:14Z</time></trkpt>
<trkpt lat="53.0866675000" lon="-3.9112424000"><ele>441</ele><time>2010-04-06T14:28:20Z</time></trkpt>
<trkpt lat="53.0866543000" lon="-3.9112139000"><ele>440</ele><time>2010-04-06T14:28:28Z</time></trkpt>
<trkpt lat="53.0867117000" lon="-3.9111871000"><ele>439</ele><time>2010-04-06T14:28:38Z</time></trkpt>
<trkpt lat="53.0867543000" lon="-3.9111544000"><ele>437</ele><time>2010-04-06T14:28:46Z</time></trkpt>
<trkpt lat="53.0867852000" lon="-3.9111369000"><ele>436</ele><time>2010-04-06T14:28:52Z</time></trkpt>
<trkpt lat="53.0868230000" lon="-3.9110964000"><ele>434</ele><time>2010-04-06T14:29:00Z</time></trkpt>
<trkpt lat="53.0868565000" lon="-3.9110741000"><ele>433</ele><time>2010-04-06T14:29:07Z</time></trkpt>
<trkpt lat="53.0868485000" lon="-3.9110276000"><ele>432</ele><time>2010-04-06T14:29:14Z</time></trkpt>
<trkpt lat="53.0868645000" lon="-3.9109917000"><ele>431</ele><time>2010-04-06T14:29:20Z</time></trkpt>
<trkpt lat="53.0868772000" lon="-3.9109511000"><ele>430</ele><time>2010-04-06T14:29:26Z</time></trkpt>
<trkpt lat="53.0869031000" lon="-3.9108979000"><ele>428</ele><time>2010-04-06T14:29:34Z</time></trkpt>
<trkpt lat="53.0869105000" lon="-3.9108327000"><ele>427</ele><time>2010-04-06T14:29:40Z</time></trkpt>
<trkpt lat="53.0869220000" lon="-3.9107602000"><ele>425</ele><time>2010-04-06T14:29:48Z</time></trkpt>
<trkpt lat="53.0869265000" lon="-3.9107128000"><ele>424</ele><time>2010-04-06T14:29:55Z</time></trkpt>
<trkpt lat="53.0869304000" lon="-3.9106474000"><ele>422</ele><time>2010-04-06T14:30:05Z</time></trkpt>
<trkpt lat="53.0869299000" lon="-3.9105991000"><ele>420</ele><time>2010-04-06T14:30:11Z</time></trkpt>
<trkpt lat="53.0869710000" lon="-3.9105530000"><ele>418</ele><time>2010-04-06T14:30:20Z</time></trkpt>
<trkpt lat="53.0869632000" lon="-3.9105072000"><ele>417</ele><time>2010-04-06T14:30:27Z</time></trkpt>
<trkpt lat="53.0869878000" lon="-3.9104914000"><ele>415</ele><time>2010-04-06T14:30:39Z</time></trkpt>
<trkpt lat="53.0870002000" lon="-3.9104793000"><ele>415</ele><time>2010-04-06T14:30:44Z</time></trkpt>
<trkpt lat="53.0869928000" lon="-3.9104640000"><ele>414</ele><time>2010-04-06T14:30:49Z</time></trkpt>
<trkpt lat="53.0869993000" lon="-3.9104483000"><ele>413</ele><time>2010-04-06T14:30:56Z</time></trkpt>
<trkpt lat="53.0870026000" lon="-3.9104029000"><ele>413</ele><time>2010-04-06T14:31:03Z</time></trkpt>
<trkpt lat="53.0870247000" lon="-3.9103999000"><ele>412</ele><time>2010-04-06T14:31:10Z</time></trkpt>
<trkpt lat="53.0870265000" lon="-3.9103792000"><ele>412</ele><time>2010-04-06T14:31:16Z</time></trkpt>
<trkpt lat="53.0870186000" lon="-3.9103339000"><ele>411</ele><time>2010-04-06T14:31:21Z</time></trkpt>
<trkpt lat="53.0870466000" lon="-3.9103162000"><ele>411</ele><time>2010-04-06T14:31:27Z</time></trkpt>
<trkpt lat="53.0870607000" lon="-3.9102623000"><ele>410</ele><time>2010-04-06T14:31:36Z</time></trkpt>
<trkpt lat="53.0870202000" lon="-3.9102380000"><ele>409</ele><time>2010-04-06T14:31:42Z</time></trkpt>
<trkpt lat="53.0869940000" lon="-3.9102028000"><ele>408</ele><time>2010-04-06T14:31:48Z</time></trkpt>
<trkpt lat="53.0870111000" lon="-3.9101922000"><ele>408</ele><time>2010-04-06T14:31:53Z</time></trkpt>
<trkpt lat="53.0870229000" lon="-3.9101929000"><ele>408</ele><time>2010-04-06T14:31:59Z</time></trkpt>
<trkpt lat="53.0870458000" lon="-3.9101777000"><ele>407</ele><time>2010-04-06T14:32:06Z</time></trkpt>
<trkpt lat="53.0870624000" lon="-3.9101561000"><ele>406</ele><time>2010-04-06T14:32:13Z</time></trkpt>
<trkpt lat="53.0870761000" lon="-3.9101257000"><ele>405</ele><time>2010-04-06T14:32:21Z</time></trkpt>
<trkpt lat="53.0870805000" lon="-3.9100852000"><ele>405</ele><time>2010-04-06T14:32:27Z</time></trkpt>
<trkpt lat="53.0870979000" lon="-3.9100587000"><ele>403</ele><time>2010-04-06T14:32:35Z</time></trkpt>
<trkpt lat="53.0871135000" lon="-3.9100282000"><ele>401</ele><time>2010-04-06T14:32:42Z</time></trkpt>
<trkpt lat="53.0871171000" lon="-3.9099873000"><ele>400</ele><time>2010-04-06T14:32:48Z</time></trkpt>
<trkpt lat="53.0871493000" lon="-3.9099592000"><ele>399</ele><time>2010-04-06T14:32:57Z</time></trkpt>
<trkpt lat="53.0871803000" lon="-3.9099364000"><ele>398</ele><time>2010-04-06T14:33:04Z</time></trkpt>
<trkpt lat="53.0871977000" lon="-3.9098802000"><ele>397</ele><time>2010-04-06T14:33:11Z</time></trkpt>
<trkpt lat="53.0872249000" lon="-3.9098118000"><ele>395</ele><time>2010-04-06T14:33:19Z</time></trkpt>
<trkpt lat="53.0872665000" lon="-3.9097814000"><ele>394</ele><time>2010-04-06T14:33:26Z</time></trkpt>
<trkpt lat="53.0872808000" lon="-3.9097175000"><ele>393</ele><time>2010-04-06T14:33:32Z</time></trkpt>
<trkpt lat="53.0873249000" lon="-3.9096610000"><ele>392</ele><time>2010-04-06T14:33:40Z</time></trkpt>
<trkpt lat="53.0873567000" lon="-3.9096041000"><ele>391</ele><time>2010-04-06T14:33:46Z</time></trkpt>
<trkpt lat="53.0874300000" lon="-3.9095487000"><ele>390</ele><time>2010-04-06T14:33:55Z</time></trkpt>
<trkpt lat="53.0874399000" lon="-3.9095009000"><ele>390</ele><time>2010-04-06T14:33:59Z</time></trkpt>
<trkpt lat="53.0874120000" lon="-3.9093631000"><ele>390</ele><time>2010-04-06T14:34:07Z</time></trkpt>
<trkpt lat="53.0873914000" lon="-3.9091803000"><ele>389</ele><time>2010-04-06T14:34:17Z</time></trkpt>
<trkpt lat="53.0873731000" lon="-3.9089984000"><ele>389</ele><time>2010-04-06T14:34:27Z</time></trkpt>
<trkpt lat="53.0873790000" lon="-3.9088328000"><ele>388</ele><time>2010-04-06T14:34:36Z</time></trkpt>
<trkpt lat="53.0873726000" lon="-3.9087125000"><ele>388</ele><time>2010-04-06T14:34:42Z</time></trkpt>
<trkpt lat="53.0874263000" lon="-3.9085793000"><ele>388</ele><time>2010-04-06T14:34:52Z</time></trkpt>
<trkpt lat="53.0874596000" lon="-3.9085042000"><ele>388</ele><time>2010-04-06T14:34:58Z</time></trkpt>
<trkpt lat="53.0874488000" lon="-3.9083820000"><ele>387</ele><time>2010-04-06T14:35:07Z</time></trkpt>
<trkpt lat="53.0874831000" lon="-3.9083056000"><ele>386</ele><time>2010-04-06T14:35:13Z</time></trkpt>
<trkpt lat="53.0875125000" lon="-3.9082499000"><ele>385</ele><time>2010-04-06T14:35:19Z</time></trkpt>
<trkpt lat="53.0875372000" lon="-3.9081380000"><ele>384</ele><time>2010-04-06T14:35:26Z</time></trkpt>
<trkpt lat="53.0875517000" lon="-3.9080914000"><ele>384</ele><time>2010-04-06T14:35:29Z</time></trkpt>
<trkpt lat="53.0875631000" lon="-3.9080152000"><ele>383</ele><time>2010-04-06T14:35:34Z</time></trkpt>
<trkpt lat="53.0876058000" lon="-3.9080010000"><ele>382</ele><time>2010-04-06T14:35:38Z</time></trkpt>
<trkpt lat="53.0876555000" lon="-3.9079716000"><ele>382</ele><time>2010-04-06T14:35:43Z</time></trkpt>
<trkpt lat="53.0876875000" lon="-3.9079794000"><ele>381</ele><time>2010-04-06T14:35:46Z</time></trkpt>
<trkpt lat="53.0877129000" lon="-3.9078908000"><ele>381</ele><time>2010-04-06T14:35:53Z</time></trkpt>
<trkpt lat="53.0877627000" lon="-3.9077791000"><ele>380</ele><time>2010-04-06T14:36:01Z</time></trkpt>
<trkpt lat="53.0877814000" lon="-3.9077638000"><ele>379</ele><time>2010-04-06T14:36:03Z</time></trkpt>
<trkpt lat="53.0878714000" lon="-3.9076994000"><ele>380</ele><time>2010-04-06T14:36:12Z</time></trkpt>
<trkpt lat="53.0879072000" lon="-3.9076231000"><ele>378</ele><time>2010-04-06T14:36:19Z</time></trkpt>
<trkpt lat="53.0879544000" lon="-3.9075573000"><ele>377</ele><time>2010-04-06T14:36:26Z</time></trkpt>
<trkpt lat="53.0879606000" lon="-3.9074499000"><ele>376</ele><time>2010-04-06T14:36:34Z</time></trkpt>
<trkpt lat="53.0879741000" lon="-3.9074427000"><ele>377</ele><time>2010-04-06T14:36:40Z</time></trkpt>
<trkpt lat="53.0879692000" lon="-3.9074081000"><ele>377</ele><time>2010-04-06T14:36:47Z</time></trkpt>
<trkpt lat="53.0880062000" lon="-3.9073718000"><ele>376</ele><time>2010-04-06T14:36:52Z</time></trkpt>
<trkpt lat="53.0880410000" lon="-3.9072694000"><ele>376</ele><time>2010-04-06T14:36:59Z</time></trkpt>
<trkpt lat="53.0880550000" lon="-3.9071404000"><ele>375</ele><time>2010-04-06T14:37:06Z</time></trkpt>
<trkpt lat="53.0880434000" lon="-3.9070730000"><ele>374</ele><time>2010-04-06T14:37:10Z</time></trkpt>
<trkpt lat="53.0880833000" lon="-3.9070107000"><ele>374</ele><time>2010-04-06T14:37:17Z</time></trkpt>
<trkpt lat="53.0881135000" lon="-3.9069621000"><ele>374</ele><time>2010-04-06T14:37:22Z</time></trkpt>
<trkpt lat="53.0881248000" lon="-3.9068777000"><ele>373</ele><time>2010-04-06T14:37:27Z</time></trkpt>
<trkpt lat="53.0881879000" lon="-3.9067341000"><ele>371</ele><time>2010-04-06T14:37:37Z</time></trkpt>
<trkpt lat="53.0882345000" lon="-3.9066811000"><ele>371</ele><time>2010-04-06T14:37:43Z</time></trkpt>
<trkpt lat="53.0882298000" lon="-3.9065779000"><ele>369</ele><time>2010-04-06T14:37:50Z</time></trkpt>
<trkpt lat="53.0881942000" lon="-3.9064544000"><ele>369</ele><time>2010-04-06T14:37:57Z</time></trkpt>
<trkpt lat="53.0882481000" lon="-3.9063488000"><ele>368</ele><time>2010-04-06T14:38:05Z</time></trkpt>
<trkpt lat="53.0882961000" lon="-3.9061980000"><ele>366</ele><time>2010-04-06T14:38:14Z</time></trkpt>
<trkpt lat="53.0883480000" lon="-3.9060169000"><ele>365</ele><time>2010-04-06T14:38:24Z</time></trkpt>
<trkpt lat="53.0884024000" lon="-3.9058256000"><ele>363</ele><time>2010-04-06T14:38:34Z</time></trkpt>
<trkpt lat="53.0884588000" lon="-3.9056412000"><ele>362</ele><time>2010-04-06T14:38:44Z</time></trkpt>
<trkpt lat="53.0885298000" lon="-3.9054511000"><ele>361</ele><time>2010-04-06T14:38:55Z</time></trkpt>
<trkpt lat="53.0886100000" lon="-3.9052761000"><ele>360</ele><time>2010-04-06T14:39:06Z</time></trkpt>
<trkpt lat="53.0886816000" lon="-3.9051527000"><ele>359</ele><time>2010-04-06T14:39:15Z</time></trkpt>
<trkpt lat="53.0887635000" lon="-3.9050289000"><ele>357</ele><time>2010-04-06T14:39:25Z</time></trkpt>
<trkpt lat="53.0888360000" lon="-3.9049137000"><ele>355</ele><time>2010-04-06T14:39:34Z</time></trkpt>
<trkpt lat="53.0889358000" lon="-3.9047342000"><ele>354</ele><time>2010-04-06T14:39:47Z</time></trkpt>
<trkpt lat="53.0890236000" lon="-3.9045817000"><ele>352</ele><time>2010-04-06T14:39:58Z</time></trkpt>
<trkpt lat="53.0890871000" lon="-3.9044213000"><ele>351</ele><time>2010-04-06T14:40:08Z</time></trkpt>
<trkpt lat="53.0891500000" lon="-3.9042886000"><ele>349</ele><time>2010-04-06T14:40:17Z</time></trkpt>
<trkpt lat="53.0892011000" lon="-3.9042077000"><ele>348</ele><time>2010-04-06T14:40:24Z</time></trkpt>
<trkpt lat="53.0892400000" lon="-3.9041100000"><ele>347</ele><time>2010-04-06T14:40:30Z</time></trkpt>
<trkpt lat="53.0893013000" lon="-3.9039934000"><ele>345</ele><time>2010-04-06T14:40:38Z</time></trkpt>
<trkpt lat="53.0893732000" lon="-3.9038379000"><ele>344</ele><time>2010-04-06T14:40:48Z</time></trkpt>
<trkpt lat="53.0894355000" lon="-3.9036637000"><ele>342</ele><time>2010-04-06T14:40:58Z</time></trkpt>
<trkpt lat="53.0894856000" lon="-3.9035349000"><ele>341</ele><time>2010-04-06T14:41:06Z</time></trkpt>
<trkpt lat="53.0895523000" lon="-3.9033552000"><ele>340</ele><time>2010-04-06T14:41:17Z</time></trkpt>
<trkpt lat="53.0896301000" lon="-3.9031816000"><ele>339</ele><time>2010-04-06T14:41:28Z</time></trkpt>
<trkpt lat="53.0896953000" lon="-3.9030188000"><ele>337</ele><time>2010-04-06T14:41:38Z</time></trkpt>
<trkpt lat="53.0897626000" lon="-3.9028523000"><ele>336</ele><time>2010-04-06T14:41:48Z</time></trkpt>
<trkpt lat="53.0898472000" lon="-3.9026602000"><ele>335</ele><time>2010-04-06T14:42:00Z</time></trkpt>
<trkpt lat="53.0899171000" lon="-3.9025058000"><ele>333</ele><time>2010-04-06T14:42:10Z</time></trkpt>
<trkpt lat="53.0899773000" lon="-3.9023673000"><ele>332</ele><time>2010-04-06T14:42:19Z</time></trkpt>
<trkpt lat="53.0900192000" lon="-3.9023073000"><ele>331</ele><time>2010-04-06T14:42:25Z</time></trkpt>
<trkpt lat="53.0901114000" lon="-3.9020994000"><ele>329</ele><time>2010-04-06T14:42:39Z</time></trkpt>
<trkpt lat="53.0901707000" lon="-3.9019629000"><ele>328</ele><time>2010-04-06T14:42:48Z</time></trkpt>
<trkpt lat="53.0902220000" lon="-3.9018141000"><ele>326</ele><time>2010-04-06T14:42:58Z</time></trkpt>
<trkpt lat="53.0902708000" lon="-3.9016950000"><ele>326</ele><time>2010-04-06T14:43:07Z</time></trkpt>
<trkpt lat="53.0903263000" lon="-3.9015572000"><ele>324</ele><time>2010-04-06T14:43:16Z</time></trkpt>
<trkpt lat="53.0903983000" lon="-3.9013899000"><ele>323</ele><time>2010-04-06T14:43:27Z</time></trkpt>
<trkpt lat="53.0904532000" lon="-3.9012483000"><ele>322</ele><time>2010-04-06T14:43:36Z</time></trkpt>
<trkpt lat="53.0905139000" lon="-3.9010717000"><ele>321</ele><time>2010-04-06T14:43:47Z</time></trkpt>
<trkpt lat="53.0905825000" lon="-3.9009003000"><ele>320</ele><time>2010-04-06T14:43:58Z</time></trkpt>
<trkpt lat="53.0906003000" lon="-3.9008523000"><ele>320</ele><time>2010-04-06T14:44:01Z</time></trkpt>
<trkpt lat="53.0906133000" lon="-3.9007951000"><ele>320</ele><time>2010-04-06T14:44:05Z</time></trkpt>
<trkpt lat="53.0906766000" lon="-3.9006388000"><ele>318</ele><time>2010-04-06T14:44:16Z</time></trkpt>
<trkpt lat="53.0907169000" lon="-3.9005549000"><ele>317</ele><time>2010-04-06T14:44:24Z</time></trkpt>
<trkpt lat="53.0907392000" lon="-3.9005137000"><ele>317</ele><time>2010-04-06T14:44:32Z</time></trkpt>
<trkpt lat="53.0907400000" lon="-3.9005042000"><ele>318</ele><time>2010-04-06T14:44:39Z</time></trkpt>
<trkpt lat="53.0907380000" lon="-3.9004655000"><ele>317</ele><time>2010-04-06T14:44:46Z</time></trkpt>
<trkpt lat="53.0907517000" lon="-3.9003891000"><ele>317</ele><time>2010-04-06T14:44:52Z</time></trkpt>
<trkpt lat="53.0907749000" lon="-3.9002797000"><ele>316</ele><time>2010-04-06T14:44:59Z</time></trkpt>
<trkpt lat="53.0908214000" lon="-3.9000740000"><ele>314</ele><time>2010-04-06T14:45:11Z</time></trkpt>
<trkpt lat="53.0908761000" lon="-3.8998720000"><ele>313</ele><time>2010-04-06T14:45:23Z</time></trkpt>
<trkpt lat="53.0909173000" lon="-3.8997136000"><ele>311</ele><time>2010-04-06T14:45:32Z</time></trkpt>
<trkpt lat="53.0909607000" lon="-3.8995345000"><ele>310</ele><time>2010-04-06T14:45:42Z</time></trkpt>
<trkpt lat="53.0910021000" lon="-3.8993432000"><ele>308</ele><time>2010-04-06T14:45:53Z</time></trkpt>
<trkpt lat="53.0910427000" lon="-3.8991856000"><ele>306</ele><time>2010-04-06T14:46:02Z</time></trkpt>
<trkpt lat="53.0910814000" lon="-3.8990475000"><ele>305</ele><time>2010-04-06T14:46:10Z</time></trkpt>
<trkpt lat="53.0911061000" lon="-3.8989277000"><ele>304</ele><time>2010-04-06T14:46:17Z</time></trkpt>
<trkpt lat="53.0911463000" lon="-3.8987500000"><ele>302</ele><time>2010-04-06T14:46:27Z</time></trkpt>
<trkpt lat="53.0911899000" lon="-3.8986051000"><ele>301</ele><time>2010-04-06T14:46:36Z</time></trkpt>
<trkpt lat="53.0912437000" lon="-3.8984051000"><ele>300</ele><time>2010-04-06T14:46:48Z</time></trkpt>
<trkpt lat="53.0912851000" lon="-3.8982294000"><ele>298</ele><time>2010-04-06T14:46:58Z</time></trkpt>
<trkpt lat="53.0913278000" lon="-3.8980509000"><ele>297</ele><time>2010-04-06T14:47:08Z</time></trkpt>
<trkpt lat="53.0913663000" lon="-3.8978897000"><ele>295</ele><time>2010-04-06T14:47:17Z</time></trkpt>
<trkpt lat="53.0914129000" lon="-3.8977353000"><ele>295</ele><time>2010-04-06T14:47:26Z</time></trkpt>
<trkpt lat="53.0914658000" lon="-3.8975999000"><ele>293</ele><time>2010-04-06T14:47:35Z</time></trkpt>
<trkpt lat="53.0915443000" lon="-3.8974231000"><ele>291</ele><time>2010-04-06T14:47:48Z</time></trkpt>
<trkpt lat="53.0916241000" lon="-3.8973054000"><ele>290</ele><time>2010-04-06T14:47:58Z</time></trkpt>
<trkpt lat="53.0917494000" lon="-3.8972321000"><ele>289</ele><time>2010-04-06T14:48:10Z</time></trkpt>
<trkpt lat="53.0918874000" lon="-3.8971812000"><ele>287</ele><time>2010-04-06T14:48:23Z</time></trkpt>
<trkpt lat="53.0920026000" lon="-3.8971301000"><ele>286</ele><time>2010-04-06T14:48:34Z</time></trkpt>
<trkpt lat="53.0921412000" lon="-3.8970686000"><ele>284</ele><time>2010-04-06T14:48:47Z</time></trkpt>
<trkpt lat="53.0922061000" lon="-3.8970235000"><ele>283</ele><time>2010-04-06T14:48:55Z</time></trkpt>
<trkpt lat="53.0922283000" lon="-3.8969858000"><ele>282</ele><time>2010-04-06T14:49:03Z</time></trkpt>
<trkpt lat="53.0922829000" lon="-3.8968438000"><ele>280</ele><time>2010-04-06T14:49:13Z</time></trkpt>
<trkpt lat="53.0923387000" lon="-3.8966470000"><ele>277</ele><time>2010-04-06T14:49:25Z</time></trkpt>
<trkpt lat="53.0923941000" lon="-3.8965041000"><ele>275</ele><time>2010-04-06T14:49:36Z</time></trkpt>
<trkpt lat="53.0924552000" lon="-3.8963555000"><ele>272</ele><time>2010-04-06T14:49:48Z</time></trkpt>
<trkpt lat="53.0925135000" lon="-3.8962444000"><ele>270</ele><time>2010-04-06T14:49:59Z</time></trkpt>
<trkpt lat="53.0925807000" lon="-3.8961280000"><ele>267</ele><time>2010-04-06T14:50:11Z</time></trkpt>
<trkpt lat="53.0926361000" lon="-3.8960269000"><ele>265</ele><time>2010-04-06T14:50:21Z</time></trkpt>
<trkpt lat="53.0926946000" lon="-3.8959554000"><ele>264</ele><time>2010-04-06T14:50:30Z</time></trkpt>
<trkpt lat="53.0927480000" lon="-3.8959144000"><ele>263</ele><time>2010-04-06T14:50:37Z</time></trkpt>
<trkpt lat="53.0928295000" lon="-3.8958623000"><ele>262</ele><time>2010-04-06T14:50:47Z</time></trkpt>
<trkpt lat="53.0929133000" lon="-3.8958373000"><ele>261</ele><time>2010-04-06T14:50:58Z</time></trkpt>
<trkpt lat="53.0929205000" lon="-3.8958488000"><ele>261</ele><time>2010-04-06T14:51:04Z</time></trkpt>
<trkpt lat="53.0929308000" lon="-3.8958377000"><ele>262</ele><time>2010-04-06T14:51:14Z</time></trkpt>
<trkpt lat="53.0929633000" lon="-3.8957849000"><ele>262</ele><time>2010-04-06T14:51:20Z</time></trkpt>
<trkpt lat="53.0930448000" lon="-3.8957094000"><ele>260</ele><time>2010-04-06T14:51:30Z</time></trkpt>
<trkpt lat="53.0931324000" lon="-3.8956275000"><ele>259</ele><time>2010-04-06T14:51:41Z</time></trkpt>
<trkpt lat="53.0931997000" lon="-3.8955426000"><ele>258</ele><time>2010-04-06T14:51:49Z</time></trkpt>
<trkpt lat="53.0932749000" lon="-3.8954224000"><ele>256</ele><time>2010-04-06T14:51:59Z</time></trkpt>
<trkpt lat="53.0933008000" lon="-3.8952744000"><ele>253</ele><time>2010-04-06T14:52:09Z</time></trkpt>
<trkpt lat="53.0932945000" lon="-3.8952062000"><ele>253</ele><time>2010-04-06T14:52:13Z</time></trkpt>
<trkpt lat="53.0932605000" lon="-3.8949930000"><ele>253</ele><time>2010-04-06T14:52:25Z</time></trkpt>
<trkpt lat="53.0932001000" lon="-3.8949008000"><ele>252</ele><time>2010-04-06T14:52:32Z</time></trkpt>
<trkpt lat="53.0931954000" lon="-3.8948850000"><ele>253</ele><time>2010-04-06T14:52:40Z</time></trkpt>
<trkpt lat="53.0931768000" lon="-3.8948571000"><ele>252</ele><time>2010-04-06T14:52:45Z</time></trkpt>
<trkpt lat="53.0930893000" lon="-3.8947242000"><ele>251</ele><time>2010-04-06T14:52:55Z</time></trkpt>
<trkpt lat="53.0929894000" lon="-3.8946962000"><ele>249</ele><time>2010-04-06T14:53:05Z</time></trkpt>
<trkpt lat="53.0929266000" lon="-3.8946837000"><ele>249</ele><time>2010-04-06T14:53:11Z</time></trkpt>
<trkpt lat="53.0929185000" lon="-3.8946242000"><ele>248</ele><time>2010-04-06T14:53:15Z</time></trkpt>
<trkpt lat="53.0929551000" lon="-3.8944925000"><ele>246</ele><time>2010-04-06T14:53:25Z</time></trkpt>
<trkpt lat="53.0929115000" lon="-3.8943910000"><ele>243</ele><time>2010-04-06T14:53:34Z</time></trkpt>
<trkpt lat="53.0928499000" lon="-3.8943031000"><ele>241</ele><time>2010-04-06T14:53:42Z</time></trkpt>
<trkpt lat="53.0928325000" lon="-3.8941791000"><ele>239</ele><time>2010-04-06T14:53:50Z</time></trkpt>
<trkpt lat="53.0928977000" lon="-3.8940673000"><ele>237</ele><time>2010-04-06T14:53:59Z</time></trkpt>
<trkpt lat="53.0930045000" lon="-3.8940624000"><ele>236</ele><time>2010-04-06T14:54:08Z</time></trkpt>
<trkpt lat="53.0930810000" lon="-3.8940458000"><ele>234</ele><time>2010-04-06T14:54:15Z</time></trkpt>
<trkpt lat="53.0930889000" lon="-3.8940367000"><ele>234</ele><time>2010-04-06T14:54:16Z</time></trkpt>
<trkpt lat="53.0931361000" lon="-3.8939388000"><ele>232</ele><time>2010-04-06T14:54:25Z</time></trkpt>
<trkpt lat="53.0931799000" lon="-3.8938643000"><ele>230</ele><time>2010-04-06T14:54:33Z</time></trkpt>
<trkpt lat="53.0932281000" lon="-3.8938014000"><ele>228</ele><time>2010-04-06T14:54:40Z</time></trkpt>
<trkpt lat="53.0932868000" lon="-3.8937050000"><ele>227</ele><time>2010-04-06T14:54:49Z</time></trkpt>
<trkpt lat="53.0933451000" lon="-3.8936228000"><ele>224</ele><time>2010-04-06T14:54:58Z</time></trkpt>
<trkpt lat="53.0933981000" lon="-3.8934933000"><ele>221</ele><time>2010-04-06T14:55:08Z</time></trkpt>
<trkpt lat="53.0934246000" lon="-3.8934582000"><ele>223</ele><time>2010-04-06T14:55:11Z</time></trkpt>
<trkpt lat="53.0934997000" lon="-3.8934338000"><ele>221</ele><time>2010-04-06T14:55:19Z</time></trkpt>
<trkpt lat="53.0935352000" lon="-3.8933743000"><ele>219</ele><time>2010-04-06T14:55:25Z</time></trkpt>
<trkpt lat="53.0936250000" lon="-3.8932914000"><ele>217</ele><time>2010-04-06T14:55:36Z</time></trkpt>
<trkpt lat="53.0937105000" lon="-3.8931989000"><ele>214</ele><time>2010-04-06T14:55:47Z</time></trkpt>
<trkpt lat="53.0937652000" lon="-3.8931178000"><ele>212</ele><time>2010-04-06T14:55:55Z</time></trkpt>
<trkpt lat="53.0937683000" lon="-3.8930959000"><ele>212</ele><time>2010-04-06T14:55:56Z</time></trkpt>
<trkpt lat="53.0938063000" lon="-3.8930195000"><ele>212</ele><time>2010-04-06T14:56:02Z</time></trkpt>
<trkpt lat="53.0938344000" lon="-3.8929860000"><ele>211</ele><time>2010-04-06T14:56:06Z</time></trkpt>
<trkpt lat="53.0939066000" lon="-3.8928842000"><ele>209</ele><time>2010-04-06T14:56:16Z</time></trkpt>
<trkpt lat="53.0939683000" lon="-3.8928438000"><ele>206</ele><time>2010-04-06T14:56:24Z</time></trkpt>
<trkpt lat="53.0940001000" lon="-3.8927957000"><ele>207</ele><time>2010-04-06T14:56:30Z</time></trkpt>
<trkpt lat="53.0940866000" lon="-3.8927547000"><ele>212</ele><time>2010-04-06T14:56:39Z</time></trkpt>
<trkpt lat="53.0941626000" lon="-3.8927029000"><ele>214</ele><time>2010-04-06T14:56:48Z</time></trkpt>
<trkpt lat="53.0942233000" lon="-3.8927100000"><ele>211</ele><time>2010-04-06T14:56:53Z</time></trkpt>
<trkpt lat="53.0942719000" lon="-3.8927099000"><ele>207</ele><time>2010-04-06T14:56:58Z</time></trkpt>
<trkpt lat="53.0943430000" lon="-3.8926925000"><ele>202</ele><time>2010-04-06T14:57:06Z</time></trkpt>
<trkpt lat="53.0944088000" lon="-3.8926512000"><ele>201</ele><time>2010-04-06T14:57:14Z</time></trkpt>
<trkpt lat="53.0945119000" lon="-3.8926144000"><ele>201</ele><time>2010-04-06T14:57:23Z</time></trkpt>
<trkpt lat="53.0945894000" lon="-3.8925991000"><ele>199</ele><time>2010-04-06T14:57:30Z</time></trkpt>
<trkpt lat="53.0946800000" lon="-3.8925987000"><ele>198</ele><time>2010-04-06T14:57:37Z</time></trkpt>
<trkpt lat="53.0947548000" lon="-3.8925571000"><ele>195</ele><time>2010-04-06T14:57:45Z</time></trkpt>
<trkpt lat="53.0948149000" lon="-3.8924567000"><ele>196</ele><time>2010-04-06T14:57:52Z</time></trkpt>
<trkpt lat="53.0948768000" lon="-3.8924305000"><ele>193</ele><time>2010-04-06T14:57:59Z</time></trkpt>
<trkpt lat="53.0949106000" lon="-3.8924038000"><ele>194</ele><time>2010-04-06T14:58:03Z</time></trkpt>
<trkpt lat="53.0949595000" lon="-3.8923434000"><ele>197</ele><time>2010-04-06T14:58:09Z</time></trkpt>
<trkpt lat="53.0950240000" lon="-3.8922315000"><ele>198</ele><time>2010-04-06T14:58:18Z</time></trkpt>
<trkpt lat="53.0950584000" lon="-3.8921687000"><ele>197</ele><time>2010-04-06T14:58:23Z</time></trkpt>
<trkpt lat="53.0951020000" lon="-3.8921124000"><ele>195</ele><time>2010-04-06T14:58:30Z</time></trkpt>
<trkpt lat="53.0951458000" lon="-3.8920693000"><ele>196</ele><time>2010-04-06T14:58:35Z</time></trkpt>
<trkpt lat="53.0951940000" lon="-3.8920370000"><ele>189</ele><time>2010-04-06T14:58:41Z</time></trkpt>
<trkpt lat="53.0952458000" lon="-3.8920342000"><ele>186</ele><time>2010-04-06T14:58:45Z</time></trkpt>
<trkpt lat="53.0953094000" lon="-3.8919972000"><ele>184</ele><time>2010-04-06T14:58:51Z</time></trkpt>
<trkpt lat="53.0954184000" lon="-3.8919024000"><ele>182</ele><time>2010-04-06T14:59:02Z</time></trkpt>
<trkpt lat="53.0955541000" lon="-3.8918034000"><ele>183</ele><time>2010-04-06T14:59:15Z</time></trkpt>
<trkpt lat="53.0956271000" lon="-3.8917351000"><ele>184</ele><time>2010-04-06T14:59:23Z</time></trkpt>
<trkpt lat="53.0956601000" lon="-3.8917430000"><ele>183</ele><time>2010-04-06T14:59:27Z</time></trkpt>
<trkpt lat="53.0957090000" lon="-3.8917076000"><ele>183</ele><time>2010-04-06T14:59:34Z</time></trkpt>
<trkpt lat="53.0957251000" lon="-3.8916887000"><ele>183</ele><time>2010-04-06T14:59:36Z</time></trkpt>
<trkpt lat="53.0957949000" lon="-3.8916694000"><ele>177</ele><time>2010-04-06T14:59:44Z</time></trkpt>
<trkpt lat="53.0958706000" lon="-3.8915732000"><ele>178</ele><time>2010-04-06T14:59:52Z</time></trkpt>
<trkpt lat="53.0959642000" lon="-3.8915115000"><ele>178</ele><time>2010-04-06T15:00:01Z</time></trkpt>
<trkpt lat="53.0960010000" lon="-3.8914591000"><ele>174</ele><time>2010-04-06T15:00:07Z</time></trkpt>
<trkpt lat="53.0960617000" lon="-3.8914467000"><ele>173</ele><time>2010-04-06T15:00:13Z</time></trkpt>
<trkpt lat="53.0961281000" lon="-3.8914620000"><ele>171</ele><time>2010-04-06T15:00:21Z</time></trkpt>
<trkpt lat="53.0962201000" lon="-3.8915052000"><ele>170</ele><time>2010-04-06T15:00:29Z</time></trkpt>
<trkpt lat="53.0963621000" lon="-3.8915768000"><ele>175</ele><time>2010-04-06T15:00:38Z</time></trkpt>
<trkpt lat="53.0965263000" lon="-3.8916584000"><ele>179</ele><time>2010-04-06T15:00:49Z</time></trkpt>
<trkpt lat="53.0966683000" lon="-3.8917491000"><ele>180</ele><time>2010-04-06T15:01:00Z</time></trkpt>
<trkpt lat="53.0967599000" lon="-3.8917990000"><ele>180</ele><time>2010-04-06T15:01:08Z</time></trkpt>
<trkpt lat="53.0968474000" lon="-3.8918426000"><ele>178</ele><time>2010-04-06T15:01:17Z</time></trkpt>
<trkpt lat="53.0968756000" lon="-3.8918248000"><ele>179</ele><time>2010-04-06T15:01:20Z</time></trkpt>
<trkpt lat="53.0968290000" lon="-3.8916704000"><ele>176</ele><time>2010-04-06T15:01:29Z</time></trkpt>
<trkpt lat="53.0967951000" lon="-3.8915616000"><ele>174</ele><time>2010-04-06T15:01:36Z</time></trkpt>
<trkpt lat="53.0967517000" lon="-3.8914379000"><ele>170</ele><time>2010-04-06T15:01:44Z</time></trkpt>
<trkpt lat="53.0966916000" lon="-3.8912909000"><ele>170</ele><time>2010-04-06T15:01:53Z</time></trkpt>
<trkpt lat="53.0966144000" lon="-3.8911914000"><ele>173</ele><time>2010-04-06T15:02:01Z</time></trkpt>
<trkpt lat="53.0965421000" lon="-3.8910991000"><ele>178</ele><time>2010-04-06T15:02:09Z</time></trkpt>
<trkpt lat="53.0964524000" lon="-3.8909696000"><ele>178</ele><time>2010-04-06T15:02:18Z</time></trkpt>
<trkpt lat="53.0963539000" lon="-3.8908555000"><ele>178</ele><time>2010-04-06T15:02:26Z</time></trkpt>
<trkpt lat="53.0962756000" lon="-3.8907275000"><ele>177</ele><time>2010-04-06T15:02:33Z</time></trkpt>
<trkpt lat="53.0961756000" lon="-3.8905510000"><ele>174</ele><time>2010-04-06T15:02:43Z</time></trkpt>
<trkpt lat="53.0960821000" lon="-3.8903174000"><ele>171</ele><time>2010-04-06T15:02:55Z</time></trkpt>
<trkpt lat="53.0960303000" lon="-3.8900831000"><ele>169</ele><time>2010-04-06T15:03:05Z</time></trkpt>
<trkpt lat="53.0960183000" lon="-3.8899432000"><ele>168</ele><time>2010-04-06T15:03:11Z</time></trkpt>
<trkpt lat="53.0959875000" lon="-3.8897668000"><ele>167</ele><time>2010-04-06T15:03:19Z</time></trkpt>
<trkpt lat="53.0959583000" lon="-3.8896482000"><ele>166</ele><time>2010-04-06T15:03:25Z</time></trkpt>
<trkpt lat="53.0959259000" lon="-3.8895083000"><ele>164</ele><time>2010-04-06T15:03:33Z</time></trkpt>
<trkpt lat="53.0959203000" lon="-3.8894824000"><ele>163</ele><time>2010-04-06T15:03:34Z</time></trkpt>
<trkpt lat="53.0959336000" lon="-3.8893874000"><ele>164</ele><time>2010-04-06T15:03:38Z</time></trkpt>
<trkpt lat="53.0959919000" lon="-3.8892225000"><ele>163</ele><time>2010-04-06T15:03:47Z</time></trkpt>
<trkpt lat="53.0960151000" lon="-3.8892087000"><ele>164</ele><time>2010-04-06T15:03:49Z</time></trkpt>
<trkpt lat="53.0960581000" lon="-3.8892973000"><ele>164</ele><time>2010-04-06T15:03:56Z</time></trkpt>
<trkpt lat="53.0960693000" lon="-3.8893520000"><ele>164</ele><time>2010-04-06T15:04:01Z</time></trkpt>
</trkseg>
</trk>
</gpx>